     2              OBSERVATION DATA    GPS                 RINEX VERSION / TYPE
ASHTORIN MIT 05 - JUN - 97 10:33                            PGM / RUN BY / DATE
                                                            COMMENT
China Lake 97 #1 Ashtech Z12                                COMMENT
Original Marker Name: JOBU                                  COMMENT
Campaign Name: China Lake May 1997                          COMMENT
4-Character Station Name: GS10                              COMMENT
6-Character Antenna Code: ASHGD3                            COMMENT
Vertical Measurement Point: TGP                             COMMENT
Vertical Offset to Rinex Ref. Point: 0.0640                 COMMENT
Radial Measurement Point: OOH                               COMMENT
Radial Offset to Rinex Ref. Point: 0.1737                   COMMENT
Antenna Height from Field Measurement: 1.2000 m             COMMENT
Additional Antenna Identification Info.:                    COMMENT
The Whopper (700718AB)                                      COMMENT
Original XYZ: -2449236.7400 -4586921.4300 3683479.0800      COMMENT
New XYZ position is based on association with SCEC monument COMMENT
E1F4A4F3+0011. Position of that monument is believed to be  COMMENT
valid to within 1 m horizontally; vertical accuracy         COMMENT
should be no worse than 3-times this value.                 COMMENT
                                                            COMMENT
Revised Rinex header created by UCSD GPS archive for        COMMENT
GSAC on 01-Aug-2000 (2000:214) 00:33:40 GMT                 COMMENT
For assistance contact dagnew@ucsd.edu                      COMMENT
or anderson@python.ucsd.edu                                 COMMENT
                                                            COMMENT
JOBURG 1973 RESET 1977                                      MARKER NAME
gs10                                                        MARKER NUMBER
LCS US DEFENSE MAPPING AGENCY                               OBSERVER / AGENCY
426 ASHTECH Z-XII3 1G001C7                                  REC # / TYPE / VERS
452 ASHTECH GEODETIC III                                    ANT # / TYPE
 -2421207.8124 -4613274.3278  3669248.3214                  APPROX POSITION XYZ
        1.1234        0.0000        0.0000                  ANTENNA: DELTA H/E/N
     1     1     0                                          WAVELENGTH FACT L1/2
     7    L1    L2    C1    P1    P2    D1    D2            # / TYPES OF OBSERV
    30                                                      INTERVAL
  1997     4    14    15    12    0.000000                  TIME OF FIRST OBS
  1997     4    14    21    29   60.000000                  TIME OF LAST OBS
                                                            END OF HEADER
 97  4 14 15 12  0.0000000  0  5 31  3 27 19 18                     -0.000032639
   -113527.35519    -80877.88458  20407149.040    20407151.3305   20407157.3005
      1271.333         990.649
     66618.20519     49585.37656  22424767.263    22424771.9765   22424777.5875
      -751.691        -585.733
   -259953.05219   -185356.60158  20421703.474    20421705.7635   20421712.3345
      2962.765        2308.648
    -76958.12019    -55789.80258  19259879.559    19259881.4255   19259887.5935
       889.150         692.844
     69348.24019     49861.24358  19367736.446    19367738.1225   19367744.7455
      -811.391        -632.253
 97  4 14 15 12 30.0000000  0  7 31  3 27 19 18 10 16                0.000753262
   -151434.232 9   -110415.70858  21898896.172    21898900.2555   21898906.2505
      1255.936         978.651
     89339.841 9     67290.50456  23928060.641    23928057.8335   23928064.4925
      -763.511        -594.944
   -348850.589 9   -254627.40258  21903747.653    21903751.4575   21903758.0515
      2964.400        2309.922
   -103597.436 9    -76547.72058  20753770.241    20753774.4675   20753780.5935
       886.849         691.051
     93850.530 9     68953.91258  20871359.932    20871363.0285   20871369.6535
      -822.622        -641.004
   -176274.92719   -110438.42957  23978527.952           0.0005   23978549.4615
      1624.053        1265.496
    156308.93818    112314.93155  25094496.375           0.0005   25094504.1935
     -2304.037       -1795.354
 97  4 14 15 13  0.0000000  0  8 31  3 27 19 18 10  2 16             0.000733348
   -188902.766 9   -139611.96848  21891767.453    21891770.2674   21891776.3214
      1241.188         967.159
    112407.004 9     85264.91946  23932447.887    23932447.2804   23932453.7304
      -774.926        -603.838
   -437818.523 9   -323953.06748  21886818.833    21886821.4414   21886828.0174
      2965.970        2311.145
   -130189.592 9    -97268.89048  20748710.879    20748714.1294   20748720.2794
       885.189         689.758
    118686.216 9     88306.36748  20876086.415    20876089.0724   20876095.6924
      -833.920        -649.808
   -224823.139 9   -148268.22647  23969293.077    23969303.2385   23969310.9804
      1611.841        1255.980
   -292875.92019   -216535.84758  23288697.999    23288701.0395   23288708.4965
      3456.138        2693.095
    225299.949 8    166074.07155  25107616.399    25107625.0515   25107634.7955
     -2295.969       -1789.067
 97  4 14 15 13 30.0000000  0  8 31  3 27 19 18 10  2 16             0.000713376
   -225945.354 9   -168476.32148  21884719.109    21884721.3124   21884727.3364
      1227.206         956.264
    135785.014 9    103481.52847  23936895.590    23936896.0954   23936902.7604
      -784.717        -611.468
   -526842.282 9   -393322.23048  21869878.419    21869880.7694   21869887.3344
      2967.877        2312.631
   -156745.264 9   -117961.62848  20743658.008    20743660.7594   20743666.8764
       883.976         688.812
    143849.467 9    107914.07648  20880875.018    20880877.5034   20880884.1354
      -844.524        -658.071
   -273025.861 9   -185828.80257  23960125.116    23960130.5775   23960138.4365
      1600.493        1247.137
   -396552.211 9   -297322.56858  23268969.744    23268972.1945   23268979.6025
      3454.526        2691.838
    294027.551 8    219627.94845  25120693.397    25120703.1325   25120712.5354
     -2286.868       -1781.975
 97  4 14 15 14  0.0000000  0  8 31  3 27 19 18 10  2 16             0.000693275
   -262525.389 9   -196980.24948  21877758.080    21877760.3964   21877766.3614
      1210.425         943.188
    159509.487 9    121968.11246  23941409.852    23941410.6394   23941417.2024
      -797.653        -621.548
   -615871.095 9   -462695.32948  21852936.837    21852939.1344   21852945.7444
      2966.447        2311.517
   -183209.696 9   -138583.27248  20738622.072    20738624.7294   20738630.8814
       879.472         685.303
    169363.220 9    127794.89848  20885730.345    20885732.6354   20885739.2364
      -857.133        -667.896
   -320828.035 9   -223077.26647  23951030.038    23951034.3204   23951041.9884
      1585.371        1235.354
   -500136.544 9   -378037.62948  23249258.908    23249260.8044   23249268.2044
      3450.284        2688.533
    362528.039 8    273004.83845  25133732.783    25133738.6114   25133747.8294
     -2280.571       -1777.068
 97  4 14 15 14 30.0000000  0  8 31  3 27 19 18 10  2 16             0.000673058
   -298636.298 9   -225118.61748  21870886.619    21870888.7214   21870894.6834
      1195.035         931.196
    183573.985 9    140719.64747  23945989.178    23945990.1714   23945996.8554
      -808.344        -629.878
   -704893.106 9   -532063.12748  21835996.664    21835998.8544   21836005.4354
      2966.539        2311.589
   -209575.541 9   -159128.09548  20733604.987    20733607.5184   20733613.6474
       876.557         683.031
    195212.500 9    147937.16648  20890649.368    20890651.6014   20890658.2324
      -867.954        -676.328
   -368207.849 9   -259996.62347  23942014.742    23942018.2084   23942025.9584
      1571.591        1224.616
   -603627.865 9   -458680.20948  23229565.432    23229567.0854   23229574.5184
      3447.231        2686.154
    430793.703 8    326198.75745  25146724.647    25146729.2034   25146738.4654
     -2272.149       -1770.506
 97  4 14 15 15  0.0000000  0  8 31  3 27 19 18 10  2 16             0.000652713
   -334304.124 9   -252911.73548  21864099.350    21864101.3574   21864107.3194
      1181.635         920.755
    207939.818 9    159705.95246  23950625.709    23950626.8424   23950633.5624
      -817.121        -636.718
   -793932.777 9   -601444.69148  21819053.044    21819055.1664   21819061.7524
      2968.536        2313.145
   -235874.563 9   -179620.85348  20728600.626    20728602.9854   20728609.1434
       875.654         682.328
    221363.087 9    168314.21948  20895625.828    20895627.9124   20895634.6064
      -876.465        -682.960
   -415199.131 9   -296613.23547  23933073.101    23933076.0934   23933083.8394
      1560.276        1215.799
   -707040.940 9   -539261.82948  23209886.665    23209888.2544   23209895.6804
      3445.800        2685.039
    498773.434 8    379169.85845  25159661.763    25159665.4244   25159674.6674
     -2260.709       -1761.591
 97  4 14 15 15 30.0000000  0  8 31  3 27 19 18 10  2 16             0.000632217
   -369573.773 9   -280394.58248  21857388.020    21857389.7934   21857395.7514
      1168.406         910.446
    232550.378 9    178883.04146  23955308.687    23955310.1534   23955316.5544
      -824.912        -642.788
   -883049.858 9   -670886.57748  21802094.633    21802096.7634   21802103.3244
      2971.496        2315.451
   -262152.709 9   -200097.34248  20723600.227    20723602.4584   20723608.5974
       875.020         681.834
    247754.841 9    188879.19548  20900648.150    20900650.1034   20900656.8444
      -884.202        -688.989
   -461859.865 9   -332972.25947  23924194.518    23924196.9014   23924204.6674
      1549.192        1207.163
   -810410.995 9   -619809.92448  23190215.962    23190217.5944   23190225.0984
      3444.263        2683.841
    566393.005 8    431860.34945  25172529.864    25172533.0684   25172542.1594
     -2248.505       -1752.082
 97  4 14 15 16  0.0000000  0  8 31  3 27 19 18 10  2 16             0.000611651
   -404335.176 9   -307481.38948  21850773.159    21850774.9174   21850780.8934
      1151.072         896.939
    257510.047 9    198332.04346  23960057.492    23960059.8734   23960066.7254
      -836.868        -652.105
   -972154.770 9   -740318.97548  21785138.700    21785140.7014   21785147.2544
      2970.894        2314.982
   -288300.207 9   -220472.02448  20718624.694    20718626.7964   20718632.9194
       870.357         678.200
    274489.494 9    209711.36748  20905735.671    20905737.5404   20905744.3084
      -896.028        -698.204
   -508075.324 9   -368984.33247  23915400.331    23915402.4304   23915410.1834
      1534.029        1195.347
   -913625.341 9   -700236.68248  23170574.918    23170576.5444   23170584.1514
      3439.006        2679.745
    633758.382 8    484352.76345  25185349.578    25185352.3204   25185361.2414
     -2240.397       -1745.764
 97  4 14 15 16 30.0000000  0  8 31  3 27 19 18 10  2 16             0.000590994
   -438616.231 9   -334193.90348  21844249.761    21844251.4564   21844257.4654
      1135.515         884.817
    282788.506 9    218029.56346  23964868.183    23964870.0114   23964876.6004
      -847.181        -660.141
  -1061285.540 9   -809771.52048  21768177.680    21768179.7134   21768186.2554
      2972.447        2316.192
   -314348.560 9   -240769.44648  20713667.858    20713669.9784   20713676.0924
       867.525         675.994
    301539.874 9    230789.56048  20910883.191    20910885.0874   20910891.8674
      -906.218        -706.144
   -553885.493 9   -404680.57847  23906683.268    23906685.0714   23906692.9234
      1521.256        1185.394
  -1016733.495 9   -780580.69148  23150953.924    23150955.6864   23150963.3734
      3436.163        2677.530
    700842.753 8    536626.19445  25198115.562    25198117.9724   25198127.1904
     -2230.608       -1738.136
 97  4 14 15 17  0.0000000  0  8 31  3 27 19 18 10  2 16             0.000570243
   -472407.648 9   -360524.88548  21837819.324    21837821.1644   21837827.2004
      1118.666         871.688
    308402.305 9    237988.30447  23969742.611    23969744.3614   23969751.3804
      -858.871        -669.250
  -1150442.153 9   -879244.20948  21751211.760    21751213.7934   21751220.3414
      2972.830        2316.491
   -340296.424 9   -260988.57348  20708730.147    20708732.3094   20708738.4074
       863.886         673.158
    328920.025 9    252124.71748  20916093.441    20916095.3894   20916102.1764
      -917.805        -715.173
   -599303.792 9   -440071.48847  23898040.612    23898042.3324   23898050.2354
      1508.086        1175.132
  -1119745.596 9   -860849.86448  23131351.457    23131353.1454   23131360.7984
      3432.761        2674.879
    767653.206 8    588686.19545  25210829.733    25210831.7064   25210840.7974
     -2222.006       -1731.433
 97  4 14 15 17 30.0000000  0  8 31  3 27 19 18 10  2 16             0.000549396
   -505708.809 9   -386473.85048  21831482.429    21831484.1864   21831490.2274
      1101.815         858.557
    334342.859 9    258201.71046  23974678.663    23974680.5424   23974687.3284
      -870.053        -677.963
  -1239627.039 9   -948738.92648  21734240.468    21734242.4684   21734249.0224
      2973.259        2316.825
   -366156.381 9   -281139.19648  20703809.260    20703811.3134   20703817.4534
       860.751         670.715
    356642.511 9    273726.62948  20921368.862    20921370.7974   20921377.5534
      -929.815        -724.531
   -644339.400 9   -475164.19847  23889471.001    23889472.3684   23889480.1594
      1494.732        1164.726
  -1222670.945 9   -941051.43148  23111765.390    23111767.1204   23111774.7444
      3429.403        2672.262
    834195.258 8    640537.06245  25223492.330    25223494.3934   25223503.5494
     -2213.661       -1724.931
 97  4 14 15 18  0.0000000  0  8 31  3 27 19 18 10  2 16             0.000528458
   -538536.264 9   -412053.69048  21825235.271    21825237.4064   21825243.4074
      1087.474         847.382
    360600.037 9    278661.81447  23979675.457    23979677.2954   23979684.1934
      -879.524        -685.343
  -1328848.907 9  -1018262.45748  21717262.128    21717264.1274   21717270.6384
      2975.639        2318.680
   -391963.364 9   -301248.54448  20698898.205    20698900.3914   20698906.5824
       860.689         670.667
    384690.898 9    295582.49248  20926706.419    20926708.2664   20926714.9784
      -939.089        -731.758
   -689005.681 9   -509969.12247  23880971.413    23880972.6994   23880980.3944
      1483.893        1156.280
  -1325524.421 9  -1021196.98848  23092193.016    23092194.7384   23092202.3864
      3428.488        2671.549
    900462.029 8    692173.38545  25236102.844    25236104.5944   25236113.6834
     -2203.100       -1716.701
 97  4 14 15 18 30.0000000  0  8 31  3 27 19 18 10  2 16             0.000507429
   -570902.965 9   -437274.49948  21819076.127    21819078.2924   21819084.2594
      1071.455         834.900
    387169.640 9    299365.37446  23984731.488    23984733.3394   23984740.1974
      -890.579        -693.958
  -1418114.549 9  -1087820.09948  21700275.545    21700277.4684   21700283.9394
      2976.603        2319.431
   -417749.410 9   -321341.57448  20693991.142    20693993.4554   20693999.6944
       859.485         669.729
    413037.899 9    317671.04048  20932100.723    20932102.5694   20932109.2724
      -949.660        -739.995
   -733328.731 9   -544506.59047  23872537.099    23872538.3834   23872546.0424
      1472.085        1147.079
  -1428323.856 9  -1101300.43348  23072630.960    23072632.6614   23072640.2894
      3425.740        2669.408
    966426.039 8    743573.85345  25248655.634    25248657.3374   25248666.2964
     -2193.210       -1708.995
 97  4 14 15 19  0.0000000  0  8 31  3 27 19 18 10  2 16             0.000486323
   -602796.218 9   -462126.39248  21813007.407    21813009.2474   21813015.2044
      1053.356         820.797
    414056.741 9    320316.32246  23989847.707    23989849.7864   23989856.7074
      -903.279        -703.854
  -1507414.381 9  -1157404.38348  21683282.384    21683284.2794   21683290.7664
      2975.328        2318.437
   -443503.247 9   -341409.51248  20689090.589    20689092.6874   20689098.9484
       855.852         666.898
    441696.787 9    340002.60948  20937554.424    20937556.2084   20937562.8984
      -962.348        -749.882
   -777303.402 9   -578772.60147  23864169.117    23864170.3074   23864177.9284
      1457.993        1136.098
  -1531026.971 9  -1181328.82548  23053087.109    23053088.8764   23053096.4744
      3419.641        2664.655
   1032080.354 8    794732.94745  25261149.226    25261150.9214   25261160.2234
     -2185.231       -1702.777
 97  4 14 15 19 30.0000000  0  8 31  3 27 19 18 10  2 16             0.000465172
   -634181.176 9   -486582.20848  21807035.190    21807036.9514   21807042.9294
      1037.445         808.399
    441292.794 9    341539.19146  23995030.782    23995032.7654   23995039.5904
      -914.023        -712.226
  -1596709.039 9  -1226984.63448  21666290.214    21666292.0774   21666298.5814
      2976.137        2319.068
   -469168.507 9   -361408.42348  20684206.649    20684208.8004   20684215.0414
       853.615         665.154
    470705.709 9    362606.94048  20943074.708    20943076.5004   20943083.1724
      -972.953        -758.145
   -820869.316 9   -612720.08947  23855878.773    23855880.0454   23855887.7064
      1444.909        1125.903
  -1633563.918 9  -1261227.74148  23033574.907    23033576.7684   23033584.3254
      3414.732        2660.830
   1097463.533 8    845680.79845  25273591.405    25273592.9724   25273602.3284
     -2175.117       -1694.896
 97  4 14 15 20  0.0000000  0  8 31  3 27 19 18 10  2 16             0.000443954
   -665096.465 9   -510672.04948  21801151.960    21801154.0004   21801159.9914
      1022.268         796.572
    468856.774 9    363017.57646  24000275.779    24000277.9404   24000284.7234
      -924.642        -720.500
  -1686026.658 9  -1296582.77848  21649293.529    21649295.5334   21649302.0394
      2977.046        2319.776
   -494759.996 9   -381349.85748  20679336.641    20679338.9254   20679345.1754
       851.037         663.146
    500029.552 9    385456.65748  20948654.884    20948656.6994   20948663.3294
      -983.134        -766.078
   -864042.893 9   -646361.87347  23847662.963    23847664.4054   23847672.0634
      1432.119        1115.937
  -1735958.228 9  -1341015.50848  23014090.001    23014091.7824   23014099.3044
      3410.582        2657.596
   1162543.317 8    896392.18745  25285975.928    25285977.4504   25285986.9004
     -2164.602       -1686.703
 97  4 14 15 20 30.0000000  0  8 31  3 27 19 18 10  2 16             0.000422658
   -695518.363 9   -534377.43348  21795362.759    21795364.9214   21795370.9384
      1005.060         783.164
    496764.210 9    384763.61746  24005586.752    24005588.7334   24005595.3654
      -936.741        -729.928
  -1775328.592 9  -1366168.70148  21632300.044    21632302.0334   21632308.4964
      2975.720        2318.743
   -520216.532 9   -401186.12848  20674492.554    20674494.7284   20674500.9804
       845.288         658.666
    529700.301 9    408576.68948  20954301.137    20954302.9384   20954309.5194
      -995.745        -775.905
   -906795.331 9   -679675.49147  23839527.505    23839528.9544   23839536.4894
      1417.273        1104.369
  -1838193.255 9  -1420679.15548  22994635.399    22994637.1174   22994644.6564
      3404.212        2652.633
   1227342.759 8    946885.20445  25298306.825    25298308.3264   25298317.4324
     -2156.146       -1680.114
 97  4 14 15 21  0.0000000  0  8 31  3 27 19 18 10  2 16             0.000401270
   -725459.287 9   -557708.03448  21789665.387    21789667.3494   21789673.3634
       991.124         772.304
    524998.861 9    406764.59346  24010959.508    24010961.6694   24010968.3174
      -945.346        -736.633
  -1864621.935 9  -1435747.93148  21615307.993    21615310.0954   21615316.5684
      2977.457        2320.096
   -545529.149 9   -420910.25648  20669675.766    20669677.8974   20669684.1624
       842.655         656.614
    559719.431 9    431968.18748  20960013.698    20960015.4564   20960022.0184
     -1005.251        -783.312
   -949125.922 9   -712660.39547  23831472.579    23831473.7464   23831481.2934
      1405.028        1094.827
  -1940270.573 9  -1500219.91048  22975210.764    22975212.4634   22975219.9794
      3401.443        2650.475
   1291867.563 8    997164.17445  25310585.633    25310587.3044   25310596.6454
     -2145.326       -1671.683
 97  4 14 15 21 30.0000000  0  8 31  3 27 19 18 10  2 16             0.000379781
   -754926.304 9   -580669.34848  21784057.760    21784059.9374   21784065.9144
       973.496         758.568
    553553.486 9    429014.93846  24016393.298    24016395.5044   24016402.0354
      -958.108        -746.578
  -1953909.622 9  -1505322.75248  21598317.124    21598319.2374   21598325.7304
      2975.188        2318.328
   -570711.934 9   -440533.21948  20664883.705    20664885.8134   20664892.0244
       836.575         651.877
    590076.279 9    455622.84448  20965790.402    20965792.2294   20965798.7834
     -1018.232        -793.428
   -991031.730 9   -745314.28947  23823497.882    23823499.3434   23823506.9064
      1389.074        1082.395
  -2042227.512 9  -1579666.87148  22955809.162    22955810.7374   22955818.2244
      3396.052        2646.274
   1356121.832 8   1047232.35045  25322812.322    25322814.5844   25322823.4964
     -2138.273       -1666.187
 97  4 14 15 22  0.0000000  0  8 31  3 27 19 18 10  2 16             0.000358192
   -783902.860 9   -603248.49348  21778543.654    21778545.8874   21778551.8584
       957.335         745.975
    582452.782 9    451533.82246  24021892.502    24021894.8034   24021901.4614
      -969.112        -755.152
  -2043167.751 9  -1574874.54348  21581331.878    21581333.9544   21581340.5144
      2974.559        2317.838
   -595754.252 9   -460046.72548  20660118.551    20660120.4754   20660126.6244
       832.163         648.439
    620776.885 9    479545.36348  20971632.486    20971634.3884   20971640.9264
     -1029.205        -801.978
  -1032513.155 9   -777637.50447  23815604.088    23815605.6524   23815613.3844
      1375.747        1072.011
  -2144075.487 9  -1659028.91948  22936428.158    22936429.7054   22936437.2284
      3393.054        2643.938
   1420123.904 8   1097104.00245  25334991.950    25334993.7614   25335002.8854
     -2129.267       -1659.169
 97  4 14 15 22 30.0000000  0  8 31  3 27 19 18 10  2 16             0.000336491
   -812392.036 9   -625447.85848  21773122.596    21773124.5514   21773130.5584
       940.623         732.953
    611669.471 9    474300.04646  24027452.454    24027454.5004   24027461.3144
      -980.144        -763.749
  -2132418.979 9  -1644420.95248  21564348.006    21564350.0214   21564356.5534
      2974.316        2317.649
   -620672.010 9   -479463.16548  20655376.767    20655378.8244   20655384.9224
       827.940         645.148
    651803.167 9    503721.66648  20977536.597    20977538.5294   20977545.0364
     -1040.588        -810.848
  -1073606.021 9   -809657.94847  23807784.452    23807785.9824   23807793.7934
      1362.377        1061.592
  -2245836.237 9  -1738322.99648  22917063.543    22917065.2544   22917072.8084
      3389.473        2641.148
   1483855.850 8   1146765.17845  25347119.507    25347121.6584   25347130.7924
     -2120.797       -1652.569
 97  4 14 15 23  0.0000000  0  7 31  3 27 19 18 10  2                0.000314708
   -840375.645 9   -647253.27248  21767797.342    21767799.4894   21767805.4744
       924.025         720.019
    641217.816 9    497324.72346  24033075.284    24033077.5494   24033084.0184
      -990.572        -771.874
  -2221666.390 9  -1713964.39148  21547364.803    21547366.8104   21547373.3164
      2974.649        2317.908
   -645472.210 9   -498788.00848  20650657.502    20650659.5154   20650665.5944
       824.544         642.502
    683173.645 9    528166.15948  20983506.215    20983508.1764   20983514.6794
     -1051.646        -819.464
  -1114291.219 9   -841360.72347  23800042.552    23800043.8884   23800051.6784
      1349.043        1051.202
  -2347480.388 9  -1817526.22648  22897721.309    22897723.0154   22897730.5574
      3385.997        2638.439
 97  4 14 15 23 30.0000000  0  7 31  3 27 19 18 10  2                0.000292841
   -867851.385 9   -668662.95048  21762568.983    21762571.1004   21762577.0034
       907.766         707.350
    671080.015 9    520593.91846  24038757.957    24038759.9554   24038766.7274
     -1000.144        -779.333
  -2310917.140 9  -1783510.42548  21530381.067    21530382.9644   21530389.4744
      2975.467        2318.546
   -670162.990 9   -518027.59048  20645959.014    20645961.0224   20645967.1164
       821.486         640.119
    714877.673 9    552870.56948  20989539.514    20989541.2784   20989547.7884
     -1061.886        -827.444
  -1154577.266 9   -872752.47247  23792376.364    23792377.6734   23792385.5894
      1336.705        1041.588
  -2449014.191 9  -1896643.46248  22878400.066    22878401.8324   22878409.3314
      3382.779        2635.932
 97  4 14 15 24  0.0000000  0  7 31  3 27 19 18 10  2                0.000270890
   -894815.120 9   -689673.66248  21757438.670    21757440.0764   21757445.9644
       891.326         694.540
    701242.005 9    544096.74246  24044497.592    24044499.6794   24044506.2914
     -1009.041        -786.266
  -2400175.726 9  -1853062.57648  21513395.667    21513397.6564   21513404.1584
      2976.643        2319.462
   -694735.372 9   -537174.91748  20641282.995    20641285.0534   20641291.1624
       818.244         637.593
    746913.397 9    577833.43648  20995635.684    20995637.4804   20995644.0334
     -1072.332        -835.583
  -1194472.214 9   -903839.48147  23784784.872    23784785.9534   23784793.8894
      1324.454        1032.042
  -2550417.476 9  -1975659.00548  22859103.816    22859105.4354   22859112.9274
      3378.973        2632.966
 97  4 14 15 24 30.0000000  0  7 31  3 27 19 18 10  2                0.000248847
   -921276.783 9   -710293.14548  21752402.882    21752404.5794   21752410.4404
       873.873         680.940
    731679.993 9    567814.65146  24050289.627    24050291.7974   24050298.4124
     -1019.235        -794.209
  -2489463.166 9  -1922637.20148  21496404.821    21496406.8194   21496413.3844
      2976.813        2319.595
   -719200.059 9   -556238.31948  20636627.500    20636629.6154   20636635.6974
       813.921         634.224
    779278.440 9    603052.91948  21001794.602    21001796.3444   21001802.9064
     -1084.168        -844.806
  -1233980.145 9   -934624.90247  23777266.969    23777267.8704   23777275.7154
      1310.392        1021.085
  -2651695.157 9  -2054576.66648  22839831.337    22839832.9584   22839840.4584
      3373.856        2628.979
 97  4 14 15 25  0.0000000  0  7 31  3 27 19 18 10  2                0.000226699
   -947273.402 9   -730550.26248  21747455.895    21747457.5884   21747463.4594
       857.578         668.243
    762363.721 9    591723.99146  24056128.415    24056130.7844   24056137.6024
     -1027.932        -800.986
  -2578810.461 9  -1992258.47548  21479402.789    21479404.6024   21479411.1744
      2977.952        2320.482
   -743598.877 9   -575250.39848  20631984.474    20631986.6834   20631992.7524
       810.986         631.937
    811926.178 9    628492.68848  21008007.273    21008009.0494   21008015.6114
     -1093.981        -852.453
  -1273128.590 9   -965130.22047  23769816.892    23769818.2104   23769826.0194
      1297.946        1011.386
  -2752880.415 9  -2133422.31448  22820576.373    22820578.0204   22820585.5384
      3370.337        2626.237
 97  4 14 15 25 30.0000000  0  7 31  3 27 19 18 10  2                0.000204477
   -972737.769 9   -750392.63348  21742610.567    21742611.9034   21742617.8144
       839.150         653.883
    793354.086 9    615872.40146  24062026.093    24062028.0894   24062034.3534
     -1039.255        -809.809
  -2668139.213 9  -2061865.29348  21462404.083    21462405.8964   21462412.4924
      2976.306        2319.199
   -767858.823 9   -594154.26248  20627368.004    20627370.1714   20627376.2534
       805.454         627.626
    844913.054 9    654196.71748  21014284.568    21014286.2934   21014292.8444
     -1106.153        -861.937
  -1311865.881 9   -995315.14647  23762445.576    23762446.7674   23762454.5424
      1283.563        1000.179
  -2853915.944 9  -2212151.28948  22801349.936    22801351.5994   22801359.1254
      3364.342        2621.565
 97  4 14 15 26  0.0000000  0  7 31  3 27 19 18 10  2                0.000182198
   -997658.060 9   -769811.05248  21737868.177    21737869.7164   21737875.6564
       823.808         641.928
    824693.838 9    640292.89246  24067989.223    24067991.8054   24067998.5754
     -1048.392        -816.929
  -2757422.274 9  -2131436.50848  21445414.008    21445415.8794   21445422.4724
      2977.562        2320.178
   -791961.468 9   -612935.56048  20622781.401    20622783.6104   20622789.6964
       803.259         625.916
    878267.217 9    680186.93648  21020631.637    21020633.4174   21020639.9484
     -1115.707        -869.382
  -1350167.748 9  -1025160.79047  23755157.026    23755158.1624   23755166.0144
      1271.666         990.909
  -2954774.206 9  -2290742.12948  22782157.373    22782158.9804   22782166.4834
      3361.364        2619.245
 97  4 14 15 26 30.0000000  0  7 31  3 27 19 18 10  2                0.000159870
  -1022056.059 9   -788822.49148  21733225.542    21733226.9354   21733232.9184
       804.534         626.910
    856376.234 9    664980.46945  24074018.067    24074020.6534   24074027.1104
     -1061.664        -827.271
  -2846676.069 9  -2200984.92048  21428429.538    21428431.4414   21428437.9804
      2974.422        2317.731
   -815946.591 9   -631625.28048  20618217.216    20618219.4044   20618225.5034
       797.903         621.743
    911968.048 9    706447.29448  21027044.783    21027046.5094   21027053.0204
     -1128.895        -879.658
  -1388048.496 9  -1054678.28947  23747948.540    23747949.7154   23747957.5964
      1255.676         978.449
  -3055485.359 9  -2369218.34548  22762992.740    22762994.3784   22763001.7694
      3354.570        2613.951
 97  4 14 15 27  0.0000000  0  7 31  3 27 19 18 10  2                0.000137504
  -1045917.841 9   -807416.09548  21728684.641    21728686.1974   21728692.2104
       786.444         612.813
    888406.584 9    689939.18946  24080113.607    24080115.9854   24080122.4184
     -1073.353        -836.379
  -2935867.078 9  -2270484.40848  21411457.138    21411458.9724   21411465.4354
      2971.955        2315.809
   -839821.385 9   -650229.02548  20613674.020    20613676.2274   20613682.2784
       793.929         618.646
    946010.876 9    732974.13948  21033522.891    21033524.6724   21033531.1874
     -1140.442        -888.656
  -1425491.016 9  -1083854.32647  23740823.439    23740824.6414   23740832.5494
      1240.766         966.831
  -3156032.959 9  -2447567.11748  22743859.195    22743860.8344   22743868.2074
      3348.852        2609.495
 97  4 14 15 27 30.0000000  0  7 31  3 27 19 18 10  2                0.000115082
  -1069278.755 9   -825619.40948  21724238.769    21724240.7874   21724246.7834
       771.119         600.872
    920753.619 9    715144.61146  24086269.358    24086271.4844   24086278.1024
     -1083.080        -843.958
  -3025018.294 9  -2339952.88548  21394492.165    21394494.0904   21394500.4524
      2971.742        2315.643
   -863611.728 9   -668766.96848  20609146.916    20609149.1234   20609155.1494
       792.286         617.366
    980365.654 9    759744.06248  21040060.394    21040062.1824   21040068.7094
     -1149.648        -895.830
  -1462514.211 9  -1112703.60947  23733778.171    23733779.4154   23733787.1864
      1227.608         956.578
  -3256440.492 9  -2525806.74048  22724752.236    22724753.9284   22724761.3334
      3345.228        2606.671
 97  4 14 15 28  0.0000000  0  7 31  3 27 19 18 10  2                0.000092608
  -1092149.854 9   -843441.05548  21719887.337    21719888.5794   21719894.5034
       753.811         587.385
    953424.838 9    740602.73546  24092486.453    24092488.7234   24092494.9004
     -1094.540        -852.888
  -3114136.239 9  -2409395.43448  21377533.489    21377535.5024   21377541.8164
      2969.719        2314.067
   -887319.610 9   -687240.65348  20604635.540    20604637.6994   20604643.6984
       788.459         614.384
   1015021.074 9    786748.25248  21046655.125    21046656.9264   21046663.4854
     -1160.374        -904.188
  -1499109.065 9  -1141219.11147  23726814.442    23726815.7344   23726823.3964
      1212.395         944.723
  -3356712.147 9  -2603940.48448  22705671.230    22705672.8554   22705680.2774
      3339.877        2602.502
 97  4 14 15 28 30.0000000  0  7 31  3 27 19 18 10  2                0.000070098
  -1114476.566 9   -860838.49348  21715638.537    21715639.9414   21715645.8384
       735.590         573.187
    986451.751 9    766337.98246  24098771.408    24098773.5584   24098779.9614
     -1106.225        -861.994
  -3203163.061 9  -2478766.98148  21360592.318    21360594.2784   21360600.5634
      2966.563        2311.608
   -910877.872 9   -705597.75148  20600152.597    20600154.7604   20600160.7694
       783.123         610.226
   1050017.566 9    814018.21448  21053314.796    21053316.5574   21053323.1194
     -1171.590        -912.927
  -1535224.117 9  -1169360.74647  23719942.078    23719943.2714   23719951.0284
      1196.489         932.329
  -3456793.248 9  -2681925.74948  22686626.515    22686628.0684   22686635.4604
      3333.287        2597.366
 97  4 14 15 29  0.0000000  0  7 31  3 27 19 18 10  2                0.000047548
  -1136237.847 9   -877795.34348  21711497.122    21711498.8694   21711504.7884
       717.171         558.835
   1019850.404 9    792362.84646  24105126.869    24105129.0264   24105135.5864
     -1118.362        -871.451
  -3292086.709 9  -2548058.13948  21343670.847    21343672.6614   21343678.9814
      2964.027        2309.631
   -934238.758 9   -723801.05748  20595707.248    20595709.3404   20595715.3824
       776.191         604.824
   1085371.982 9    841567.07148  21060042.401    21060044.3034   21060050.8934
     -1183.595        -922.282
  -1570851.745 9  -1197122.57247  23713162.566    23713163.6124   23713171.5384
      1180.840         920.135
  -3556651.770 9  -2759737.57248  22667624.144    22667625.6584   22667632.9844
      3326.020        2591.704
 97  4 14 15 29 30.0000000  0  7 31  3 27 19 18 10  2                0.000024964
  -1157437.224 9   -894314.34248  21707463.142    21707464.7464   21707470.6414
       696.452         542.690
   1053634.685 9    818688.26546  24111556.031    24111558.0814   24111564.5094
     -1133.542        -883.279
  -3380943.007 9  -2617296.81148  21326761.979    21326763.8624   21326770.2334
      2960.077        2306.553
   -957377.960 9   -741831.61548  20591304.185    20591306.1314   20591312.1974
       766.970         597.639
   1121105.869 9    869411.62548  21066842.385    21066844.2844   21066850.9044
     -1198.341        -933.772
  -1606008.434 9  -1224517.42847  23706472.551    23706473.6134   23706481.4934
      1163.415         906.557
  -3656284.723 9  -2837373.62648  22648664.661    22648666.1254   22648673.4374
      3316.766        2584.493
 97  4 14 15 30  0.0000000  0  7 31  3 27 19 18 10  2                0.000002350
  -1178058.452 9   -910382.83648  21703539.103    21703540.6734   21703546.5564
       676.631         527.245
   1087814.350 9    845321.71346  24118059.837    24118062.2204   24118068.9704
     -1146.701        -893.533
  -3469736.181 9  -2686486.29748  21309865.156    21309867.0974   21309873.4584
      2957.764        2304.751
   -980295.298 9   -759689.29248  20586943.145    20586945.1464   20586951.2414
       759.320         591.678
   1157234.745 9    897563.96548  21073717.579    21073719.4274   21073726.0754
     -1212.018        -944.430
  -1640702.877 9  -1251552.09247  23699870.708    23699871.5484   23699879.4284
      1147.878         894.450
  -3755699.572 9  -2914839.73248  22629746.541    22629748.1144   22629755.3384
      3309.347        2578.712
 97  4 14 15 30 30.0000000  0  7 31  3 27 19 18 10  2               -0.000020231
  -1197996.881 9   -925919.27948  21699744.611    21699746.5204   21699752.3754
       653.574         509.278
   1122474.575 9    872329.72146  24124655.800    24124658.0454   24124664.3614
     -1163.036        -906.262
  -3558371.701 9  -2755552.93948  21292998.451    21293000.3554   21293006.6944
      2952.362        2300.542
  -1002902.179 9   -777305.05748  20582641.062    20582643.2014   20582649.3474
       748.980         583.621
   1193869.790 9    926110.71848  21080689.062    21080690.8894   21080697.5324
     -1229.253        -957.859
  -1674850.021 9  -1278160.29347  23693372.899    23693373.5854   23693381.4454
      1129.639         880.238
  -3854816.161 9  -2992073.43148  22610885.303    22610886.8684   22610894.0404
      3299.567        2571.091
 97  4 14 15 30 59.9990000  0  7 31  3 27 19 18 10  2               -0.000042784
  -1217272.058 9   -940938.90948  21696076.960    21696078.5954   21696084.4534
       633.649         493.752
   1157604.348 9    899703.51946  24131340.714    24131343.0404   24131349.6854
     -1176.777        -916.969
  -3646877.141 9  -2824518.21648  21276156.475    21276158.4034   21276164.6944
      2950.174        2298.837
  -1025227.020 9   -794701.05148  20578392.805    20578394.9514   20578401.1264
       741.724         577.967
   1230998.006 9    955041.76448  21087754.380    21087756.1944   21087762.8584
     -1243.862        -969.243
  -1708473.367 9  -1304360.35747  23686974.488    23686975.3084   23686983.0934
      1114.044         868.086
  -3953667.665 9  -3069100.56448  22592074.484    22592076.0234   22592083.2104
      3292.944        2565.930
 97  4 14 15 31 29.9990000  0  7 31  3 27 19 18 10  2               -0.000065330
  -1235928.686 9   -955476.53748  21692526.995    21692528.3734   21692534.2314
       608.366         474.051
   1193163.475 9    927411.89546  24138107.624    24138109.7384   24138116.5874
     -1195.363        -931.452
  -3735277.025 9  -2893401.24048  21259334.570    21259336.4724   21259342.8084
      2941.207        2291.850
  -1047324.375 9   -811919.77848  20574187.817    20574189.9714   20574196.1554
       729.824         568.694
   1268584.843 9    984330.17648  21094906.975    21094908.7574   21094915.4084
     -1263.443        -984.501
  -1741598.761 9  -1330172.38847  23680670.699    23680671.7624   23680679.6254
      1092.598         851.375
  -4052311.058 9  -3145965.52748  22573303.356    22573304.7854   22573312.0004
      3281.619        2557.106
 97  4 14 15 31 59.9990000  0  7 31  3 27 19 18 10  2               -0.000087821
  -1253862.383 9   -969450.84848  21689114.017    21689115.7144   21689121.5974
       587.697         457.946
   1229225.302 9    955512.00346  24144970.057    24144972.0054   24144978.8474
     -1208.229        -941.477
  -3823426.041 9  -2962088.78348  21242560.264    21242562.2394   21242568.6674
      2935.939        2287.745
  -1069096.455 9   -828885.04448  20570044.721    20570046.8844   20570053.0994
       722.132         562.700
   1306719.103 9   1014045.15048  21102163.693    21102165.4774   21102172.1264
     -1278.180        -995.984
  -1774113.064 9  -1355508.24147  23674483.290    23674484.5384   23674492.3904
      1075.537         838.081
  -4150646.833 9  -3222590.79248  22554590.526    22554592.0434   22554599.3404
      3274.478        2551.541
 97  4 14 15 32 29.9990000  0  7 31  3 27 19 18 10  2               -0.000110232
  -1271030.126 9   -982828.31748  21685847.120    21685848.8224   21685854.7054
       561.845         437.801
   1265832.255 9    984036.90446  24151936.218    24151938.2064   24151944.9284
     -1227.056        -956.148
  -3911258.964 9  -3030530.01948  21225846.160    21225848.1794   21225854.6514
      2924.644        2278.943
  -1090481.020 9   -845548.34948  20565975.366    20565977.5374   20565983.8194
       708.490         552.070
   1345438.689 9   1044216.22548  21109531.839    21109533.6004   21109540.2514
     -1297.952       -1011.391
  -1805958.489 9  -1380322.88447  23668423.420    23668424.5664   23668432.4494
      1052.463         820.101
  -4248604.819 9  -3298921.67248  22535949.534    22535951.1974   22535958.5404
      3260.876        2540.942
 97  4 14 15 32 59.9990000  0  7 31  3 27 19 18 10  2               -0.000132688
  -1287633.761 9   -995766.20948  21682687.361    21682689.2364   21682695.1214
       543.424         423.447
   1302784.349 9   1012830.68746  24158967.482    24158969.9984   24158976.7734
     -1237.769        -964.495
  -3998959.002 9  -3098867.70948  21209157.376    21209159.4314   21209165.8724
      2920.448        2275.674
  -1111662.142 9   -862053.12748  20561944.547    20561946.9074   20561953.2484
       702.145         547.126
   1384530.768 9   1074677.55348  21116970.758    21116972.5914   21116979.2524
     -1309.620       -1020.483
  -1837315.320 9  -1404756.80547  23662456.325    23662457.6194   23662465.5084
      1036.546         807.698
  -4346349.324 9  -3375086.20948  22517349.340    22517351.0474   22517358.4504
      3253.873        2535.485
 97  4 14 15 33 29.9990000  0  7 31  3 27 19 18 10  2               -0.000155193
  -1303670.464 9  -1008262.34548  21679635.079    21679637.5464   21679643.4434
       523.678         408.061
   1340061.408 9   1041877.72046  24166061.452    24166063.6524   24166070.5254
     -1249.298        -973.479
  -4086510.751 9  -3167089.85248  21192496.956    21192498.9424   21192505.3484
      2914.664        2271.167
  -1132639.541 9   -878399.16648  20557952.748    20557955.0874   20557961.4334
       694.448         541.128
   1423983.586 9   1105419.96848  21124478.356    21124480.1884   21124486.9374
     -1322.360       -1030.410
  -1868182.977 9  -1428809.57147  23656582.483    23656583.7284   23656591.6994
      1019.489         794.407
  -4443861.193 9  -3451069.47548  22498793.527    22498795.1544   22498802.5414
      3245.113        2528.659
 97  4 14 15 33 59.9990000  0  7 31  3 27 19 18 10  2               -0.000177723
  -1319099.073 9  -1020284.64548  21676699.839    21676701.5814   21676707.4574
       504.948         393.466
   1377703.842 9   1071209.47146  24173224.454    24173226.7524   24173233.5224
     -1260.376        -982.111
  -4173889.490 9  -3235177.17548  21175869.348    21175871.3124   21175877.7144
      2910.779        2268.139
  -1153364.194 9   -894548.25948  20554009.156    20554011.3864   20554017.7114
       687.378         535.619
   1463829.093 9   1136468.37748  21132060.686    21132062.5234   21132069.3084
     -1333.871       -1039.380
  -1898527.947 9  -1452455.03347  23650807.884    23650809.2954   23650817.2884
      1003.568         782.001
  -4541093.061 9  -3526834.55048  22480290.911    22480292.5584   22480299.9754
      3237.045        2522.373
 97  4 14 15 34 29.9990000  0  7 31  3 27 19 18 10  2               -0.000200291
  -1333976.142 9  -1031877.16948  21673869.218    21673870.5604   21673876.4254
       486.056         378.745
   1415684.363 9   1100804.66046  24180451.992    24180454.1934   24180460.9744
     -1272.219        -991.339
  -4261161.984 9  -3303181.71248  21159262.006    21159263.9224   21159270.2804
      2906.701        2264.962
  -1173886.116 9   -910539.37848  20550104.011    20550106.1914   20550112.5054
       680.081         529.933
   1504013.300 9   1167780.71148  21139707.439    21139709.2784   21139716.1464
     -1345.935       -1048.781
  -1928397.075 9  -1475729.71847  23645124.047    23645125.3814   23645133.4084
       987.037         769.120
  -4638082.458 9  -3602410.68448  22461834.527    22461836.0864   22461843.5224
      3228.303        2515.561
 97  4 14 15 34 59.9990000  0  7 31  3 27 19 18 10  2               -0.000222883
  -1348276.177 9  -1043020.05548  21671147.662    21671149.3774   21671155.2134
       465.830         362.984
   1454018.775 9   1130675.57246  24187746.844    24187748.9074   24187755.9374
     -1285.032       -1001.324
  -4348309.935 9  -3371089.20448  21142678.324    21142680.2294   21142686.5594
      2901.814        2261.154
  -1194185.035 9   -926356.72848  20546241.280    20546243.4584   20546249.7444
       671.873         523.537
   1544578.068 9   1199389.57948  21147426.700    21147428.5324   21147435.4524
     -1359.799       -1059.584
  -1957774.048 9  -1498620.90147  23639533.874    23639535.1304   23639543.2054
       970.147         755.959
  -4734807.292 9  -3677780.67048  22443428.476    22443429.9564   22443437.3604
      3218.745        2508.113
 97  4 14 15 35 29.9990000  0  7 31  3 27 19 18 10  2               -0.000245491
  -1361999.546 9  -1053713.59448  21668536.510    21668537.9124   21668543.7604
       449.248         350.063
   1492720.627 9   1160832.87246  24195111.547    24195113.7114   24195120.5084
     -1295.031       -1009.115
  -4435346.008 9  -3438909.51448  21126115.883    21126117.7854   21126124.1534
      2900.736        2260.314
  -1214265.052 9   -942003.50648  20542420.282    20542422.3964   20542428.6754
       667.031         519.764
   1585531.938 9   1231301.64448  21155220.037    21155221.8564   21155228.8124
     -1370.369       -1067.820
  -1986677.329 9  -1521142.95747  23634033.404    23634035.0194   23634043.1664
       956.867         745.611
  -4831279.416 9  -3752953.73748  22425070.380    22425071.9144   22425079.2944
      3213.084        2503.702
 97  4 14 15 35 59.9990000  0  7 31  3 27 19 18 10  2               -0.000268143
  -1375199.663 9  -1063999.40248  21666024.855    21666026.0334   21666031.9214
       430.297         335.296
   1531756.894 9   1191250.67546  24202539.830    24202541.9604   24202549.1334
     -1307.755       -1019.030
  -4522318.769 9  -3506680.49548  21109565.487    21109567.3534   21109573.8074
      2896.863        2257.296
  -1234173.145 9   -957516.32048  20538631.904    20538634.0304   20538640.3014
       659.749         514.090
   1626836.262 9   1263486.79248  21163080.055    21163081.8494   21163088.8174
     -1383.723       -1078.226
  -2015157.448 9  -1543335.29647  23628614.097    23628615.4944   23628623.7034
       941.397         733.556
  -4927561.166 9  -3827978.46148  22406748.513    22406750.1194   22406757.4864
      3205.158        2497.526
 97  4 14 15 36 29.9990000  0  7 31  3 27 19 18 10  2               -0.000290830
  -1387851.292 9  -1073857.82248  21663617.212    21663618.5074   21663624.4104
       413.304         322.055
   1571147.153 9   1221944.34946  24210035.674    24210037.8634   24210044.9204
     -1317.857       -1026.901
  -4609187.689 9  -3574370.55948  21093034.786    21093036.6944   21093043.1914
      2894.703        2255.613
  -1253883.150 9   -972874.78248  20534881.241    20534883.3604   20534889.6304
       654.566         510.051
   1668527.269 9   1295973.24648  21171013.657    21171015.4204   21171022.3844
     -1395.433       -1087.350
  -2043197.967 9  -1565185.09947  23623278.253    23623279.6854   23623287.7994
       928.271         723.328
  -5023623.380 9  -3902832.11248  22388468.448    22388470.0524   22388477.4654
      3199.349        2492.999
 97  4 14 15 36 59.9990000  0  7 31  3 27 19 18 10  2               -0.000313548
  -1399932.482 9  -1083271.73748  21661318.453    21661319.5634   21661325.4774
       393.875         306.916
   1610893.583 9   1252915.58246  24217599.053    24217601.2514   24217608.1984
     -1330.371       -1036.653
  -4695938.528 9  -3641968.61248  21076526.693    21076528.5864   21076535.0174
      2890.373        2252.239
  -1273382.941 9   -988069.43848  20531170.555    20531172.7014   20531178.9514
       647.246         504.348
   1710616.944 9   1328770.35648  21179023.139    21179024.8384   21179031.8414
     -1408.615       -1097.622
  -2070793.171 9  -1586687.89147  23618027.031    23618028.5554   23618036.5224
       912.956         711.394
  -5119466.779 9  -3977515.26248  22370230.019    22370231.6084   22370239.0154
      3191.995        2487.269
 97  4 14 15 37 29.9990000  0  7 31  3 27 19 18 10  2               -0.000336277
  -1411423.368 9  -1092225.67848  21659131.765    21659132.9334   21659138.8794
       373.222         290.822
   1651027.471 9   1284188.72246  24225236.324    24225238.6174   24225245.4494
     -1343.920       -1047.210
  -4782548.381 9  -3709456.80848  21060045.357    21060047.3354   21060053.6664
      2884.642        2247.773
  -1292661.596 9  -1003091.77948  20527501.933    20527504.1004   20527510.3264
       639.127         498.021
   1753097.353 9   1361871.93048  21187106.925    21187108.6144   21187115.5974
     -1422.354       -1108.328
  -2097910.410 9  -1607818.23647  23612866.649    23612868.2884   23612876.2424
       895.837         698.055
  -5215084.269 9  -4052022.38148  22352034.579    22352036.1674   22352043.6404
      3183.655        2480.770
 97  4 14 15 37 59.9990000  0  7 31  3 27 19 18 10  2               -0.000359029
  -1422336.858 9  -1100729.70448  21657054.767    21657056.1764   21657062.1874
       354.186         275.989
   1691513.751 9   1315736.42846  24232940.610    24232942.7304   24232949.5504
     -1355.038       -1055.874
  -4869031.285 9  -3776846.08148  21043588.294    21043590.2574   21043596.4954
      2880.995        2244.931
  -1311741.606 9  -1017959.33648  20523871.094    20523873.2994   20523879.5024
       632.819         493.106
   1795942.712 9   1395257.88748  21195260.080    21195261.9024   21195268.8384
     -1433.889       -1117.316
  -2124557.549 9  -1628582.27147  23607795.951    23607797.5344   23607805.5254
       880.682         686.246
  -5310494.849 9  -4126368.27748  22333878.512    22333880.1494   22333887.6454
      3176.918        2475.521
 97  4 14 15 38 29.9990000  0  7 31  3 27 19 18 10  2               -0.000381781
  -1432634.010 9  -1108753.46048  21655095.025    21655096.6924   21655102.7194
       333.646         259.984
   1732370.198 9   1347572.62046  24240715.141    24240717.6334   24240724.2664
     -1367.393       -1065.501
  -4955374.537 9  -3844126.53348  21027157.793    21027159.7074   21027165.8764
      2876.627        2241.528
  -1330596.141 9  -1032651.18948  20520283.216    20520285.3994   20520291.5644
       625.513         487.413
   1839163.465 9   1428936.35548  21203484.944    21203486.6404   21203493.5154
     -1446.151       -1126.871
  -2150711.048 9  -1648961.65847  23602819.218    23602820.6764   23602828.7104
       864.202         673.404
  -5405661.060 9  -4200523.74948  22315768.977    22315770.6074   22315778.1124
      3168.895        2469.269
 97  4 14 15 38 59.9990000  0  7 31  3 27 19 18 10  2               -0.000404547
  -1442351.183 9  -1116325.29048  21653245.892    21653247.5464   21653253.5534
       312.671         243.640
   1773563.758 9   1379671.42146  24248554.112    24248556.5754   24248563.3164
     -1380.474       -1075.694
  -5041623.681 9  -3911333.66148  21010745.153    21010747.0274   21010753.1864
      2871.676        2237.670
  -1349269.695 9  -1047202.02548  20516729.729    20516731.9494   20516738.1214
       617.773         481.382
   1882704.559 9   1462864.44148  21211770.597    21211772.3044   21211779.1594
     -1458.184       -1136.247
  -2176401.775 9  -1668980.45247  23597930.824    23597931.9614   23597939.9434
       847.041         660.032
  -5500628.150 9  -4274524.05948  22297697.332    22297698.9604   22297706.5414
      3160.592        2462.799
 97  4 14 15 39 29.9990000  0  7 31  3 27 19 18 10  2               -0.000427299
  -1451421.826 9  -1123393.32948  21651519.383    21651521.4494   21651527.4544
       291.861         227.424
   1815153.869 9   1412079.34846  24256468.122    24256470.7764   24256477.1494
     -1392.129       -1084.776
  -5127708.146 9  -3978412.46448  20994363.827    20994365.7044   20994371.8214
      2867.072        2234.082
  -1367687.603 9  -1061553.65448  20513225.035    20513227.1404   20513233.2964
       609.844         475.203
   1926627.680 9   1497090.21248  21220128.916    21220130.6624   21220137.5174
     -1470.389       -1145.758
  -2201574.219 9  -1688595.37947  23593140.735    23593141.8834   23593149.8604
       831.016         647.545
  -5595324.086 9  -4348313.08148  22279677.401    22279678.9774   22279686.5214
      3152.302        2456.339
 97  4 14 15 39 59.9990000  0  7 31  3 27 19 18 10  2               -0.000450057
  -1459862.211 9  -1129970.25948  21649913.060    21649915.2964   21649921.3344
       270.422         210.718
   1857098.045 9   1444763.06246  24264450.065    24264452.4134   24264459.2364
     -1404.533       -1094.441
  -5213648.182 9  -4045378.72648  20978010.043    20978011.8784   20978017.9984
      2861.843        2230.008
  -1385848.519 9  -1075705.02948  20509769.126    20509771.2884   20509777.4374
       600.567         467.974
   1970934.275 9   1531614.79248  21228560.224    21228561.9734   21228568.8614
     -1483.710       -1156.138
  -2226257.273 9  -1707828.96247  23588443.431    23588444.9014   23588452.8724
       814.271         634.497
  -5689759.627 9  -4421899.19948  22261706.922    22261708.5074   22261715.9914
      3143.105        2449.173
 97  4 14 15 40 29.9990000  0  7 31  3 27 19 18 10  2               -0.000472831
  -1467687.881 9  -1136068.19048  21648424.101    21648426.1124   21648432.1814
       250.777         195.411
   1899386.798 9   1477715.30045  24272497.402    24272499.8024   24272506.4344
     -1415.468       -1102.962
  -5299448.764 9  -4112236.31448  20961682.702    20961684.5844   20961690.7184
      2857.505        2226.627
  -1403758.199 9  -1089660.63348  20506361.089    20506363.2304   20506369.3594
       592.878         461.983
   2015620.187 9   1566434.94748  21237063.712    21237065.4654   21237072.3914
     -1495.989       -1165.706
  -2250463.223 9  -1726690.77947  23583837.320    23583838.6564   23583846.6164
       798.785         622.430
  -5783946.923 9  -4495291.87348  22243783.582    22243785.2844   22243792.7524
      3135.613        2443.335
 97  4 14 15 40 59.9990000  0  7 31  3 27 19 18 10  2               -0.000495622
  -1474903.707 9  -1141690.92448  21647050.774    21647052.9954   21647059.0444
       228.953         178.405
   1942022.667 9   1510938.07846  24280610.996    24280613.1814   24280619.6784
     -1428.080       -1112.790
  -5385088.776 9  -4178968.79748  20945385.956    20945387.8494   20945393.9624
      2850.601        2221.247
  -1421414.748 9  -1103418.99848  20503001.233    20503003.3464   20503009.4554
       583.033         454.311
   2060698.442 9   1601560.81948  21245641.701    21245643.5894   21245650.5494
     -1510.461       -1176.983
  -2274181.218 9  -1745172.37647  23579324.000    23579325.2974   23579333.1994
       781.205         608.731
  -5877894.050 9  -4568497.41148  22225906.021    22225907.7684   22225915.1484
      3126.249        2436.038
 97  4 14 15 41 29.9990000  0  7 31  3 27 19 18 10  2               -0.000518406
  -1481461.517 9  -1146800.91148  21645802.918    21645805.1204   21645811.1534
       209.106         162.940
   1985036.617 9   1544455.29946  24288796.350    24288798.4084   24288805.5784
     -1438.681       -1121.050
  -5470516.589 9  -4245535.92848  20929129.572    20929131.4794   20929137.6184
      2845.323        2217.135
  -1438770.748 9  -1116943.16348  20499698.459    20499700.6264   20499706.7354
       575.029         448.075
   2106221.687 9   1637033.43548  21254304.546    21254306.4034   21254313.4184
     -1523.651       -1187.261
  -2297368.794 9  -1763240.65447  23574911.356    23574912.8654   23574920.7364
       765.206         596.264
  -5971554.479 9  -4641479.54448  22208083.071    22208084.8134   22208092.0764
      3118.532        2430.025
 97  4 14 15 41 59.9990000  0  7 31  3 27 19 18 10  2               -0.000541202
  -1487430.883 9  -1151452.37848  21644667.430    21644669.2074   21644675.1944
       187.614         146.193
   2028384.255 9   1578232.79345  24297044.842    24297047.3564   24297053.3364
     -1452.379       -1131.724
  -5555781.435 9  -4311976.06248  20912904.262    20912906.1034   20912912.3024
      2837.820        2211.288
  -1455896.672 9  -1130288.04848  20496439.556    20496441.7034   20496447.8154
       565.560         440.696
   2152135.613 9   1672810.48248  21263041.516    21263043.5694   21263050.6244
     -1538.251       -1198.637
  -2320059.754 9  -1780921.95847  23570593.433    23570595.0024   23570602.8074
       746.563         581.737
  -6064982.810 9  -4714280.81848  22190304.303    22190305.9964   22190313.1944
      3108.878        2422.502
 97  4 14 15 42 29.9990000  0  7 31  3 27 19 18 10  2               -0.000563969
  -1492759.143 9  -1155604.27048  21643653.796    21643655.2954   21643661.2524
       167.124         130.226
   2072135.512 9   1612324.58346  24305370.622    24305372.9034   24305379.5744
     -1464.878       -1141.463
  -5640823.704 9  -4378242.76548  20896721.257    20896723.1244   20896729.2994
      2831.202        2206.131
  -1472748.748 9  -1143419.54948  20493232.712    20493234.8574   20493240.9784
       557.355         434.303
   2198477.125 9   1708920.71048  21271860.192    21271862.1244   21271869.1744
     -1551.668       -1209.092
  -2342202.468 9  -1798176.05847  23566379.853    23566381.3984   23566389.2494
       729.230         568.231
  -6158125.077 9  -4786859.18348  22172579.964    22172581.6164   22172588.8164
      3100.098        2415.661
 97  4 14 15 42 59.9990000  0  7 31  3 27 19 18 10  2               -0.000586716
  -1497461.115 9  -1159268.15048  21642758.843    21642760.5444   21642766.4594
       145.702         113.534
   2116276.183 9   1646719.86446  24313770.166    24313772.5604   24313779.3184
     -1478.305       -1151.926
  -5725661.101 9  -4444349.82848  20880577.266    20880579.1354   20880585.2434
      2824.079        2200.581
  -1489346.542 9  -1156352.91348  20490074.340    20490076.4034   20490082.5224
       548.420         427.340
   2245228.146 9   1745350.02948  21280756.677    21280758.6034   21280765.6224
     -1565.731       -1220.050
  -2363821.173 9  -1815021.85247  23562266.192    23562267.5254   23562275.4234
       711.413         554.348
  -6250992.544 9  -4859223.43048  22154907.867    22154909.5034   22154916.7004
      3090.202        2407.950
 97  4 14 15 43 29.9990000  0  7 31  3 27 19 18 10  2               -0.000609442
  -1501548.133 9  -1162452.85048  21641980.810    21641982.8604   21641988.7054
       127.066          99.012
   2160801.336 8   1681414.79246  24322243.198    24322245.3054   24322252.1184
     -1489.781       -1160.868
  -5810306.803 9  -4510307.52048  20864469.726    20864471.6064   20864477.6854
      2819.212        2196.789
  -1505686.200 9  -1169085.13048  20486964.894    20486967.0784   20486973.2244
       541.217         421.728
   2292388.094 9   1782097.99448  21289731.037    21289732.9404   21289739.8814
     -1577.986       -1229.599
  -2384920.774 9  -1831463.14447  23558250.923    23558252.4574   23558260.3154
       695.456         541.914
  -6343570.412 9  -4931362.00948  22137290.876    22137292.4964   22137299.7984
      3081.907        2401.486
 97  4 14 15 43 59.9990000  0  7 31  3 27 19 18 10  2               -0.000632153
  -1505049.358 9  -1165181.08648  21641315.013    21641316.6424   21641322.4104
       106.854          83.263
   2205703.281 9   1716403.22146  24330787.562    24330789.9794   24330797.1874
     -1502.925       -1171.110
  -5894788.230 9  -4576137.20048  20848393.404    20848395.3184   20848401.3994
      2813.582        2192.401
  -1521779.367 9  -1181625.27248  20483902.602    20483904.6684   20483910.8564
       532.198         414.700
   2339940.368 9   1819151.67448  21298780.049    21298781.9014   21298788.7884
     -1591.448       -1240.089
  -2405519.584 9  -1847514.19547  23554331.326    23554332.6694   23554340.5574
       678.691         528.850
  -6435875.553 9  -5003288.07148  22119725.787    22119727.4144   22119734.7694
      3072.545        2394.191
 97  4 14 15 44 29.9990000  0  7 31  3 27 19 18 10  2               -0.000654863
  -1507962.039 9  -1167450.71748  21640761.278    21640762.3864   21640768.0834
        87.342          68.059
   2250962.406 8   1751670.07345  24339400.282    24339402.5604   24339409.6564
     -1514.390       -1180.044
  -5979124.990 9  -4641854.15648  20832344.627    20832346.5434   20832352.6344
      2808.842        2188.708
  -1537613.215 9  -1193963.35148  20480889.534    20480891.6274   20480897.8104
       523.456         407.888
   2387881.032 9   1856507.98848  21307902.963    21307904.7574   21307911.6084
     -1604.531       -1250.284
  -2425643.166 9  -1863194.95547  23550502.357    23550503.4074   23550511.2584
       662.757         516.434
  -6527918.792 9  -5075010.06048  22102210.510    22102212.1204   22102219.5234
      3063.609        2387.228
 97  4 14 15 44 59.9990000  0  7 31  3 27 19 18 10  2               -0.000677571
  -1510281.960 9  -1169258.45548  21640319.692    21640320.9584   21640326.6294
        67.516          52.610
   2296575.279 9   1787212.58346  24348079.836    24348082.2404   24348089.1484
     -1526.225       -1189.266
  -6063305.842 9  -4707449.62248  20816325.508    20816327.4744   20816333.5804
      2803.411        2184.476
  -1553170.210 9  -1206085.69548  20477929.074    20477931.2494   20477937.4654
       513.937         400.470
   2436219.796 9   1894174.51948  21317101.541    21317103.3564   21317110.2024
     -1617.801       -1260.624
  -2445271.882 9  -1878490.09847  23546767.204    23546768.2444   23546776.0044
       645.814         503.232
  -6619679.706 9  -5146512.05248  22084748.943    22084750.5874   22084758.0024
      3053.882        2379.648
 97  4 14 15 45 29.9990000  0  7 31  3 27 19 18 10  2               -0.000700282
  -1512025.729 9  -1170617.24648  21639987.762    21639989.1214   21639994.8194
        48.024          37.421
   2342529.142 8   1823020.72246  24356825.106    24356827.3364   24356834.5944
     -1538.095       -1198.515
  -6147335.182 9  -4772927.02648  20800335.261    20800337.2244   20800343.3894
      2797.875        2180.162
  -1568453.934 9  -1217995.10348  20475020.614    20475022.8574   20475029.1324
       504.461         393.086
   2484939.510 9   1932137.89448  21326372.621    21326374.4774   21326381.3304
     -1630.615       -1270.609
  -2464405.228 9  -1893399.23547  23543126.210    23543127.2964   23543135.1894
       629.197         490.283
  -6711165.750 9  -5217799.85948  22067339.731    22067341.3854   22067348.8274
      3044.685        2372.482
 97  4 14 15 45 59.9990000  0  7 31  3 27 19 18 10  2               -0.000722997
  -1513183.266 9  -1171519.23148  21639767.327    21639768.8284   21639774.5024
        26.703          20.808
   2388837.152 9   1859104.80245  24365637.435    24365639.1244   24365646.5564
     -1551.333       -1208.831
  -6231201.175 9  -4838277.14748  20784376.063    20784378.0474   20784384.2894
      2790.718        2174.585
  -1583459.697 9  -1229687.91748  20472165.164    20472167.3704   20472173.6984
       493.670         384.678
   2534033.471 9   1970392.88648  21335714.925    21335716.8284   21335723.6384
     -1644.626       -1281.527
  -2483047.823 9  -1907925.98647  23539578.817    23539579.7684   23539587.7694
       611.346         476.374
  -6802380.560 9  -5288876.31548  22049982.153    22049983.7684   22049991.2044
      3034.021        2364.172
 97  4 14 15 46 29.9990000  0  7 31  3 27 19 18 10  2               -0.000745692
  -1513712.670 9  -1171931.77048  21639666.559    21639668.1014   21639673.7954
         7.808           6.084
   2435526.866 8   1895486.46746  24374522.508    24374524.3054   24374531.3924
     -1562.147       -1217.257
  -6314847.825 9  -4903456.35548  20768458.556    20768460.6014   20768466.9104
      2784.901        2170.053
  -1598158.586 9  -1241141.61348  20469368.059    20469370.2544   20469376.6194
       485.624         378.408
   2583540.226 9   2008969.53548  21345135.755    21345137.6534   21345144.4604
     -1656.638       -1290.887
  -2501160.880 9  -1922040.09447  23536131.661    23536132.9754   23536140.9604
       595.359         463.916
  -6893271.769 9  -5359700.61148  22032686.132    22032687.7594   22032695.1764
      3024.689        2356.901
 97  4 14 15 46 59.9990000  0  7 31  3 27 19 18 10  2               -0.000768376
  -1513648.903 9  -1171882.09248  21639678.643    21639680.2274   21639685.9644
       -12.810          -9.982
   2482578.791 8   1932150.12045  24383476.208    24383477.6314   24383485.3994
     -1575.286       -1227.495
  -6398284.355 9  -4968471.83648  20752581.207    20752583.1494   20752589.4934
      2777.057        2163.941
  -1612596.988 9  -1252392.32948  20466620.487    20466622.7324   20466629.1234
       476.334         371.169
   2633434.005 9   2047847.75948  21354630.311    21354632.1534   21354638.9844
     -1670.212       -1301.464
  -2518763.089 9  -1935756.14747  23532782.134    23532783.4084   23532791.4144
       577.505         450.004
  -6983861.436 9  -5430289.94148  22015447.559    22015449.0944   22015456.5234
      3014.297        2348.803
 97  4 14 15 47 29.9990000  0  7 31  3 27 19 18 10  2               -0.000791033
  -1512963.119 9  -1171347.73148  21639808.941    21639810.7304   21639816.5044
       -33.586         -26.171
   2530025.541 8   1969121.76245  24392505.303    24392506.7894   24392513.2414
     -1588.168       -1237.534
  -6481489.861 9  -5033307.29948  20736747.815    20736749.6884   20736756.0254
      2769.496        2158.049
  -1626759.035 9  -1263427.70748  20463925.708    20463927.8314   20463934.2094
       467.200         364.052
   2683732.222 9   2087041.13348  21364201.741    21364203.6064   21364210.4374
     -1683.415       -1311.752
  -2535841.106 9  -1949063.72247  23529532.396    23529533.5814   23529541.5074
       560.565         436.804
  -7074156.756 9  -5500649.90748  21998264.853    21998266.4834   21998273.8544
      3004.871        2341.458
 97  4 14 15 47 59.9990000  0  7 31  3 27 19 18 10  2               -0.000813668
  -1511643.343 9  -1170319.35348  21640060.147    21640061.9134   21640067.7204
       -53.902         -42.002
   2577851.249 8   2006388.43346  24401605.836    24401607.4464   24401614.8744
     -1599.505       -1246.368
  -6564463.692 9  -5097962.23048  20720958.299    20720960.2804   20720966.6424
      2762.711        2152.762
  -1640641.900 9  -1274245.54248  20461283.820    20461286.0264   20461292.4214
       459.048         357.700
   2734427.433 9   2126543.85148  21373848.807    21373850.6554   21373857.4774
     -1695.676       -1321.306
  -2552404.374 9  -1961970.21847  23526380.681    23526381.7864   23526389.6614
       544.388         424.198
  -7164166.834 9  -5570787.60648  21981136.552    21981138.1154   21981145.4834
      2996.561        2334.983
 97  4 14 15 48 29.9990000  0  7 31  3 27 19 18 10  2               -0.000836351
  -1509692.751 9  -1168799.42548  21640431.317    21640433.1464   21640438.9794
       -75.541         -58.863
   2626032.439 9   2043932.16645  24410774.819    24410776.3774   24410783.4904
     -1611.997       -1256.101
  -6647215.128 9  -5162443.87248  20705211.206    20705213.2144   20705219.5594
      2754.772        2146.575
  -1654263.350 9  -1284859.67848  20458691.727    20458693.9624   20458700.3544
       449.629         350.360
   2785503.200 9   2166343.10548  21383568.231    21383570.1274   21383576.9504
     -1708.668       -1331.430
  -2568466.635 9  -1974486.29647  23523324.206    23523325.3084   23523333.1704
       527.008         410.656
  -7253916.061 9  -5640722.04848  21964057.840    21964059.3874   21964066.7194
      2987.415        2327.856
 97  4 14 15 48 59.9990000  0  7 31  3 27 19 18 10  2               -0.000858937
  -1507056.484 9  -1166745.20448  21640932.712    21640934.8144   21640940.7464
       -99.627         -77.631
   2674615.019 8   2081788.77645  24420019.461    24420021.0744   24420027.7074
     -1626.242       -1267.202
  -6729710.906 9  -5226726.28948  20689512.724    20689514.7684   20689521.1534
      2745.564        2139.401
  -1667570.994 9  -1295229.28548  20456159.537    20456161.6434   20456167.9994
       437.921         341.237
   2836985.646 9   2206459.25748  21393365.133    21393366.9704   21393373.8194
     -1722.892       -1342.513
  -2583982.095 9  -1986576.29547  23520371.712    23520372.8904   23520380.6724
       508.008         395.850
  -7343373.626 9  -5710429.21348  21947034.695    21947036.1534   21947043.4664
      2976.914        2319.673
 97  4 14 15 49 29.9990000  0  7 31  3 27 19 18 10  2               -0.000881453
  -1503715.313 9  -1164141.71448  21641568.706    21641570.6424   21641576.5834
      -120.578         -93.957
   2723603.473 9   2119961.53946  24429341.573    24429343.5324   24429350.4814
     -1637.004       -1275.588
  -6811948.697 9  -5290807.68748  20673863.399    20673865.4264   20673871.7934
      2739.415        2134.609
  -1680529.378 9  -1305326.74848  20453693.614    20453695.7664   20453702.0824
       428.508         333.902
   2888885.477 9   2246900.63148  21403241.287    21403243.2184   21403250.0724
     -1734.651       -1351.676
  -2598948.172 9  -1998238.21547  23517523.660    23517524.9624   23517532.8214
       492.321         383.627
  -7432520.860 9  -5779894.58248  21930070.576    21930072.0034   21930079.3114
      2968.450        2313.078
 97  4 14 15 49 59.9990000  0  8 31  7  3 27 19 18 10  2            -0.000903960
  -1499765.290 9  -1161063.78848  21642320.462    21642322.3024   21642328.2624
      -143.475        -111.799
   -723816.13418   -200341.28855  24739418.234           0.0005          0.0005
      4738.540        3692.369
   2772907.510 8   2158380.24345  24438723.942    24438725.8374   24438732.6034
     -1650.746       -1286.296
  -6894017.224 9  -5354757.18748  20658246.268    20658248.2964   20658254.6604
      2731.099        2128.129
  -1693218.897 9  -1315214.70148  20451278.899    20451281.0934   20451287.3734
       416.917         324.870
   2941132.633 9   2287612.65548  21413183.639    21413185.5244   21413192.4204
     -1749.358       -1363.136
  -2613454.419 9  -2009541.80947  23514763.694    23514764.5414   23514772.4344
       474.107         369.434
  -7521410.692 9  -5849159.36648  21913155.220    21913156.7654   21913164.0944
      2956.806        2304.005
 97  4 14 15 50 29.9990000  0  8 31  7  3 27 19 18 10  2            -0.000926439
  -1495187.360 9  -1157496.58648  21643191.785    21643193.4744   21643199.4674
      -161.668        -125.975
   -866041.330 8   -311166.07755  24712352.651           0.0004   24712362.4295
      4742.863        3695.737
   2822571.237 9   2197079.28246  24448174.608    24448176.6584   24448183.0714
     -1660.124       -1293.603
  -6975893.650 9  -5418557.00548  20642665.730    20642667.7064   20642674.0754
      2727.392        2125.240
  -1705611.847 9  -1324871.56648  20448920.621    20448922.8314   20448929.0754
       409.315         318.947
   2993777.069 9   2328634.24348  21423201.514    21423203.4774   21423210.3794
     -1760.218       -1371.598
  -2627465.286 9  -2020459.39447  23512097.190    23512098.3734   23512106.3734
       459.958         358.409
  -7609990.621 9  -5918182.67448  21896298.983    21896300.5904   21896307.9004
      2948.473        2297.511
 97  4 14 15 50 59.9990000  0  8 31  7  3 27 19 18 10  2            -0.000948897
  -1490007.521 9  -1153460.36748  21644177.585    21644179.1524   21644185.1874
      -180.948        -140.998
  -1008303.746 8   -422019.88445  24685280.639    24685280.3025   24685291.0974
      4744.057        3696.668
   2872577.911 8   2236045.40846  24457690.150    24457692.5684   24457699.7634
     -1671.079       -1302.139
  -7057596.215 9  -5482221.34448  20627118.122    20627120.2174   20627126.5824
      2721.934        2120.988
  -1717712.719 9  -1334300.83548  20446617.866    20446620.1094   20446626.3394
       400.062         311.737
   3046815.289 9   2369962.68048  21433294.465    21433296.3564   21433303.2604
     -1773.121       -1381.653
  -2640989.163 9  -2030997.53147  23509523.866    23509524.9364   23509532.9054
       444.297         346.205
  -7698252.407 9  -5986958.06948  21879503.360    21879504.9254   21879512.2074
      2938.254        2289.549
 97  4 14 15 51 29.9990000  0  8 31  7  3 27 19 18 10  2            -0.000971359
  -1484252.975 9  -1148976.31748  21645272.973    21645274.2524   21645280.2984
      -202.566        -157.844
  -1150601.496 8   -532901.26455  24658202.058    24658203.1024   24658212.9885
      4742.634        3695.559
   2922909.469 9   2275264.77545  24467267.902    24467270.4274   24467277.1734
     -1684.132       -1312.311
  -7139124.724 9  -5545750.05448  20611603.832    20611605.8654   20611612.2074
      2713.386        2114.327
  -1729539.593 9  -1343516.59448  20444367.390    20444369.5794   20444375.7744
       388.715         302.895
   3100247.237 9   2411597.91648  21443462.275    21443464.1544   21443471.1094
     -1788.725       -1393.812
  -2654042.554 9  -2041169.02947  23507039.744    23507041.0204   23507048.9354
       426.096         332.023
  -7786206.255 9  -6055493.51848  21862766.351    21862767.8524   21862775.0894
      2925.566        2279.662
 97  4 14 15 51 59.9990000  0  8 31  7  3 27 19 18 10  2            -0.000993813
  -1477909.586 9  -1144033.43248  21646480.030    21646481.4354   21646487.4794
      -222.015        -172.999
  -1292919.747 8   -643798.54445  24631119.494    24631119.9345   24631130.5864
      4743.496        3696.231
   2973576.528 9   2314745.67146  24476910.082    24476912.2434   24476918.7554
     -1695.297       -1321.011
  -7220446.356 9  -5609117.56148  20596128.885    20596130.8704   20596137.2194
      2706.385        2108.871
  -1741094.019 9  -1352520.06248  20442168.628    20442170.8604   20442177.0614
       379.976         296.085
   3154079.777 9   2453545.29948  21453706.385    21453708.1804   21453715.1684
     -1801.733       -1403.948
  -2666606.674 9  -2050959.29047  23504648.853    23504650.1544   23504658.0914
       409.802         319.326
  -7873841.976 9  -6123781.07348  21846089.876    21846091.3384   21846098.5804
      2915.321        2271.679
 97  4 14 15 52 29.9990000  0  8 31  7  3 27 19 18 10  2            -0.001016249
  -1470967.735 9  -1138624.21648  21647801.012    21647802.4644   21647808.4894
      -242.446        -188.919
  -1435242.694 8   -754699.48845  24604036.065    24604037.0324   24604047.2754
      4743.067        3695.896
   3024580.029 9   2354488.53046  24486615.418    24486617.7404   24486624.9514
     -1706.574       -1329.798
  -7301537.247 9  -5672305.26648  20580697.745    20580699.7394   20580706.1474
      2698.031        2102.362
  -1752373.046 9  -1361308.92848  20440022.228    20440024.5514   20440030.7914
       370.178         288.450
   3208311.683 9   2495803.87848  21464026.520    21464028.2224   21464035.2104
     -1815.039       -1414.316
  -2678666.112 9  -2060356.29347  23502353.965    23502355.3244   23502363.4624
       392.480         305.829
  -7961165.595 9  -6191825.43148  21829472.649    21829474.1934   21829481.4414
      2904.745        2263.438
 97  4 14 15 52 59.9980000  0  8 31  7  3 27 19 18 10  2            -0.001038674
  -1463431.577 9  -1132751.89748  21649235.265    21649236.5744   21649242.5554
      -259.900        -202.519
  -1577565.965 8   -865600.70345  24576952.826    24576953.9184   24576964.3034
      4745.835        3698.053
   3075905.604 9   2394482.50746  24496382.664    24496384.8344   24496391.7684
     -1715.038       -1336.393
  -7382387.638 9  -5735305.56848  20565312.347    20565314.3734   20565320.8254
      2692.317        2097.909
  -1763370.412 9  -1369878.31948  20437929.555    20437931.8634   20437938.1154
       363.073         282.914
   3262912.251 9   2538349.72948  21474416.790    21474418.4354   21474425.4404
     -1824.927       -1422.021
  -2690220.181 9  -2069359.49447  23500155.696    23500156.7474   23500164.8834
       378.068         294.598
  -8048195.368 9  -6259640.82048  21812911.433    21812912.9434   21812920.2674
      2897.719        2257.963
 97  4 14 15 53 29.9980000  0  8 31  7  3 27 19 18 10  2            -0.001061093
  -1455292.663 9  -1126409.90048  21650784.216    21650785.3854   21650791.3394
      -280.510        -218.579
  -1719908.332 8   -976516.81145  24549865.864    24549867.2984   24549877.3264
      4745.957        3698.148
   3127564.620 9   2434736.22446  24506212.995    24506215.2524   24506222.4254
     -1726.530       -1345.348
  -7462988.596 9  -5798111.51248  20549974.508    20549976.4894   20549982.9424
      2683.532        2091.064
  -1774064.725 9  -1378211.56648  20435894.543    20435896.8094   20435903.0904
       352.188         274.432
   3317887.933 9   2581187.87548  21484878.383    21484880.0214   21484887.0264
     -1837.731       -1431.998
  -2701262.869 9  -2077964.21747  23498054.505    23498055.4424   23498063.5764
       360.519         280.924
  -8134946.721 9  -6327239.26148  21796403.204    21796404.6904   21796412.0454
      2887.999        2250.389
 97  4 14 15 53 59.9980000  0  8 31  7  3 27 19 18 10  2            -0.001083518
  -1446572.479 9  -1119614.97448  21652443.662    21652444.7814   21652450.7114
      -300.226        -233.942
  -1862288.960 8  -1087462.68345  24522771.710    24522773.1734   24522783.1784
      4746.778        3698.788
   3179528.320 9   2475227.40046  24516101.447    24516103.7634   24516110.6764
     -1737.124       -1353.603
  -7543371.249 9  -5860747.34848  20534678.162    20534680.1654   20534686.5994
      2676.150        2085.312
  -1784467.428 9  -1386317.58548  20433915.041    20433917.2794   20433923.5484
       341.982         266.479
   3373204.016 9   2624291.27048  21495404.601    21495406.3724   21495413.3724
     -1849.413       -1441.101
  -2711820.529 9  -2086191.00547  23496045.316    23496046.4134   23496054.5964
       344.014         268.063
  -8221442.449 9  -6394638.51648  21779943.559    21779945.1044   21779952.4224
      2879.128        2243.476
 97  4 14 15 54 29.9980000  0  8 31  7  3 27 19 18 10  2            -0.001105910
  -1437225.028 9  -1112331.25648  21654222.336    21654223.5734   21654229.4994
      -322.787        -251.522
  -2004665.935 8  -1198405.74445  24495678.381    24495679.7444   24495689.7164
      4745.292        3697.630
   3231831.431 8   2515983.09446  24526054.746    24526056.6544   24526063.3714
     -1749.419       -1363.184
  -7623515.141 9  -5923197.13248  20519427.313    20519429.3174   20519435.7214
      2667.036        2078.210
  -1794526.674 9  -1394155.97148  20432000.954    20432003.0904   20432009.3524
       328.877         256.268
   3428895.812 9   2667687.42848  21506002.526    21506004.1764   21506011.1874
     -1862.998       -1451.687
  -2721856.186 9  -2094011.03247  23494135.717    23494136.7974   23494144.9694
       325.384         253.546
  -8307648.469 9  -6461812.01948  21763539.133    21763540.6534   21763547.9514
      2868.145        2234.918
 97  4 14 15 54 59.9980000  0  8 31  7  3 27 19 18 10  2            -0.001128282
  -1427256.424 9  -1104563.53048  21656119.080    21656120.5614   21656126.4654
      -343.155        -267.394
  -2147049.004 8  -1309353.50645  24468583.954    24468585.0904   24468595.0374
      4745.676        3697.929
   3284451.794 9   2556985.91446  24536068.050    24536069.9824   24536076.9604
     -1759.846       -1371.309
  -7703439.225 9  -5985475.64348  20504218.408    20504220.2884   20504226.6694
      2659.831        2072.595
  -1804248.478 9  -1401731.41848  20430150.930    20430153.1154   20430159.3484
       318.085         247.858
   3484938.326 9   2711356.87048  21516666.975    21516668.7434   21516675.7764
     -1874.612       -1460.737
  -2731399.433 9  -2101447.37147  23492319.525    23492320.7634   23492328.9354
       309.658         241.292
  -8393579.871 9  -6528771.54348  21747186.907    21747188.4474   21747195.7474
      2859.301        2228.027
 97  4 14 15 55 29.9980000  0  8 31  7  3 27 19 18 10  2            -0.001150639
  -1416673.948 9  -1096317.46248  21658132.946    21658134.3404   21658140.2464
      -363.827        -283.502
  -2289444.335 8  -1420310.83745  24441486.854    24441488.1254   24441498.2754
      4745.939        3698.134
   3337384.876 9   2598232.43946  24546140.762    24546142.8494   24546149.8994
     -1770.500       -1379.610
  -7783144.837 9  -6047583.91048  20489051.000    20489052.8194   20489059.1864
      2652.460        2066.852
  -1813656.661 9  -1409062.48248  20428360.650    20428362.8424   20428369.0244
       308.027         240.021
   3541334.622 9   2755301.99148  21527398.851    21527400.6344   21527407.7024
     -1886.510       -1470.008
  -2740474.325 9  -2108518.76047  23490592.647    23490593.9094   23490602.0564
       293.920         229.029
  -8479239.795 9  -6595519.51448  21730886.429    21730887.9014   21730895.2134
      2849.790        2220.615
 97  4 14 15 55 59.9980000  0  8 31  7  3 27 19 18 10  2            -0.001172942
  -1405434.534 9  -1087559.49548  21660271.783    21660273.1724   21660279.0774
      -386.576        -301.228
  -2431819.045 8  -1531252.11045  24414393.617    24414394.9454   24414405.1824
      4744.432        3696.960
   3390676.285 9   2639758.21546  24556281.871    24556283.9314   24556290.9544
     -1783.648       -1389.856
  -7862591.539 9  -6109490.42948  20473932.855    20473934.6484   20473941.0274
      2642.683        2059.234
  -1822743.630 9  -1416143.25248  20426631.399    20426633.6824   20426639.8204
       296.541         231.071
   3598121.118 9   2799551.16148  21538204.967    21538206.8074   21538213.8834
     -1900.524       -1480.928
  -2749037.913 9  -2115191.72647  23488962.895    23488964.3034   23488972.4684
       275.851         214.949
  -8564569.417 9  -6662010.11248  21714648.739    21714650.1984   21714657.5314
      2837.693        2211.189
 97  4 14 15 56 29.9980000  0  8 31  7  3 27 19 18 10  2            -0.001195226
  -1393592.486 9  -1078331.94448  21662524.889    21662526.6444   21662532.5914
      -403.859        -314.695
  -2574217.732 8  -1642212.04745  24387296.016    24387297.4254   24387307.5264
      4747.806        3699.589
   3444291.944 8   2681536.63046  24566484.517    24566486.5364   24566493.7294
     -1791.849       -1396.246
  -7941816.058 9  -6171223.82348  20458856.952    20458858.7364   20458865.1204
      2637.732        2055.376
  -1831561.539 9  -1423014.36948  20424953.466    20424955.7294   20424961.8064
       290.295         226.204
   3655256.385 9   2844072.09448  21549077.333    21549079.3014   21549086.4124
     -1909.435       -1487.871
  -2757138.098 9  -2121503.60047  23487421.320    23487422.9494   23487431.0724
       263.026         204.955
  -8649612.060 9  -6728277.09448  21698465.438    21698467.0554   21698474.4184
      2830.704        2205.743
 97  4 14 15 56 59.9980000  0  8 31  7  3 27 19 18 10  2            -0.001217494
  -1381155.505 9  -1068640.81048  21664891.734    21664893.3384   21664899.3104
      -423.872        -330.290
  -2716636.208 8  -1753187.45245  24360194.649    24360196.1804   24360206.0284
      4748.296        3699.971
   3498254.650 9   2723585.48246  24576753.103    24576755.3284   24576762.3214
     -1804.277       -1405.930
  -8020796.844 9  -6232767.29348  20443827.369    20443829.2064   20443835.5984
      2629.112        2048.659
  -1840106.868 9  -1429673.08848  20423327.511    20423329.6464   20423335.6934
       281.004         218.964
   3712752.425 9   2888874.15448  21560018.548    21560020.4744   21560027.6144
     -1922.178       -1497.801
  -2764762.995 9  -2127445.11647  23485970.126    23485971.9924   23485980.1284
       246.766         192.285
  -8734355.872 9  -6794311.21948  21682339.277    21682340.8604   21682348.1654
      2820.328        2197.658
 97  4 14 15 57 29.9980000  0  8 31  7  3 27 19 18 10  2            -0.001239735
  -1368126.864 9  -1058488.63848  21667370.925    21667372.6514   21667378.6294
      -444.984        -346.741
  -2859073.987 8  -1864177.89246  24333089.408    24333091.1404   24333100.8084
      4747.154        3699.081
   3552585.720 8   2765921.40546  24587092.154    24587094.2294   24587101.1534
     -1817.964       -1416.595
  -8099530.416 9  -6294118.12848  20428844.838    20428846.7414   20428853.1564
      2619.476        2041.150
  -1848383.311 9  -1436122.28248  20421752.484    20421754.6674   20421760.7684
       270.412         210.711
   3770624.617 9   2933969.32548  21571031.315    21571033.2514   21571040.3964
     -1936.165       -1508.700
  -2771901.219 9  -2133007.41247  23484612.146    23484613.6854   23484621.7624
       228.768         178.261
  -8818791.910 9  -6860105.51948  21666271.651    21666273.1984   21666280.4484
      2808.495        2188.438
 97  4 14 15 57 59.9980000  0  8 31  7  3 27 19 18 10  2            -0.001261957
  -1354519.855 9  -1047885.79248  21669960.333    21669961.9814   21669967.9164
      -463.475        -361.149
  -3001518.599 8  -1975173.66745  24305983.106    24305984.7514   24305994.4564
      4747.669        3699.482
   3607269.657 8   2808532.22546  24597498.245    24597500.1444   24597507.3184
     -1829.014       -1425.206
  -8178022.919 9  -6355281.11948  20413908.250    20413910.1294   20413916.5754
      2612.047        2035.361
  -1856374.861 9  -1442349.47848  20420231.712    20420233.9064   20420240.0414
       260.929         203.321
   3828863.777 9   2979350.43748  21582113.978    21582115.8314   21582123.0124
     -1947.756       -1517.732
  -2778546.351 9  -2138185.47947  23483347.739    23483349.2504   23483357.3184
       213.001         165.975
  -8902930.674 9  -6925668.17348  21650260.585    21650262.1104   21650269.3894
      2799.558        2181.474
 97  4 14 15 58 29.9980000  0  8 31  7  3 27 19 18 10  2            -0.001284170
  -1340339.962 9  -1036836.54648  21672658.741    21672660.3414   21672666.2674
      -482.343        -375.852
  -3143944.695 8  -2086155.00845  24278880.318    24278882.1234   24278891.7144
      4747.209        3699.124
   3662292.345 9   2851407.02846  24607968.798    24607970.7134   24607977.8424
     -1839.487       -1433.366
  -8256279.201 9  -6416260.03948  20399016.600    20399018.4714   20399024.9224
      2604.614        2029.569
  -1864060.462 9  -1448338.27248  20418769.101    20418771.3734   20418777.5574
       251.058         195.630
   3887464.406 9   3025013.21448  21593265.351    21593267.2084   21593274.4364
     -1959.335       -1526.755
  -2784710.078 9  -2142988.42947  23482175.003    23482176.3284   23482184.5204
       197.480         153.881
  -8986786.572 9  -6991010.41248  21634303.228    21634304.8334   21634312.1444
      2790.371        2174.315
 97  4 14 15 58 59.9980000  0  8 31  7  3 27 19 18 10  2            -0.001306383
  -1325601.511 9  -1025352.05348  21675463.544    21675465.0084   21675470.9334
      -501.277        -390.605
  -3286367.685 8  -2197133.92545  24251778.125    24251779.9114   24251789.6034
      4746.651        3698.689
   3717619.772 8   2894519.31246  24618497.367    24618499.2424   24618506.2864
     -1849.858       -1441.448
  -8334324.904 9  -6477074.87448  20384164.854    20384166.8644   20384173.3174
      2597.351        2023.910
  -1871456.125 9  -1454101.14248  20417361.754    20417364.0374   20417370.2664
       241.012         187.802
   3946402.329 9   3070938.82448  21604480.954    21604482.7694   21604490.0034
     -1970.911       -1535.775
  -2790418.061 9  -2147436.25647  23481088.561    23481090.1444   23481098.4424
       182.075         141.877
  -9070373.596 9  -7056143.14448  21618397.043    21618398.7284   21618406.0134
      2781.099        2167.090
 97  4 14 15 59 29.9980000  0  8 31  7  3 27 19 18 10  2            -0.001328575
  -1310277.081 9  -1013410.95648  21678379.952    21678381.1714   21678387.1394
      -520.593        -405.657
  -3428738.593 8  -2308072.27446  24224686.127    24224687.6214   24224697.3784
      4744.685        3697.157
   3773265.143 8   2937879.33345  24629086.400    24629088.1954   24629095.1384
     -1859.943       -1449.306
  -8412130.281 9  -6537702.43848  20369358.937    20369361.0194   20369367.4294
      2589.495        2017.788
  -1878528.113 9  -1459611.79548  20416015.978    20416018.2894   20416024.5534
       230.214         179.388
   4005701.312 9   3117145.78048  21615765.231    21615766.9784   21615774.2584
     -1982.444       -1544.762
  -2795638.268 9  -2151503.98247  23480095.210    23480096.7424   23480105.0514
       165.806         129.199
  -9153662.542 9  -7121043.59948  21602547.737    21602549.3834   21602556.6344
      2771.463        2159.582
 97  4 14 15 59 59.9980000  0  8 31  7  3 27 19 18 10  2            -0.001350761
  -1294385.039 9  -1001027.56248  21681404.013    21681405.3424   21681411.3164
      -540.052        -420.820
  -3571079.606 8  -2418987.33446  24197599.516    24197601.1304   24197610.7624
      4743.850        3696.506
   3829197.414 8   2981462.93946  24639729.942    24639731.8294   24639738.7564
     -1870.038       -1457.172
  -8489716.883 9  -6598159.52948  20354594.814    20354596.8174   20354603.1904
      2582.006        2011.953
  -1885289.214 9  -1464880.20048  20414729.463    20414731.7424   20414738.0014
       219.717         171.208
   4065323.683 9   3163604.72148  21627110.974    21627112.7584   21627120.0414
     -1993.310       -1553.229
  -2800393.178 9  -2155209.16147  23479190.611    23479191.9364   23479200.2524
       150.332         117.142
  -9236682.851 9  -7185734.73048  21586749.505    21586751.1464   21586758.3624
      2762.190        2152.356
 97  4 14 16  0 29.9980000  0  8 31  7  3 27 19 18 10  2            -0.001372916
  -1277875.633 9   -988163.10648  21684545.619    21684547.0444   21684552.9574
      -561.816        -437.779
  -3713385.772 8  -2529875.26846  24170519.703    24170521.1764   24170530.6324
      4742.113        3695.153
   3885445.072 8   3025292.26045  24650433.474    24650435.3524   24650442.2824
     -1881.153       -1465.833
  -8567055.816 9  -6658423.63548  20339877.761    20339879.7494   20339886.0714
      2572.613        2004.634
  -1891725.086 9  -1469895.18348  20413504.897    20413507.0624   20413513.3234
       208.128         162.178
   4125284.604 9   3210327.46948  21638521.101    21638522.9244   21638530.2784
     -2005.248       -1562.531
  -2804674.115 9  -2158544.99347  23478376.262    23478377.3714   23478385.6314
       133.728         104.204
  -9319396.283 9  -7250186.73448  21571009.737    21571011.3504   21571018.4904
      2750.763        2143.452
 97  4 14 16  0 59.9980000  0  8 31  7  3 27 19 18 10  2            -0.001395037
  -1260747.850 9   -974816.80148  21687804.919    21687806.4014   21687812.2804
      -581.676        -453.254
  -3855686.163 8  -2640758.65746  24143440.746    24143442.3334   24143451.7234
      4742.757        3695.655
   3941995.755 8   3069357.70145  24661194.503    24661196.6614   24661203.5314
     -1890.536       -1473.145
  -8644141.678 9  -6718490.54348  20325208.842    20325210.8074   20325217.1174
      2564.678        1998.450
  -1897843.150 9  -1474662.52248  20412340.769    20412342.8564   20412349.1244
       198.270         154.496
   4185569.546 9   3257302.69448  21649992.966    21649994.7694   21650002.1664
     -2015.409       -1570.448
  -2808480.669 9  -2161511.19547  23477652.224    23477653.0384   23477661.3164
       118.399          92.259
  -9401802.202 9  -7314399.12248  21555328.514    21555330.0434   21555337.1654
      2741.373        2136.135
 97  4 14 16  1 29.9980000  0  8 31  7  3 27 19 18 10  2            -0.001417136
  -1243014.503 9   -960998.62748  21691179.446    21691180.9434   21691186.8514
      -601.097        -468.387
  -3997989.325 8  -2751644.19546  24116361.456    24116362.9424   24116372.4174
      4744.001        3696.624
   3998833.134 8   3113646.56645  24672010.190    24672012.2514   24672019.3464
     -1898.897       -1479.660
  -8720974.419 9  -6778360.21148  20310588.010    20310590.0334   20310596.3474
      2557.182        1992.609
  -1903661.687 9  -1479196.46748  20411233.491    20411235.6504   20411241.9244
       189.207         147.434
   4246163.092 9   3304518.38948  21661523.576    21661525.3554   21661532.8034
     -2024.669       -1577.664
  -2811824.545 9  -2164116.86547  23477015.910    23477016.7924   23477025.0154
       104.159          81.163
  -9483917.495 9  -7378385.05248  21539702.487    21539704.0394   21539711.0844
      2732.477        2129.203
 97  4 14 16  1 59.9980000  0  8 31  7  3 27 19 18 10  2            -0.001439204
  -1224659.344 9   -946695.92448  21694672.310    21694673.8154   21694679.7374
      -621.993        -484.670
  -4140297.786 8  -2862533.88846  24089280.863    24089282.5294   24089291.9034
      4743.727        3696.411
   4055968.328 8   3158167.52445  24682882.614    24682884.7114   24682891.6384
     -1909.353       -1487.808
  -8797549.799 9  -6838029.34248  20296016.222    20296018.2374   20296024.5274
      2548.422        1985.783
  -1909174.953 9  -1483492.53348  20410184.239    20410186.5334   20410192.8194
       179.013         139.491
   4307076.815 9   3351983.57848  21673115.150    21673116.8974   21673124.3234
     -2035.674       -1586.239
  -2814710.241 9  -2166365.49146  23476466.719    23476467.6474   23476475.9264
        88.763          69.166
  -9565723.931 9  -7442130.31048  21524135.280    21524136.7804   21524143.8304
      2721.727        2120.826
 97  4 14 16  2 29.9980000  0  8 31  7  3 27 19 18 10  2            -0.001461214
  -1205725.561 9   -931942.34148  21698275.458    21698276.8144   21698282.7144
      -641.064        -499.530
  -4282630.842 9  -2973442.73846  24062195.717    24062197.4514   24062206.6894
      4743.939        3696.576
   4113368.478 8   3202894.90445  24693805.476    24693807.4744   24693814.6044
     -1918.309       -1494.786
  -8873897.997 9  -6897521.44448  20281487.710    20281489.6764   20281495.9514
      2540.476        1979.592
  -1914421.992 9  -1487581.15048  20409185.761    20409188.0614   20409194.3634
       169.824         132.330
   4368286.539 9   3399679.41847  21684763.023    21684764.7504   21684772.1214
     -2046.111       -1594.372
  -2817166.635 9  -2168279.61946  23475999.142    23476000.1834   23476008.5084
        73.909          57.591
  -9647238.388 9  -7505648.05448  21508623.559    21508625.1044   21508632.1104
      2711.754        2113.055
 97  4 14 16  2 59.9980000  0  8 31  7  3 27 19 18 10  2            -0.001483241
  -1186220.720 9   -916743.78248  21701987.102    21701988.5124   21701994.4144
      -659.228        -513.684
  -4424940.458 8  -3084333.31946  24035114.900    24035116.8734   24035126.1994
      4743.113        3695.932
   4171067.357 8   3247855.01245  24704785.328    24704787.1864   24704794.5084
     -1928.171       -1502.471
  -8949992.981 9  -6956816.24148  20267007.345    20267009.2914   20267015.5674
      2532.408        1973.305
  -1919375.909 9  -1491441.36148  20408242.999    20408245.3724   20408251.6604
       160.411         124.996
   4429844.078 9   3447646.28847  21696477.124    21696478.7984   21696486.1624
     -2057.752       -1603.443
  -2819154.834 9  -2169828.90746  23475620.433    23475621.9364   23475630.2684
        58.720          45.756
  -9728448.432 9  -7568928.58948  21493169.627    21493171.3524   21493178.3124
      2702.281        2105.673
 97  4 14 16  3 29.9980000  0  8 31  7  3 27 19 18 10  2            -0.001505274
  -1166191.113 9   -901136.30248  21705798.437    21705799.9994   21705805.8874
      -677.353        -527.808
  -4567232.496 8  -3195210.20646  24008037.601    24008039.6114   24008048.9504
      4741.894        3694.982
   4229048.666 8   3293035.27945  24715818.739    24715820.7134   24715827.6884
     -1938.460       -1510.488
  -9025860.475 9  -7015933.77048  20252570.094    20252572.1514   20252578.4764
      2524.398        1967.063
  -1924057.991 9  -1495089.75048  20407352.027    20407354.3944   20407360.6934
       150.341         117.149
   4491728.262 9   3495867.67447  21708253.177    21708254.9994   21708262.4114
     -2069.041       -1612.240
  -2820710.776 9  -2171041.37346  23475324.613    23475325.9214   23475334.0954
        43.793          34.124
  -9809387.782 9  -7631998.19748  21477767.364    21477769.1024   21477776.0234
      2692.560        2098.099
 97  4 14 16  3 59.9980000  0  7 31  7 27 19 18 10  2               -0.001527315
  -1145641.339 9   -885123.51448  21709708.938    21709710.5054   21709716.4224
      -693.076        -540.059
  -4709510.997 8  -3306076.54246  23980963.148    23980964.8834   23980974.3094
      4742.922        3695.783
  -9101511.270 9  -7074882.44648  20238174.295    20238176.2934   20238182.6094
      2518.510        1962.475
  -1928450.724 9  -1498512.67848  20406516.124    20406518.4984   20406524.7914
       142.086         110.716
   4553935.511 9   3544340.79747  21720090.851    21720092.7044   21720100.0794
     -2078.489       -1619.602
  -2821829.446 9  -2171913.10746  23475111.894    23475113.1154   23475121.2394
        30.485          23.755
  -9890058.031 9  -7694858.11948  21462416.391    21462418.0604   21462424.9164
      2685.153        2092.327
 97  4 14 16  4 29.9980000  0  7 31  7 27 19 18 10  2               -0.001549338
  -1124536.058 9   -868677.85048  21713725.149    21713726.7084   21713732.6584
      -714.357        -556.642
  -4851734.115 8  -3416899.72646  23953898.845    23953900.6084   23953910.0444
      4738.533        3692.363
  -9176896.602 9  -7133624.26648  20223829.006    20223830.9594   20223837.2254
      2506.870        1953.405
  -1932507.333 9  -1501673.68848  20405744.145    20405746.5384   20405752.7874
       128.074          99.798
   4616509.640 9   3593099.80947  21731998.522    21732000.2214   21732007.5734
     -2093.396       -1631.218
  -2822466.604 9  -2172409.64646  23474990.748    23474991.9104   23474999.9494
        11.802           9.196
  -9970430.875 9  -7757486.29448  21447121.974    21447123.6344   21447130.4464
      2672.949        2082.817
 97  4 14 16  4 59.9980000  0  7 31  7 27 19 18 10  2               -0.001571338
  -1102860.789 9   -851788.04148  21717849.636    21717851.3464   21717857.3424
      -732.280        -570.608
  -4993908.870 9  -3527685.21546  23926843.780    23926845.6814   23926855.0454
      4738.313        3692.192
  -9252008.349 9  -7192152.89548  20209535.849    20209537.6934   20209543.9064
      2499.209        1947.436
  -1936213.917 9  -1504561.95048  20405038.859    20405041.1964   20405047.4274
       117.512          91.568
   4679449.463 9   3642143.77447  21743975.676    21743977.3624   21743984.6824
     -2103.854       -1639.367
  -2822626.038 9  -2172533.91346  23474960.352    23474961.5984   23474969.6244
        -2.560          -1.995
 -10050524.016 9  -7819896.52048  21431880.773    21431882.3794   21431889.1844
      2664.961        2076.593
 97  4 14 16  5 29.9980000  0  7 31  7 27 19 18 10  2               -0.001593322
  -1080619.590 9   -834457.25148  21722082.100    21722083.6494   21722089.7574
      -751.900        -585.896
  -5136070.604 8  -3638460.57046  23899791.276    23899793.2564   23899802.5284
      4737.686        3691.703
  -9326881.309 9  -7250495.46348  20195287.989    20195289.8674   20195296.0434
      2491.159        1941.163
  -1939586.434 9  -1507189.90548  20404397.168    20404399.4424   20404405.7114
       106.153          82.717
   4742704.964 9   3691433.72147  21756012.900    21756014.5184   21756021.8684
     -2114.564       -1647.712
  -2822342.116 9  -2172312.72646  23475014.258    23475015.5874   23475023.8314
       -17.689         -13.784
 -10130353.325 9  -7882101.16348  21416689.744    21416691.3654   21416698.1474
      2655.626        2069.319
 97  4 14 16  5 59.9980000  0  7 31  7 27 19 18 10  2               -0.001615258
  -1057771.981 9   -816653.94148  21726429.976    21726431.4334   21726437.6324
      -770.602        -600.469
  -5278193.634 8  -3749205.76346  23872746.099    23872748.0874   23872757.4244
      4737.670        3691.691
  -9401499.651 9  -7308639.62548  20181088.619    20181090.4774   20181096.6534
      2483.918        1935.521
  -1942624.076 9  -1509556.91748  20403819.189    20403821.4014   20403827.7104
        97.224          75.759
   4806304.418 9   3740991.67747  21768115.496    21768117.1534   21768124.5094
     -2124.659       -1655.578
  -2821589.757 9  -2171726.51546  23475157.636    23475158.7774   23475167.0864
       -31.597         -24.621
 -10209890.331 9  -7944078.03948  21401554.281    21401555.9764   21401562.7414
      2647.475        2062.968
 97  4 14 16  6 29.9980000  0  7 31  7 27 19 18 10  2               -0.001637152
  -1034325.566 9   -798384.01848  21730891.726    21730893.1294   21730899.3474
      -792.723        -617.706
  -5420271.052 8  -3859915.39946  23845709.539    23845711.5394   23845721.1034
      4733.729        3688.620
  -9475855.786 9  -7366579.46948  20166939.070    20166940.9784   20166947.1754
      2472.914        1926.946
  -1945358.245 9  -1511687.45848  20403299.046    20403301.1604   20403307.4554
        84.881          66.141
   4870239.351 9   3790811.05347  21780282.022    21780283.6304   21780290.9714
     -2137.805       -1665.822
  -2820388.309 9  -2170790.35146  23475385.990    23475387.4514   23475395.7114
       -48.725         -37.968
 -10289139.869 9  -8005830.91448  21386473.581    21386475.2914   21386482.0614
      2635.450        2053.597
 97  4 14 16  6 59.9980000  0  7 31  7 27 19 18 10  2               -0.001659006
  -1010287.811 9   -779653.32548  21735465.650    21735467.3684   21735473.5964
      -809.074        -630.447
  -5562277.515 8  -3970569.76246  23818686.618    23818688.5414   23818698.0824
      4734.023        3688.849
  -9549950.362 9  -7424315.50948  20152839.401    20152841.2574   20152847.4334
      2467.337        1922.600
  -1947791.115 9  -1513583.22748  20402836.087    20402838.2124   20402844.5094
        77.924          60.720
   4934501.703 9   3840885.55547  21792510.667    21792512.4094   21792519.7454
     -2145.580       -1671.880
  -2818744.274 9  -2169509.34646  23475699.240    23475700.3314   23475708.6834
       -60.219         -46.924
 -10368082.011 9  -8067344.25548  21371451.379    21371453.0694   21371459.8414
      2627.832        2047.661
 97  4 14 16  7 29.9980000  0  7 31  7 27 19 18 10  2               -0.001680844
   -985700.514 9   -760494.40048  21740144.424    21740146.2154   21740152.4184
      -828.091        -645.266
  -5704219.688 8  -4081174.03546  23791675.956    23791677.7214   23791687.2644
      4730.746        3686.296
  -9623803.394 9  -7481863.32248  20138785.542    20138787.4594   20138793.6174
      2458.022        1915.342
  -1949954.230 9  -1515268.78248  20402424.476    20402426.6144   20402432.9124
        68.232          53.168
   4999061.541 9   3891191.86847  21804796.123    21804797.7854   21804805.1374
     -2156.628       -1680.489
  -2816682.722 9  -2167902.98246  23476091.451    23476092.6554   23476101.0134
       -75.356         -58.719
 -10446715.911 9  -8128617.41148  21356487.928    21356489.5274   21356496.2744
      2616.373        2038.732
 97  4 14 16  7 59.9980000  0  7 31  7 27 19 18 10  2               -0.001702676
   -960588.620 9   -740926.71148  21744923.223    21744924.8964   21744931.1004
      -843.968        -657.637
  -5846094.020 9  -4191725.43946  23764678.072    23764679.9544   23764689.4184
      4729.645        3685.438
  -9697400.456 9  -7539211.68648  20124780.455    20124782.3994   20124788.5434
      2450.387        1909.392
  -1951862.490 9  -1516755.75548  20402061.481    20402063.5414   20402069.8284
        60.718          47.313
   5063925.046 9   3941734.80347  21817139.172    21817140.9424   21817148.3274
     -2165.496       -1687.399
  -2814197.125 9  -2165966.18446  23476564.544    23476565.7104   23476574.0334
       -88.257         -68.772
 -10525043.719 9  -8189652.05048  21341582.644    21341584.2244   21341591.0154
      2607.662        2031.944
 97  4 14 16  8 29.9980000  0  7 31  7 27 19 18 10  2               -0.001724537
   -935003.394 9   -720990.18248  21749792.091    21749793.6324   21749799.8494
      -862.161        -671.814
  -5987943.349 8  -4302257.37146  23737684.995    23737686.9844   23737696.4524
      4726.569        3683.041
  -9770764.186 9  -7596378.23048  20110819.862    20110821.7554   20110827.8724
      2440.304        1901.536
  -1953521.933 9  -1518048.84648  20401745.690    20401747.8044   20401754.1264
        49.498          38.570
   5129051.484 9   3992482.63247  21829532.467    21829534.1824   21829541.5944
     -2176.571       -1696.029
  -2811321.044 9  -2163725.13746  23477111.990    23477113.1184   23477121.4034
      -103.828         -80.905
 -10603110.532 9  -8250483.32348  21326727.045    21326728.6354   21326735.4904
      2596.502        2023.248
 97  4 14 16  8 59.9980000  0  7 31  7 27 19 18 10  2               -0.001746393
   -908890.529 9   -700642.51448  21754761.197    21754762.7424   21754768.9824
      -879.114        -685.024
  -6129721.802 8  -4412734.05346  23710705.408    23710707.4464   23710716.8874
      4725.393        3682.124
  -9843851.212 9  -7653329.15848  20096911.836    20096913.7684   20096919.8894
      2431.872        1894.965
  -1954858.586 9  -1519090.40448  20401491.366    20401493.4644   20401499.7954
        39.339          30.654
   5194492.905 9   4043475.88747  21841985.541    21841987.3124   21841994.7324
     -2186.303       -1703.613
  -2807996.999 9  -2161135.01546  23477744.372    23477745.6094   23477753.8694
      -118.048         -91.985
 -10680868.354 9  -8311073.82748  21311930.221    21311931.8144   21311938.6664
      2587.244        2016.034
 97  4 14 16  9 29.9980000  0  7 31  7 27 19 18 10  2               -0.001768259
   -882281.190 9   -679907.98048  21759824.785    21759826.3324   21759832.5674
      -895.305        -697.640
  -6271491.217 9  -4523203.72346  23683727.697    23683729.4654   23683739.0334
      4725.579        3682.269
  -9916698.450 9  -7710093.24048  20083049.430    20083051.3674   20083057.5324
      2424.366        1889.116
  -1955907.186 9  -1519907.51348  20401291.794    20401293.9814   20401300.3134
        30.294          23.606
   5260201.776 9   4094677.54647  21854489.621    21854491.3824   21854498.7424
     -2194.670       -1710.132
  -2804256.511 9  -2158220.38546  23478456.574    23478457.4564   23478465.8024
      -131.603        -102.548
 -10758375.520 9  -8371469.01148  21297181.037    21297182.6974   21297189.5514
      2579.732        2010.181
 97  4 14 16  9 59.9980000  0  7 31  7 27 19 18 10  2               -0.001790112
   -855140.127 9   -658759.11348  21764989.701    21764991.1254   21764997.3634
      -913.863        -712.101
  -6413231.915 9  -4633651.01746  23656755.331    23656757.1444   23656766.5434
      4724.159        3681.163
  -9989288.673 9  -7766657.04748  20069236.011    20069237.8714   20069244.1014
      2415.411        1882.138
  -1956637.805 9  -1520476.83748  20401152.822    20401154.9554   20401161.3414
        18.820          14.665
   5326191.436 9   4146098.00547  21867047.161    21867048.8464   21867056.1724
     -2204.094       -1717.476
  -2800081.677 9  -2154967.31446  23479250.601    23479251.9434   23479260.3384
      -146.172        -113.900
 -10835635.317 9  -8431671.43548  21282479.032    21282480.6784   21282487.5014
      2571.280        2003.595
 97  4 14 16 10 29.9980000  0  7 31  7 27 19 18 10  2               -0.001811953
   -827461.349 9   -637191.25648  21770256.911    21770258.1834   21770264.4604
      -932.872        -726.913
  -6554956.700 9  -4744085.90246  23629786.077    23629787.9334   23629797.2514
      4722.664        3679.998
 -10061643.643 9  -7823037.54148  20055467.328    20055469.1794   20055475.4534
      2406.925        1875.526
  -1957052.928 9  -1520800.32648  20401073.719    20401075.9334   20401082.3464
         7.675           5.981
   5392426.718 9   4197709.86147  21879651.386    21879653.0554   21879660.3754
     -2212.931       -1724.362
  -2795506.371 9  -2151402.18846  23480121.529    23480122.6564   23480130.9574
      -160.306        -124.914
 -10912659.159 9  -8491690.00149  21267822.066    21267823.5814   21267830.3684
      2562.094        1996.437
 97  4 14 16 10 59.9980000  0  7 31  7 27 19 18 10  2               -0.001833764
   -799210.426 9   -615177.57148  21775632.644    21775634.1524   21775640.4394
      -951.875        -741.721
  -6696632.207 9  -4854482.37546  23602825.908    23602828.0034   23602837.3784
      4721.047        3678.738
 -10133744.265 9  -7879219.84448  20041747.072    20041748.8944   20041755.2274
      2398.380        1868.868
  -1957137.407 9  -1520866.17348  20401057.469    20401059.8514   20401066.2774
        -3.184          -2.481
   5458926.527 9   4249527.83947  21892305.838    21892307.6124   21892314.9594
     -2221.757       -1731.239
  -2790509.626 9  -2147508.67846  23481072.633    23481073.6294   23481081.9774
      -174.200        -135.740
 -10989402.556 9  -8551490.03949  21253218.260    21253219.8124   21253226.6174
      2552.819        1989.210
 97  4 14 16 11 29.9980000  0  7 31  7 27 19 18 10  2               -0.001855548
   -770400.222 9   -592728.08148  21781115.182    21781116.5814   21781122.8744
      -969.679        -755.594
  -6838263.923 9  -4964844.75946  23575874.370    23575876.4044   23575885.6554
      4720.160        3678.047
 -10205592.720 9  -7935205.65748  20028074.691    20028076.5964   20028082.9674
      2390.687        1862.873
  -1956916.551 9  -1520694.09248  20401099.539    20401101.8884   20401108.3204
       -12.436          -9.690
   5525680.552 9   4301543.90247  21905008.716    21905010.5594   21905017.8604
     -2229.509       -1737.280
  -2785105.638 9  -2143297.81646  23482101.033    23482101.9554   23482110.3684
      -186.915        -145.648
 -11065874.784 9  -8611078.78349  21238666.089    21238667.6514   21238674.4424
      2544.495        1982.723
 97  4 14 16 11 59.9980000  0  7 31  7 27 19 18 10  2               -0.001877309
   -741032.150 9   -569843.89048  21786703.889    21786705.1234   21786711.4354
      -987.926        -769.812
  -6979841.808 9  -5075165.19646  23548933.089    23548934.9634   23548944.2134
      4718.624        3676.850
 -10277184.477 9  -7990991.44148  20014451.249    20014453.1374   20014459.5224
      2382.295        1856.334
  -1956390.514 9  -1520284.21048  20401199.877    20401202.0304   20401208.4744
       -22.269         -17.352
   5592700.946 9   4353767.53247  21917762.356    21917764.1764   21917771.4464
     -2238.302       -1744.131
  -2779304.760 9  -2138777.69246  23483204.794    23483205.8624   23483214.3204
      -199.659        -155.578
 -11142066.340 9  -8670448.81549  21224167.281    21224168.8734   21224175.7034
      2535.057        1975.369
 97  4 14 16 12 29.9980000  0  7 31  7 27 19 18 10  2               -0.001899074
   -711147.497 9   -546557.16848  21792390.593    21792392.0114   21792398.3424
     -1006.218        -784.066
  -7121394.511 9  -5185465.99546  23521996.643    23521998.3204   23522007.5584
      4716.273        3675.018
 -10348547.376 9  -8046598.89348  20000871.371    20000873.2174   20000879.6304
      2373.314        1849.336
  -1955603.055 9  -1519670.61748  20401349.748    20401351.8844   20401358.3184
       -32.126         -25.033
   5659969.741 9   4406184.72147  21930563.217    21930565.0864   21930572.3134
     -2248.155       -1751.809
  -2773139.096 9  -2133973.33646  23484377.876    23484379.1684   23484387.6974
      -213.413        -166.296
 -11217989.882 9  -8729610.00049  21209719.491    21209721.1024   21209727.9424
      2524.739        1967.329
 97  4 14 16 12 59.9980000  0  7 31  7 27 19 18 10  2               -0.001920805
   -680711.775 9   -522841.04148  21798182.314    21798183.7714   21798190.0544
     -1023.827        -797.787
  -7262859.586 9  -5295698.52246  23495076.801    23495078.5094   23495087.7564
      4713.768        3673.066
 -10419629.910 9  -8101987.88548  19987344.858    19987346.6574   19987353.1144
      2364.489        1842.459
  -1954507.860 9  -1518817.23948  20401558.173    20401560.3114   20401566.7594
       -41.750         -32.532
   5727549.877 9   4458844.50847  21943423.327    21943425.1594   21943432.4204
     -2258.092       -1759.552
  -2766545.682 9  -2128835.65246  23485632.687    23485633.8884   23485642.3224
      -226.948        -176.843
 -11293609.156 9  -8788534.10249  21195329.638    21195331.2384   21195338.1144
      2515.639        1960.238
 97  4 14 16 13 29.9980000  0  7 31  7 27 19 18 10  2               -0.001942503
   -649729.525 9   -498699.05048  21804078.088    21804079.5124   21804085.7344
     -1041.949        -811.908
  -7404218.167 9  -5405848.06546  23468177.168    23468178.8604   23468188.0974
      4709.933        3670.078
 -10490415.177 9  -8157145.23748  19973874.895    19973876.6714   19973883.1384
      2354.273        1834.498
  -1953103.173 9  -1517722.69848  20401825.533    20401827.6314   20401834.0654
       -52.212         -40.685
   5795444.020 9   4511748.98647  21956343.005    21956345.0074   21956352.2234
     -2268.365       -1767.557
  -2759523.551 9  -2123363.91346  23486968.779    23486970.1294   23486978.6174
      -241.359        -188.072
 -11368928.128 9  -8847224.19849  21180996.897    21180998.4874   21181005.3864
      2505.443        1952.293
 97  4 14 16 13 59.9980000  0  7 31  7 27 19 18 10  2               -0.001964185
   -618231.521 9   -474155.18248  21810072.020    21810073.4094   21810079.6104
     -1058.747        -824.998
  -7545482.753 9  -5515924.37246  23441295.353    23441296.9694   23441306.1734
      4706.901        3667.715
 -10560916.981 9  -8212081.71148  19960458.783    19960460.6414   19960467.1004
      2345.041        1827.305
  -1951407.090 9  -1516401.09448  20402148.211    20402150.3954   20402156.8514
       -61.589         -47.991
   5863618.676 9   4564872.03447  21969316.256    21969318.2524   21969325.4244
     -2277.367       -1774.572
  -2752097.261 9  -2117577.24646  23488382.036    23488383.3834   23488391.9334
      -254.625        -198.409
 -11443967.919 9  -8905696.75149  21166717.167    21166718.8674   21166725.7744
      2496.429        1945.269
 97  4 14 16 14 29.9980000  0  7 31  7 27 19 18 10  2               -0.001985842
   -586218.280 9   -449209.82348  21816163.864    21816165.3504   21816171.4984
     -1076.633        -838.935
  -7686643.846 9  -5625920.04046  23414433.114    23414434.9254   23414444.0054
      4702.827        3664.541
 -10631131.550 9  -8266794.36348  19947097.496    19947099.2424   19947105.7124
      2334.731        1819.271
  -1949418.343 9  -1514851.43848  20402526.735    20402528.8674   20402535.3464
       -72.161         -56.229
   5932064.499 9   4618206.38747  21982341.057    21982343.0594   21982350.2754
     -2286.763       -1781.893
  -2744252.857 9  -2111464.76946  23489874.961    23489876.1454   23489884.6574
      -269.384        -209.910
 -11518735.089 9  -8963956.87449  21152489.489    21152491.1574   21152498.0084
      2487.017        1937.935
 97  4 14 16 14 59.9980000  0  7 31  7 27 19 18 10  2               -0.002007482
   -553699.148 9   -423870.26248  21822352.016    21822353.5934   21822359.7024
     -1091.736        -850.703
  -7827715.800 9  -5735846.23246  23387588.237    23387589.8574   23387598.9354
      4701.783        3663.727
 -10701057.789 9  -8321282.34448  19933790.815    19933792.7024   19933799.1544
      2326.719        1813.028
  -1947135.367 9  -1513072.51648  20402961.169    20402963.3304   20402969.7764
       -80.322         -62.589
   6000766.537 9   4671740.38347  21995414.458    21995416.6264   21995423.8874
     -2293.765       -1787.349
  -2735998.943 9  -2105033.20246  23491445.545    23491446.9124   23491455.4344
      -281.100        -219.039
 -11593249.010 9  -9022019.66249  21138309.921    21138311.6154   21138318.4774
      2480.064        1932.517
 97  4 14 16 15 29.9970000  0  7 31  7 27 19 18 10  2               -0.002029117
   -520677.959 9   -398139.49348  21828635.613    21828637.3314   21828643.4224
     -1107.928        -863.321
  -7968713.766 9  -5845714.76546  23360757.209    23360758.8944   23360768.0034
      4700.340        3662.602
 -10770685.018 9  -8375537.32848  19920541.153    19920543.0794   19920549.5264
      2317.223        1805.628
  -1944557.749 9  -1511064.00248  20403451.787    20403453.8704   20403460.2694
       -89.656         -69.862
   6069718.774 9   4725469.34247  22008535.790    22008537.8274   22008545.0834
     -2301.432       -1793.324
  -2727346.335 9  -2098290.96246  23493092.313    23493093.4984   23493102.0384
      -293.945        -229.048
 -11667492.030 9  -9079871.35449  21124181.984    21124183.6514   21124190.5374
      2471.626        1925.942
 97  4 14 16 15 59.9970000  0  7 31  7 27 19 18 10  2               -0.002050739
   -487141.108 9   -372006.91247  21835017.549    21835019.2014   21835025.3204
     -1127.221        -878.354
  -8109656.216 9  -5955540.04346  23333936.724    23333938.4784   23333947.7114
      4696.374        3659.512
 -10840021.895 9  -8429566.06748  19907346.801    19907348.7084   19907355.1284
      2305.886        1796.794
  -1941676.201 9  -1508818.65248  20403999.954    20404002.2394   20404008.5944
      -101.932         -79.428
   6138932.438 9   4779402.01447  22021706.848    22021708.7964   22021716.1234
     -2312.161       -1801.684
  -2718285.632 9  -2091230.73646  23494816.464    23494817.7094   23494826.2054
      -309.552        -241.209
 -11741465.974 9  -9137513.37549  21110105.282    21110106.8574   21110113.8244
      2460.428        1917.217
 97  4 14 16 16 29.9970000  0  7 31  7 27 19 18 10  2               -0.002072335
   -453077.351 9   -345463.74747  21841499.766    21841501.3504   21841507.4664
     -1142.890        -890.564
  -8250529.365 9  -6065311.31746  23307129.295    23307131.2084   23307140.4604
      4695.851        3659.105
 -10909077.842 9  -8483375.89948  19894205.899    19894207.8214   19894214.2344
      2298.614        1791.128
  -1938471.545 9  -1506321.53548  20404609.760    20404612.0854   20404618.4494
      -110.935         -86.443
   6208413.024 9   4833542.66447  22034928.481    22034930.5374   22034937.9064
     -2319.080       -1807.075
  -2708810.438 9  -2083847.51246  23496619.696    23496620.8694   23496629.2024
      -321.115        -250.219
 -11815150.604 9  -9194929.96748  21096083.545    21096085.1694   21096092.0844
      2452.572        1911.095
 97  4 14 16 16 59.9970000  0  7 31  7 27 19 18 10  2               -0.002093930
   -418511.004 9   -318528.96047  21848077.572    21848079.1444   21848085.2744
     -1159.989        -903.888
  -8391344.596 9  -6175037.46946  23280333.205    23280334.9634   23280344.1054
      4693.269        3657.093
 -10977878.141 9  -8536986.52948  19881113.667    19881115.5734   19881121.9774
      2289.688        1784.172
  -1934960.516 9  -1503585.69348  20405277.888    20405280.1934   20405286.6044
      -121.568         -94.728
   6278137.399 9   4887873.27547  22048196.545    22048198.6494   22048206.0664
     -2327.492       -1813.630
  -2698964.927 9  -2076175.73446  23498493.350    23498494.4704   23498502.7934
      -333.784        -260.091
 -11888553.075 9  -9252126.68649  21082115.526    21082117.0904   21082124.0424
      2442.515        1903.258
 97  4 14 16 17 29.9970000  0  7 31  7 27 19 18 10  2               -0.002115503
   -383419.351 9   -291184.84647  21854755.333    21854756.8704   21854762.9854
     -1176.713        -916.919
  -8532058.018 9  -6284684.25746  23253556.256    23253558.0994   23253567.2814
      4690.207        3654.707
 -11046400.517 9  -8590380.58748  19868074.298    19868076.2194   19868082.6204
      2281.368        1777.689
  -1931116.476 9  -1500590.35948  20406009.269    20406011.7124   20406018.1494
      -131.855        -102.744
   6348112.572 9   4942399.31547  22061512.592    22061514.5034   22061521.9664
     -2334.686       -1819.236
  -2688724.675 9  -2068196.37646  23500441.892    23500443.1044   23500451.5254
      -346.065        -269.661
 -11961644.689 9  -9309081.18249  21068206.592    21068208.2414   21068215.1714
      2433.318        1896.092
 97  4 14 16 17 59.9970000  0  7 31  7 27 19 18 10  2               -0.002137045
   -347801.174 9   -263430.45447  21861533.041    21861534.8334   21861540.9954
     -1196.822        -932.589
  -8672648.787 9  -6394235.47946  23226802.941    23226804.6354   23226813.8124
      4683.400        3649.403
 -11114665.592 9  -8643574.15448  19855084.019    19855085.8364   19855092.2174
      2270.383        1769.130
  -1926947.920 9  -1497342.15048  20406802.562    20406804.9724   20406811.4554
      -145.346        -113.257
   6418325.163 9   4997110.36647  22074873.523    22074875.5204   22074883.0244
     -2345.234       -1827.455
  -2678107.692 9  -2059923.46046  23502462.419    23502463.4694   23502472.0154
      -360.762        -281.113
 -12034449.039 9  -9365811.83348  21054352.383    21054354.0634   21054360.9184
      2421.201        1886.650
 97  4 14 16 18 29.9970000  0  7 31  7 27 19 18 10  2               -0.002158557
   -311648.277 9   -235259.40047  21868412.727    21868414.4964   21868420.6444
     -1214.228        -946.152
  -8813096.593 9  -6503675.28746  23200076.611    23200078.2844   23200087.5414
      4679.142        3646.085
 -11182649.042 9  -8696548.27248  19842147.316    19842149.0524   19842155.4194
      2260.916        1761.753
  -1922433.522 9  -1493824.46248  20407661.597    20407664.0654   20407670.5634
      -156.327        -121.813
   6488793.402 9   5052020.60147  22088283.450    22088285.2044   22088292.7484
     -2353.609       -1833.981
  -2667120.706 9  -2051362.22146  23504553.277    23504554.3284   23504562.8564
      -372.604        -290.341
 -12106959.523 9  -9422313.50248  21040554.198    21040555.7974   21040562.5844
      2412.183        1879.623
 97  4 14 16 18 59.9970000  0  8 31  7 26 27 19 18 10  2            -0.002180050
   -274982.947 9   -206689.04147  21875390.056    21875391.6974   21875397.8774
     -1229.214        -957.829
  -8953424.948 9  -6613022.02546  23173372.879    23173374.7024   23173383.8884
      4677.176        3644.553
  -1559216.34418  -1184039.97255  24661172.372    24661176.1635   24661183.2735
      4385.285        3417.105
 -11250337.500 9  -8749292.52848  19829266.599    19829268.4224   19829274.8114
      2252.565        1755.245
  -1917595.765 9  -1490054.79948  20408582.177    20408584.6944   20408591.1864
      -165.237        -128.756
   6559518.544 9   5107131.03347  22101742.146    22101743.7964   22101751.3684
     -2360.432       -1839.298
  -2655771.200 9  -2042518.50646  23506712.784    23506714.0654   23506722.6454
      -383.214        -298.608
 -12179208.515 9  -9478611.40748  21026805.634    21026807.2654   21026813.9924
      2405.396        1874.335
 97  4 14 16 19 29.9970000  0  8 31  7 26 27 19 18 10  2            -0.002201526
   -237816.549 9   -177728.24647  21882462.651    21882464.2564   21882470.4634
     -1246.095        -970.983
  -9093653.693 9  -6722291.13446  23146688.125    23146690.0394   23146699.1994
      4673.972        3642.056
  -1690653.388 8  -1286458.48445  24636161.173    24636164.5154   24636171.6414
      4379.541        3412.629
 -11317728.497 9  -8801805.00048  19816442.514    19816444.3664   19816450.7974
      2242.652        1747.521
  -1912441.610 9  -1486038.59748  20409563.146    20409565.5684   20409572.0354
      -175.899        -137.064
   6630503.866 9   5162444.20247  22115250.147    22115251.9084   22115259.5034
     -2369.498       -1846.362
  -2644047.874 9  -2033383.49946  23508943.751    23508945.0134   23508953.5254
      -395.860        -308.462
 -12251208.913 9  -9534715.60248  21013104.453    21013106.0724   21013112.7124
      2397.051        1867.832
 97  4 14 16 19 59.9970000  0  8 31  7 26 27 19 18 10  2            -0.002223007
   -200183.845 9   -148404.09247  21889623.849    21889625.5234   21889631.7614
     -1262.729        -983.945
  -9233831.978 9  -6831520.95246  23120013.142    23120015.0664   23120024.1414
      4671.244        3639.930
  -1821957.696 8  -1388773.55245  24611175.119    24611177.9794   24611185.1764
      4373.961        3408.281
 -11384852.970 9  -8854109.78648  19803669.026    19803670.9844   19803677.4834
      2232.246        1739.412
  -1907000.547 9  -1481798.82548  20410598.532    20410600.9604   20410607.4244
      -186.921        -145.653
   6701736.145 9   5217949.79447  22128805.041    22128806.9414   22128814.6204
     -2379.256       -1853.966
  -2631979.937 9  -2023979.95846  23511240.273    23511241.5344   23511250.0204
      -408.911        -318.632
 -12322986.609 9  -9590646.26149  20999445.675    20999447.2064   20999453.8094
      2388.061        1860.827
 97  4 14 16 20 29.9970000  0  8 31  7 26 27 19 18 10  2            -0.002244486
   -162088.612 9   -118719.52447  21896873.481    21896874.8674   21896881.1254
     -1277.964        -995.816
  -9373955.362 9  -6940707.95246  23093348.276    23093350.3744   23093359.5904
      4669.312        3638.425
  -1953126.411 8  -1490982.96945  24586214.671    24586217.4454   24586224.6804
      4369.661        3404.931
 -11451688.851 9  -8906189.69748  19790950.604    19790952.5414   19790959.0544
      2222.669        1731.950
  -1901260.123 9  -1477325.79248  20411690.750    20411693.3034   20411699.7934
      -196.539        -153.147
   6773228.320 9   5273657.90647  22142409.678    22142411.5464   22142419.2614
     -2387.675       -1860.526
  -2619529.515 9  -2014278.38046  23513609.816    23513610.7594   23513619.3514
      -422.049        -328.869
 -12394516.605 9  -9646383.91349  20985833.902    20985835.4824   20985842.1194
      2379.661        1854.281
 97  4 14 16 20 59.9970000  0  8 31  7 26 27 19 18 10  2            -0.002265953
   -123524.893 9    -88669.90947  21904211.803    21904213.3244   21904219.5914
     -1292.634       -1007.247
  -9513997.390 9  -7049831.57146  23066699.277    23066701.1914   23066710.4384
      4667.202        3636.781
  -2084148.807 8  -1593078.36645  24561281.959    24561285.0704   24561292.0644
      4365.735        3401.871
 -11518221.116 9  -8958033.03048  19778289.965    19778291.9084   19778298.3784
      2213.542        1724.838
  -1895210.654 9  -1472611.93648  20412842.004    20412844.4424   20412850.9544
      -206.084        -160.585
   6844981.467 9   5329569.37547  22156063.993    22156065.7964   22156073.5124
     -2395.027       -1866.255
  -2606661.365 9  -2004251.29646  23516058.509    23516059.5334   23516068.1114
      -434.992        -338.955
 -12465761.666 9  -9701899.53849  20972276.343    20972277.9674   20972284.6524
      2370.590        1847.213
 97  4 14 16 21 29.9970000  0  8 31  7 26 27 19 18 10  2            -0.002287408
    -84492.745 9    -58255.27647  21911639.279    21911640.9564   21911647.1754
     -1307.485       -1018.819
  -9653945.452 9  -7158881.96446  23040068.008    23040069.9294   23040079.1934
      4664.613        3634.763
  -2215031.419 8  -1695064.83345  24536375.828    24536378.9094   24536386.1014
      4361.569        3398.625
 -11584473.988 9  -9009658.64948  19765682.603    19765684.4164   19765690.8444
      2205.227        1718.359
  -1888861.907 9  -1467664.88448  20414050.307    20414052.5734   20414059.1174
      -215.215        -167.700
   6916961.946 9   5385657.98247  22169761.473    22169763.3114   22169771.0284
     -2401.610       -1871.384
  -2593402.734 9  -1993919.95246  23518581.499    23518582.6114   23518591.1854
      -446.762        -348.126
 -12536716.098 9  -9757188.69849  20958774.172    20958775.7844   20958782.4314
      2361.818        1840.378
 97  4 14 16 21 59.9970000  0  8 31  7 26 27 19 18 10  2            -0.002308856
    -44997.557 9    -27479.83047  21919154.975    21919156.6864   21919162.8084
     -1325.962       -1033.217
  -9793779.724 9  -7267843.69846  23013458.313    23013460.3914   23013469.6414
      4657.310        3629.073
  -2345757.886 8  -1796929.63445  24511499.860    24511502.6134   24511509.9574
      4353.180        3392.088
 -11650444.736 9  -9061064.42948  19753128.655    19753130.6314   19753136.9754
      2192.639        1708.550
  -1882210.723 9  -1462482.15848  20415316.069    20415318.2314   20415324.8334
      -228.319        -177.911
   6989163.381 9   5441918.76447  22183501.140    22183502.8834   22183510.6544
     -2412.100       -1879.558
  -2579778.584 9  -1983303.78246  23521174.294    23521175.2974   23521183.8744
      -461.645        -359.723
 -12607386.922 9  -9812256.85949  20945325.969    20945327.5544   20945334.2684
      2349.425        1830.721
 97  4 14 16 22 29.9970000  0  8 31  7 26 27 19 18 10  2            -0.002330276
     -5001.691 9      3685.75847  21926765.933    21926767.7004   21926773.7404
     -1340.549       -1044.584
  -9933449.346 9  -7376677.14646  22986880.307    22986882.1784   22986891.3724
      4653.986        3626.483
  -2476292.623 8  -1898645.03645  24486660.179    24486662.8484   24486670.0494
      4349.076        3388.890
 -11716096.897 9  -9112221.96248  19740635.447    19740637.4804   19740643.7484
      2184.005        1701.822
  -1875231.950 9  -1457044.17448  20416644.022    20416646.2654   20416652.8854
      -237.035        -184.703
   7061617.041 9   5498376.08447  22197288.731    22197290.4564   22197298.2714
     -2418.205       -1884.316
  -2565778.511 9  -1972394.68446  23523838.367    23523839.4624   23523848.0404
      -471.605        -367.484
 -12677750.327 9  -9867085.47649  20931936.279    20931937.8644   20931944.6384
      2341.359        1824.436
 97  4 14 16 22 59.9970000  0  8 31  7 26 27 19 18 10  2            -0.002351698
     35462.948 9     35216.62147  21934466.078    21934467.9274   21934473.8834
     -1356.498       -1057.011
 -10072991.863 9  -7485411.53946  22960326.273    22960328.0724   22960337.3074
      4649.501        3622.988
  -2606672.288 8  -2000239.59945  24461850.366    24461852.3924   24461859.6984
      4343.720        3384.717
 -11781457.700 9  -9163152.46548  19728197.667    19728199.7224   19728205.9714
      2174.089        1694.095
  -1867959.205 9  -1451377.12548  20418027.911    20418030.2384   20418036.8844
      -247.069        -192.521
   7134285.334 9   5555000.66247  22211117.235    22211118.8864   22211126.6494
     -2425.745       -1890.191
  -2551464.748 9  -1961241.16346  23526562.068    23526563.3124   23526571.8834
      -481.929        -375.529
 -12747846.834 9  -9921706.12549  20918597.322    20918598.9624   20918605.7554
      2332.538        1817.562
 97  4 14 16 23 29.9970000  0  8 31  7 26 27 19 18 10  2            -0.002373099
     76434.558 9     67142.53447  21942262.828    21942264.5954   21942270.5284
     -1374.402       -1070.963
 -10212378.329 9  -7594024.32246  22933801.715    22933803.6234   22933812.9234
      4643.429        3618.256
  -2736866.504 8  -2101689.65845  24437075.110    24437077.3754   24437084.6904
      4336.355        3378.978
 -11846496.603 9  -9213832.13448  19715821.261    19715823.2524   19715829.4464
      2162.129        1684.776
  -1860356.739 9  -1445453.14648  20419474.579    20419476.9764   20419483.6254
      -259.479        -202.191
   7207212.867 9   5611827.23147  22224994.857    22224996.6174   22225004.3534
     -2435.671       -1897.925
  -2536818.965 9  -1949828.91146  23529349.127    23529350.4044   23529358.8284
      -494.216        -385.103
 -12817659.086 9  -9976105.27449  20905312.499    20905314.1154   20905320.9114
      2322.007        1809.356
 97  4 14 16 23 59.9970000  0  8 31  7 26 27 19 18 10  2            -0.002394486
    117900.515 9     99453.64147  21950153.533    21950155.3274   21950161.1984
     -1390.693       -1083.657
 -10351636.602 9  -7702537.21746  22907301.335    22907303.5634   22907312.9284
      4639.833        3615.454
  -2866883.608 8  -2203001.72045  24412333.304    24412335.9724   24412343.1364
      4330.947        3374.764
 -11911217.567 9  -9264264.05848  19703505.319    19703507.2814   19703513.4604
      2152.156        1677.005
  -1852424.075 9  -1439271.87648  20420984.252    20420986.5244   20420993.1824
      -269.779        -210.217
   7280388.005 9   5668846.73647  22238919.861    22238921.4794   22238929.2184
     -2443.222       -1903.809
  -2521840.013 9  -1938157.04646  23532199.474    23532200.7994   23532209.3434
      -505.157        -393.629
 -12887199.504 9 -10030292.60749  20892079.323    20892081.0194   20892087.8554
      2313.266        1802.545
 97  4 14 16 24 29.9970000  0  8 31  7 26 27 19 18 10  2            -0.002415848
    159866.577 9    132154.46747  21958139.287    21958141.2094   21958147.0944
     -1406.233       -1095.766
 -10490781.939 9  -7810962.12946  22880822.738    22880825.0294   22880834.4374
      4637.128        3613.346
  -2996717.113 8  -2304170.71045  24387626.876    24387629.5044   24387636.5814
      4325.372        3370.420
 -11975630.565 9  -9314456.00948  19691248.020    19691249.8984   19691256.0804
      2142.725        1669.656
  -1844172.866 9  -1432842.38348  20422554.487    20422556.7244   20422563.3554
      -279.644        -217.904
   7353790.094 9   5726043.09847  22252887.861    22252889.4984   22252897.2204
     -2449.359       -1908.591
  -2506507.484 9  -1926209.68246  23535116.911    23535118.4814   23535127.1804
      -516.394        -402.385
 -12956454.706 9 -10084257.69049  20878900.520    20878902.1984   20878909.0564
      2304.402        1795.638
 97  4 14 16 24 59.9970000  0  8 31  7 26 27 19 18 10  2            -0.002437201
    202288.486 9    165210.46947  21966211.968    21966213.8254   21966219.7504
     -1422.886       -1108.742
 -10629845.666 9  -7919323.44146  22854359.765    22854362.0434   22854371.5074
      4632.794        3609.969
  -3126377.240 8  -2405204.58345  24362953.024    24362956.0434   24362963.0304
      4317.830        3364.543
 -12039771.419 9  -9364435.90148  19679042.469    19679044.2944   19679050.4794
      2132.419        1661.625
  -1835627.661 9  -1426183.80648  20424180.628    20424182.8464   20424189.5054
      -290.832        -226.622
   7427366.393 9   5783375.19747  22266888.974    22266890.6614   22266898.4184
     -2456.516       -1914.168
  -2490831.521 9  -1913994.69846  23538100.095    23538101.5374   23538110.2724
      -529.532        -412.622
 -13025447.743 9 -10138018.49249  20865771.618    20865773.2534   20865780.1354
      2294.250        1787.727
 97  4 14 16 25 29.9970000  0  8 31  7 26 27 19 18 10  2            -0.002458525
    245191.611 9    198641.45447  21974376.286    21974378.0274   21974383.9884
     -1438.850       -1121.182
 -10768798.002 9  -8027597.94646  22827918.047    22827920.2044   22827929.6764
      4628.993        3607.008
  -3255824.212 8  -2506072.36845  24338320.023    24338322.9824   24338330.0264
      4310.375        3358.734
 -12103619.761 9  -9414187.85748  19666892.522    19666894.3824   19666900.5754
      2122.407        1653.824
  -1826764.186 9  -1419277.22448  20425867.353    20425869.4944   20425876.1674
      -301.627        -235.034
   7501121.342 9   5840846.50947  22280924.024    22280925.8494   22280933.6244
     -2462.136       -1918.548
  -2474779.228 9  -1901486.46046  23541155.035    23541156.1624   23541164.9624
      -542.171        -422.471
 -13094152.683 9 -10191554.79749  20852697.517    20852699.1264   20852705.9864
      2284.491        1780.123
 97  4 14 16 25 59.9970000  0  8 31  7 26 27 19 18 10  2            -0.002479816
    288577.427 9    232448.55547  21982632.447    21982634.0574   21982640.1114
     -1454.546       -1133.412
 -10907616.654 9  -8135768.29746  22801501.648    22801503.8364   22801513.2424
      4624.253        3603.314
  -3385032.104 8  -2606753.85545  24313732.810    24313735.5774   24313742.6424
      4302.598        3352.674
 -12167152.427 9  -9463693.83548  19654802.621    19654804.5194   19654810.6854
      2112.131        1645.816
  -1817582.099 9  -1412122.38048  20427614.559    20427616.7834   20427623.4484
      -311.506        -242.732
   7575061.711 9   5898462.29147  22294994.485    22294996.3204   22295004.0924
     -2468.424       -1923.447
  -2458336.981 9  -1888674.37146  23544283.675    23544284.9854   23544293.8854
      -554.946        -432.425
 -13162559.666 9 -10244858.93349  20839680.157    20839681.7184   20839688.6034
      2274.912        1772.659
 97  4 14 16 26 29.9970000  0  8 31  7 26 27 19 18 10  2            -0.002501085
    332408.282 9    266602.45447  21990973.394    21990974.8284   21990980.8784
     -1469.065       -1144.726
 -11046289.913 9  -8243825.34546  22775112.994    22775115.1324   22775124.5194
      4619.127        3599.320
  -3514025.781 8  -2707268.44245  24289186.645    24289188.8674   24289195.8174
      4295.796        3347.374
 -12230386.982 9  -9512967.52248  19642769.589    19642771.4204   19642777.5454
      2101.917        1637.857
  -1808118.081 9  -1404747.85348  20429415.607    20429417.7504   20429424.4174
      -321.017        -250.143
   7649183.490 9   5956219.44047  22309099.501    22309101.3184   22309109.1054
     -2474.632       -1928.285
  -2441529.376 9  -1875577.59046  23547482.031    23547483.3834   23547492.4144
      -566.904        -441.743
 -13230695.089 9 -10297951.46449  20826714.293    20826715.9424   20826722.8464
      2266.170        1765.847
 97  4 14 16 26 59.9970000  0  8 31  7 26 27 19 18 10  2            -0.002522339
    376678.434 9    301098.66047  21999397.689    21999399.1614   21999405.2084
     -1483.757       -1156.174
 -11184802.417 9  -8351757.13046  22748755.180    22748757.0704   22748766.5284
      4613.726        3595.111
  -3642822.797 8  -2807629.77546  24264677.647    24264679.6534   24264686.2374
      4289.546        3342.503
 -12293310.636 9  -9561998.94248  19630795.553    19630797.4634   19630803.5414
      2091.563        1629.789
  -1798365.920 9  -1397148.79648  20431271.432    20431273.5354   20431280.2234
      -330.493        -257.527
   7723507.363 9   6014134.08047  22323242.968    22323244.6764   22323252.5594
     -2481.663       -1933.763
  -2424373.964 9  -1862209.79346  23550746.576    23550748.0004   23550757.1644
      -577.958        -450.357
 -13298578.477 9 -10350847.60849  20813796.515    20813798.1464   20813805.0494
      2258.030        1759.504
 97  4 14 16 27 29.9970000  0  8 31  7 26 27 19 18 10  2            -0.002543563
    421418.584 9    335961.09747  22007911.504    22007912.9184   22007918.9904
     -1498.619       -1167.755
 -11323124.302 9  -8459540.38146  22722433.410    22722435.3114   22722444.7484
      4608.022        3590.666
  -3771411.903 8  -2907829.09846  24240207.559    24240209.9064   24240216.6734
      4283.265        3337.609
 -12355884.444 9  -9610757.75848  19618888.068    19618890.0634   19618896.1304
      2080.434        1621.117
  -1788295.398 9  -1389301.66848  20433187.724    20433189.8834   20433196.6084
      -340.581        -265.388
   7798078.229 9   6072241.16247  22337433.248    22337435.0904   22337443.0164
     -2489.557       -1939.915
  -2406864.057 9  -1848565.74946  23554078.813    23554080.0864   23554089.2824
      -589.027        -458.982
 -13366187.601 9 -10403530.03449  20800930.971    20800932.5704   20800939.4534
      2249.557        1752.902
 97  4 14 16 27 59.9970000  0  8 31  7 26 27 19 18 10  2            -0.002564791
    466575.017 9    371147.91247  22016504.461    22016505.8944   22016511.9924
     -1514.046       -1179.776
 -11461303.804 9  -8567212.68446  22696138.625    22696140.5644   22696149.9564
      4601.967        3585.948
  -3899845.148 9  -3007906.96246  24215767.680    24215769.9024   24215776.6814
      4276.905        3332.653
 -12418160.794 9  -9659284.78948  19607037.204    19607039.2354   19607045.3414
      2069.288        1612.432
  -1777951.725 9  -1381241.69848  20435156.109    20435158.2334   20435164.9604
      -351.255        -273.705
   7872861.555 9   6130513.79847  22351664.265    22351665.9034   22351673.8774
     -2497.890       -1946.408
  -2389056.277 9  -1834689.61946  23557467.440    23557468.8374   23557478.0944
      -600.273        -467.745
 -13433572.722 9 -10456037.91549  20788107.985    20788109.6184   20788116.4934
      2240.683        1745.987
 97  4 14 16 28 29.9970000  0  8 31  7 26 27 19 18 10  2            -0.002586003
    512189.808 9    406691.88247  22025184.489    22025186.0984   22025192.2724
     -1527.123       -1189.966
 -11599327.890 9  -8674763.88146  22669873.452    22669875.4594   22669884.7634
      4599.707        3584.187
  -4028093.842 9  -3107841.01646  24191362.979    24191364.9464   24191371.9614
      4272.909        3329.539
 -12480113.947 9  -9707559.98248  19595248.056    19595249.9624   19595256.0564
      2060.795        1605.814
  -1767281.292 9  -1372927.11348  20437186.588    20437188.7794   20437195.4914
      -360.123        -280.615
   7947867.468 9   6188959.87747  22365937.369    22365939.1564   22365947.1454
     -2502.524       -1950.019
  -2370927.213 9  -1820563.13746  23560917.442    23560918.8134   23560928.0364
      -608.352        -474.041
 -13500700.820 9 -10508345.52349  20775333.894    20775335.5724   20775342.4644
      2234.393        1741.085
 97  4 14 16 28 59.9970000  0  8 31  7 26 27 19 18 10  2            -0.002607227
    558236.070 9    442572.07347  22033946.530    22033948.4264   22033954.5454
     -1540.959       -1200.747
 -11737256.948 9  -8782241.02746  22643626.276    22643628.4344   22643637.7354
      4597.169        3582.210
  -4156181.244 9  -3207649.40846  24166988.886    24166990.8394   24166997.8914
      4267.620        3325.418
 -12541773.420 9  -9755606.33148  19583514.629    19583516.5774   19583522.6284
      2051.402        1598.495
  -1756298.665 9  -1364369.25848  20439276.619    20439278.7494   20439285.4634
      -370.356        -288.589
   8023038.777 9   6247534.84047  22380242.029    22380243.8564   22380251.8954
     -2507.146       -1953.620
  -2352521.823 9  -1806221.33946  23564420.373    23564421.2624   23564430.4944
      -617.145        -480.892
 -13567597.959 9 -10560473.16149  20762603.777    20762605.4494   20762612.3814
      2226.913        1735.257
 97  4 14 16 29 29.9970000  0  8 31  7 26 27 19 18 10  2            -0.002628465
    604715.644 9    478789.90747  22042791.178    22042793.1704   22042799.3254
     -1555.728       -1212.255
 -11875092.053 9  -8889644.96646  22617397.025    22617399.3154   22617408.5884
      4593.712        3579.516
  -4284067.511 8  -3307301.08446  24142652.999    24142654.9624   24142661.9004
      4260.056        3319.524
 -12603132.309 9  -9803418.45948  19571838.372    19571840.3534   19571846.3814
      2041.174        1590.525
  -1744989.067 9  -1355556.61248  20441428.829    20441430.9334   20441437.6464
      -381.617        -297.364
   8098357.566 9   6306224.72347  22394574.587    22394576.5794   22394584.6464
     -2512.271       -1957.614
  -2333831.868 9  -1791657.79546  23567976.946    23567977.8764   23567987.0384
      -626.932        -488.518
 -13634247.806 9 -10612408.10249  20749920.635    20749922.3774   20749929.2984
      2218.378        1728.606
 97  4 14 16 29 59.9970000  0  9 31  7 26 27 15 19 18 10  2         -0.002649709
    651628.470 9    515345.33947  22051718.328    22051720.3874   22051726.5154
     -1571.867       -1224.831
 -12012823.832 9  -8996968.37446  22591187.680    22591189.7904   22591199.0434
      4588.260        3575.268
  -4411733.565 9  -3406781.13246  24118358.845    24118360.8724   24118367.8844
      4251.141        3312.577
 -12664193.091 9  -9850998.29348  19560218.797    19560220.8544   19560226.8714
      2029.374        1581.330
   -592582.66718   -449274.70255  24317424.546    24317424.5715   24317434.8905
      3498.313        2725.958
  -1733345.702 9  -1346483.88748  20443644.537    20443646.6004   20443653.3444
      -394.593        -307.475
   8173823.498 9   6365029.27147  22408935.192    22408937.3094   22408945.4364
     -2518.897       -1962.777
  -2314854.811 9  -1776870.53146  23571588.323    23571589.2204   23571598.2734
      -638.193        -497.293
 -13700649.449 9 -10664149.63549  20737284.830    20737286.5704   20737293.4414
      2208.329        1720.776
 97  4 14 16 30 29.9970000  0  9 31  7 26 27 15 19 18 10  2         -0.002670960
    698970.554 9    552235.25747  22060727.314    22060729.3214   22060735.4714
     -1583.745       -1234.087
 -12150430.791 9  -9104194.51946  22565002.030    22565004.0394   22565013.2444
      4585.929        3573.451
  -4539186.279 9  -3506094.94646  24094105.368    24094107.3624   24094114.4994
      4246.419        3308.898
 -12724950.026 9  -9898341.36948  19548657.118    19548659.2324   19548665.2274
      2021.628        1575.294
   -697497.258 8   -531026.34245  24297459.509    24297459.9834   24297469.3124
      3496.520        2724.561
  -1721364.076 9  -1337147.59648  20445924.601    20445926.6704   20445933.3934
      -403.444        -314.372
   8249446.356 9   6423956.08347  22423325.892    22423327.8444   22423336.0614
     -2522.249       -1965.389
  -2295590.825 9  -1761859.71146  23575254.301    23575255.1694   23575264.0534
      -645.562        -503.035
 -13766799.723 9 -10715695.30449  20724696.877    20724698.6074   20724705.4194
      2202.224        1716.019
 97  4 14 16 30 59.9970000  0  9 31  7 26 27 15 19 18 10  2         -0.002692202
    746742.127 9    589459.84447  22069817.862    22069819.9744   22069826.1164
     -1600.143       -1246.865
 -12287874.393 9  -9211293.37247  22538847.446    22538849.3644   22538858.6344
      4577.863        3567.166
  -4666423.680 9  -3605240.99846  24069892.851    24069894.8994   24069902.1414
      4237.005        3301.562
 -12785397.126 9  -9945443.01148  19537154.542    19537156.5604   19537162.5654
      2009.170        1565.587
   -802278.720 8   -612674.19145  24277519.798    24277520.5454   24277530.1584
      3489.761        2719.294
  -1709039.897 9  -1327544.37148  20448269.757    20448271.9364   20448278.6084
      -417.098        -325.011
   8325257.846 9   6483029.88647  22437752.433    22437754.4184   22437762.5154
     -2531.031       -1972.232
  -2276021.064 9  -1746610.58946  23578978.003    23578979.2694   23578988.0534
      -658.159        -512.851
 -13832689.030 9 -10767037.61649  20712158.544    20712160.2854   20712167.0864
      2191.411        1707.593
 97  4 14 16 31 29.9970000  0  9 31  7 26 27 15 19 18 10  2         -0.002713411
    794957.145 9    627029.97147  22078992.931    22078994.9964   22079001.1174
     -1614.814       -1258.297
 -12425123.233 9  -9318240.46547  22512729.851    22512731.7624   22512741.0704
      4571.246        3562.010
  -4793440.966 9  -3704215.53246  24045722.065    24045724.2824   24045731.5694
      4230.274        3296.317
 -12845532.763 9  -9992301.95548  19525711.081    19525713.1334   19525719.1414
      1999.045        1557.697
   -906911.878 8   -694206.49845  24257608.345    24257609.4264   24257619.1224
      3485.071        2715.640
  -1696372.345 9  -1317673.58748  20450680.486    20450682.5654   20450689.2184
      -428.133        -333.610
   8401291.630 9   6542276.90447  22452221.203    22452223.2654   22452231.2564
     -2538.622       -1978.147
  -2256122.153 9  -1731105.01046  23582764.511    23582765.9124   23582774.7164
      -669.118        -521.391
 -13898310.200 9 -10818170.99749  20699671.219    20699673.0004   20699679.8314
      2182.616        1700.740
 97  4 14 16 31 59.9970000  0  9 31  7 26 27 15 19 18 10  2         -0.002734576
    843617.917 9    664947.42947  22088252.911    22088254.8774   22088261.0534
     -1629.888       -1270.043
 -12562158.198 9  -9425020.88947  22486652.741    22486654.8304   22486664.1434
      4563.806        3556.212
  -4920260.452 9  -3803035.92346  24021588.891    24021591.3844   24021598.5494
      4223.874        3291.330
 -12905346.741 9 -10038910.25248  19514328.907    19514330.9254   19514336.9304
      1987.876        1548.994
  -1011392.901 8   -775620.25045  24237726.085    24237727.3294   24237736.7964
      3479.628        2711.398
  -1683362.280 9  -1307535.91148  20453156.211    20453158.3094   20453165.0134
      -439.715        -342.635
   8477565.887 9   6601711.30747  22466735.855    22466737.8444   22466745.8394
     -2546.743       -1984.475
  -2235878.445 9  -1715330.73546  23586616.748    23586618.2574   23586626.9354
      -681.160        -530.774
 -13963653.450 9 -10869087.81749  20687236.833    20687238.6004   20687245.4234
      2172.889        1693.160
 97  4 14 16 32 29.9970000  0  9 31  7 26 27 15 19 18 10  2         -0.002755667
    892717.179 9    703206.57247  22097596.521    22097598.1664   22097604.3484
     -1643.616       -1280.740
 -12698990.264 9  -9531643.21147  22460614.503    22460616.5294   22460625.7544
      4558.236        3551.872
  -5046893.840 9  -3901711.31246  23997491.385    23997493.9674   23997501.0004
      4218.071        3286.809
 -12964840.272 9 -10085268.85548  19503007.845    19503009.7074   19503015.6924
      1978.093        1541.371
  -1115722.338 8   -856915.84045  24217872.411    24217874.0334   24217883.7334
      3475.353        2708.067
  -1670028.917 9  -1297146.31848  20455693.395    20455695.5964   20455702.3394
      -449.260        -350.073
   8554065.835 9   6661321.56547  22481293.374    22481295.3464   22481303.4404
     -2553.184       -1989.494
  -2215279.859 9  -1699279.96246  23590536.569    23590538.0354   23590546.8454
      -692.166        -539.350
 -14028712.561 9 -10919783.23349  20674856.571    20674858.2964   20674865.1054
      2164.287        1686.457
 97  4 14 16 32 59.9970000  0  9 31  7 26 27 15 19 18 10  2         -0.002776757
    942229.463 9    741787.56147  22107018.508    22107020.0754   22107026.1784
     -1657.429       -1291.503
 -12835652.662 9  -9638133.32447  22434608.647    22434610.4924   22434619.6404
      4552.460        3547.371
  -5173331.779 9  -4000234.40446  23973431.437    23973433.6824   23973440.5924
      4210.904        3281.224
 -13024020.595 9 -10131383.39748  19491746.103    19491748.0624   19491754.0364
      1966.952        1532.690
  -1219909.577 8   -938100.71845  24198046.069    24198047.8424   24198057.0584
      3470.174        2704.032
  -1656403.755 9  -1286529.34548  20458286.219    20458288.4144   20458295.1774
      -459.173        -357.797
   8630749.664 9   6721075.11247  22495885.955    22495887.8664   22495895.9844
     -2559.225       -1994.201
  -2194346.621 9  -1682968.41146  23594520.250    23594521.5104   23594530.2784
      -703.413        -548.114
 -14093503.815 9 -10970269.92749  20662527.267    20662528.9594   20662535.7154
      2155.080        1679.283
 97  4 14 16 33 29.9970000  0  9 31  7 26 27 15 19 18 10  2         -0.002797843
    992148.709 9    780685.66247  22116517.891    22116519.3944   22116525.4574
     -1670.752       -1301.885
 -12972152.641 9  -9744496.87447  22408633.482    22408635.3784   22408644.4504
      4547.146        3543.231
  -5299557.600 9  -4098592.20346  23949411.669    23949413.8194   23949420.6944
      4203.765        3275.661
 -13082866.266 9 -10177237.16348  19480548.150    19480550.1124   19480556.0964
      1955.659        1523.890
  -1323947.912 8  -1019169.47145  24178248.183    24178249.7744   24178259.4374
      3465.325        2700.253
  -1642493.725 9  -1275690.40048  20460933.184    20460935.4774   20460942.2054
      -468.723        -365.239
   8707600.115 9   6780958.48147  22510510.149    22510512.0424   22510520.1704
     -2564.349       -1998.194
  -2173093.075 9  -1666407.29146  23598564.503    23598565.8624   23598574.8664
      -713.714        -556.141
 -14158025.364 9 -11020546.45848  20650249.218    20650250.8824   20650257.6654
      2146.047        1672.244
 97  4 14 16 33 59.9970000  0  9 31  7 26 27 15 19 18 10  2         -0.002818934
   1042458.953 9    819888.43247  22126091.432    22126093.1394   22126099.1944
     -1683.195       -1311.581
 -13108495.377 9  -9850737.89747  22382688.230    22382690.1754   22382699.1974
      4542.735        3539.794
  -5425565.540 9  -4196780.22446  23925432.956    23925435.3004   23925442.1754
      4197.104        3270.471
 -13141373.058 9 -10222826.87748  19469414.727    19469416.6344   19469422.6264
      1945.198        1515.739
  -1427840.208 8  -1100124.48745  24158478.140    24158479.8394   24158489.4064
      3461.191        2697.032
  -1628294.050 9  -1264625.75548  20463635.220    20463637.6284   20463644.3694
      -477.645        -372.191
   8784593.349 9   6840953.11347  22525161.342    22525163.4074   22525171.4524
     -2568.301       -2001.274
  -2151542.653 9  -1649614.80646  23602665.619    23602666.8724   23602675.7404
      -722.587        -563.055
 -14222282.731 9 -11070617.13648  20638021.400    20638023.1194   20638029.8704
      2138.089        1666.043
 97  4 14 16 34 29.9970000  0  9 31  7 26 27 15 19 18 10  2         -0.002840034
   1093158.410 9    859394.47647  22135739.146    22135740.9644   22135747.0524
     -1695.069       -1320.833
 -13244692.534 9  -9956865.48647  22356770.733    22356772.7264   22356781.6634
      4538.830        3536.751
  -5551354.893 9  -4294797.90746  23901495.692    23901498.4464   23901505.3624
      4190.692        3265.474
 -13199555.810 9 -10268164.08948  19458342.820    19458344.8164   19458350.8254
      1935.451        1508.144
  -1531594.460 8  -1180971.92345  24138734.431    24138736.2724   24138745.6674
      3457.552        2694.196
  -1613816.531 9  -1253344.61048  20466390.239    20466392.6594   20466399.4174
      -485.855        -378.588
   8861712.632 9   6901045.97047  22539836.781    22539838.8254   22539846.8014
     -2571.099       -2003.454
  -2129726.863 9  -1632615.54946  23606817.114    23606818.3694   23606827.2044
      -729.876        -568.735
 -14286299.656 9 -11120500.45348  20625839.318    20625841.0934   20625847.8424
      2131.668        1661.040
 97  4 14 16 34 59.9970000  0  9 31  7 26 27 15 19 18 10  2         -0.002861141
   1144251.496 9    899207.25947  22145461.923    22145463.6424   22145469.7514
     -1708.629       -1331.399
 -13380734.247 9 -10062871.94347  22330882.767    22330884.7784   22330893.7104
      4533.168        3532.339
  -5676921.971 9  -4392642.38946  23877600.872    23877603.8094   23877610.9124
      4183.240        3259.668
 -13257405.216 9 -10313241.55048  19447334.441    19447336.4404   19447342.4554
      1923.856        1499.109
  -1635205.742 8  -1261707.98945  24119017.644    24119019.5624   24119028.8414
      3452.514        2690.271
  -1599049.728 9  -1241838.05148  20469200.452    20469202.7464   20469209.4964
      -495.992        -386.487
   8938948.218 9   6961229.45247  22554534.361    22554536.3534   22554544.3904
     -2575.472       -2006.861
  -2107664.353 9  -1615424.05846  23611015.451    23611016.7024   23611025.5694
      -738.258        -575.266
 -14350097.858 9 -11170213.34448  20613699.017    20613700.7094   20613707.4084
      2124.259        1655.267
 97  4 14 16 35 29.9970000  0  9 31  7 26 27 15 19 18 10  2         -0.002882235
   1195772.344 9    939353.35547  22155265.913    22155267.7474   22155273.8674
     -1724.581       -1343.829
 -13516599.754 9 -10168741.10347  22305028.446    22305030.4424   22305039.2624
      4526.104        3526.834
  -5802263.151 9  -4490310.83646  23853749.198    23853752.1034   23853759.4784
      4174.403        3252.782
 -13314907.584 9 -10358048.58948  19436392.134    19436394.1374   19436400.1424
      1911.291        1489.318
  -1738653.160 8  -1342316.29645  24099332.391    24099334.2584   24099343.7444
      3445.530        2684.829
  -1583966.430 9  -1230084.86748  20472070.714    20472073.0524   20472079.8064
      -508.023        -395.862
   9016331.730 9   7021528.20046  22569260.038    22569262.0594   22569270.1214
     -2581.790       -2011.784
  -2085337.073 9  -1598026.22446  23615264.289    23615265.4684   23615274.2634
      -748.777        -583.462
 -14413665.712 9 -11219746.73248  20601602.467    20601604.1244   20601610.8264
      2115.070        1648.106
 97  4 14 16 35 59.9970000  0  9 31  7 26 27 15 19 18 10  2         -0.002903304
   1247739.663 9    979847.35047  22165154.864    22165156.7924   22165162.9524
     -1739.335       -1355.326
 -13652288.775 9 -10274472.75447  22279207.692    22279209.6534   22279218.3994
      4520.427        3522.411
  -5927374.365 9  -4587800.11346  23829941.260    23829944.1984   23829951.5234
      4166.969        3246.989
 -13372070.591 9 -10402591.19348  19425514.389    19425516.3744   19425522.4354
      1900.235        1480.703
  -1841928.028 8  -1422790.23845  24079679.877    24079681.6094   24079690.6124
      3439.879        2680.425
  -1568562.512 9  -1218081.85348  20475001.951    20475004.3654   20475011.1064
      -518.169        -403.768
   9093869.769 9   7081947.35246  22584015.052    22584017.1484   22584025.1634
     -2586.893       -2015.761
  -2062730.329 9  -1580410.63746  23619566.489    23619567.5654   23619576.3194
      -757.882        -590.557
 -14476990.846 9 -11269090.99348  20589552.089    20589553.7654   20589560.4544
      2107.151        1641.936
 97  4 14 16 36 29.9970000  0  9 31  7 26 27 15 19 18 10  2         -0.002924356
   1300141.243 9   1020679.72647  22175126.594    22175128.5134   22175134.6554
     -1753.791       -1366.590
 -13787811.547 9 -10380074.84747  22253418.331    22253420.4804   22253429.2334
      4514.646        3517.906
  -6052262.503 9  -4685115.55246  23806175.930    23806178.7694   23806185.9514
      4159.021        3240.796
 -13428904.151 9 -10446877.08848  19414699.318    19414701.3124   19414707.3954
      1888.857        1471.837
  -1945033.686 8  -1503132.28245  24060059.735    24060061.5334   24060070.6284
      3433.978        2675.827
  -1552862.081 9  -1205847.78948  20477989.812    20477992.1074   20477998.8324
      -528.365        -411.713
   9171552.487 9   7142479.25346  22598797.891    22598799.8004   22598807.7964
     -2591.731       -2019.531
  -2039847.204 9  -1562579.69646  23623921.138    23623922.2264   23623930.9724
      -767.463        -598.023
 -14540076.393 9 -11318248.55948  20577547.436    20577549.0124   20577555.6494
      2098.688        1635.341
 97  4 14 16 36 59.9970000  0  9 31  7 26 27 15 19 18 10  2         -0.002945374
   1352993.421 9   1061863.21947  22185184.192    22185186.0004   22185192.1874
     -1769.008       -1378.448
 -13923144.584 9 -10485529.10447  22227665.197    22227667.3594   22227676.1434
      4508.192        3512.877
  -6176890.536 9  -4782228.31346  23782460.460    23782462.8654   23782469.9094
      4150.046        3233.802
 -13485376.190 9 -10490881.28148  19403953.157    19403955.0314   19403961.1214
      1876.621        1462.302
  -2047937.209 8  -1583316.79945  24040477.409    24040479.3444   24040488.4674
      3426.963        2670.361
  -1536836.339 9  -1193360.23948  20481039.648    20481041.7084   20481048.4494
      -539.370        -420.288
   9249407.127 9   7203145.11246  22613613.348    22613615.1164   22613623.1134
     -2598.146       -2024.529
  -2016654.912 9  -1544507.83946  23628334.399    23628335.5544   23628344.4274
      -778.023        -606.252
 -14602878.137 9 -11367184.98648  20565596.596    20565598.2044   20565604.8574
      2088.607        1627.486
 97  4 14 16 37 29.9970000  0  9 31  7 26 27 15 19 18 10  2         -0.002966367
   1406270.839 9   1103378.06047  22195322.848    22195324.3594   22195330.5744
     -1781.768       -1388.391
 -14058303.971 9 -10590848.05247  22201945.090    22201947.3484   22201956.0844
      4503.429        3509.165
  -6301262.730 9  -4879141.71546  23758793.111    23758795.6654   23758802.6344
      4142.395        3227.840
 -13541511.512 9 -10534623.09148  19393270.920    19393272.7724   19393278.9214
      1866.743        1454.605
  -2150652.112 8  -1663354.30545  24020931.314    24020933.3234   24020942.8834
      3421.763        2666.309
  -1520497.137 9  -1180628.43148  20484148.881    20484150.9714   20484157.7184
      -548.843        -427.670
   9327432.456 9   7263943.97346  22628461.204    22628462.9754   22628470.9114
     -2602.417       -2027.857
  -1993160.060 9  -1526200.21946  23632805.179    23632806.5194   23632815.4194
      -787.233        -613.428
 -14665389.128 9 -11415894.84948  20553701.149    20553702.7114   20553709.4344
      2079.745        1620.581
 97  4 14 16 37 59.9970000  0  9 31  7 26 27 15 19 18 10  2         -0.002987344
   1459945.897 9   1145202.75547  22205537.081    22205538.3864   22205544.5884
     -1796.286       -1399.703
 -14193285.438 9 -10696028.36947  22176259.144    22176261.2384   22176269.9324
      4495.541        3503.019
  -6425376.297 9  -4975853.58746  23735175.027    23735177.6524   23735184.6024
      4132.061        3219.788
 -13597316.057 9 -10578107.16248  19382651.460    19382653.5364   19382659.6534
      1853.789        1444.511
  -2253183.329 8  -1743248.76245  24001420.487    24001422.3614   24001431.5724
      3413.923        2660.200
  -1503849.961 9  -1167656.64048  20487316.607    20487318.8294   20487325.6244
      -560.775        -436.968
   9405608.884 9   7324860.58146  22643337.984    22643339.5984   22643347.4444
     -2609.262       -2033.191
  -1969378.701 9  -1507669.35446  23637330.740    23637331.9674   23637340.9124
      -797.953        -621.782
 -14727611.226 9 -11464379.60448  20541860.649    20541862.2144   20541868.9424
      2068.696        1611.971
 97  4 14 16 38 29.9970000  0  9 31  7 26 27 15 19 18 10  2         -0.003008300
   1514016.797 9   1187335.88847  22215826.466    22215827.6934   22215833.9664
     -1807.843       -1408.709
 -14328072.407 9 -10801057.12547  22150610.122    22150612.0844   22150620.8314
      4490.935        3499.430
  -6549211.656 9  -5072348.67746  23711610.363    23711612.5884   23711619.5904
      4124.407        3213.824
 -13652773.385 9 -10621320.67048  19372098.423    19372100.3894   19372106.4814
      1844.021        1436.899
  -2355518.521 8  -1822990.42345  23981946.722    23981948.4854   23981958.1714
      3409.195        2656.515
  -1486872.305 9  -1154427.33648  20490547.438    20490549.5844   20490556.3954
      -570.409        -444.475
   9483947.878 9   7385903.86146  22658245.610    22658247.0904   22658254.8774
     -2612.685       -2035.858
  -1945310.805 9  -1488915.19446  23641910.514    23641911.9114   23641920.7854
      -805.786        -627.885
 -14789547.938 9 -11512641.97348  20530074.496    20530076.0524   20530082.7794
      2061.202        1606.131
 97  4 14 16 38 59.9960000  0  9 31  7 26 27 15 19 18 10  2         -0.003029236
   1568467.188 9   1229764.74847  22226187.759    22226189.2374   22226195.4834
     -1822.577       -1420.190
 -14462671.797 9 -10905939.71547  22124996.886    22124998.6064   22125007.3394
      4482.348        3492.739
  -6672774.900 9  -5168631.72346  23688097.102    23688099.3404   23688106.3014
      4113.210        3205.099
 -13707896.554 9 -10664273.79448  19361608.814    19361610.7844   19361616.8574
      1830.702        1426.521
  -2457666.584 8  -1902586.32145  23962508.696    23962510.4044   23962519.6504
      3400.604        2649.821
  -1469558.495 9  -1140936.09048  20493842.210    20493844.3324   20493851.1454
      -584.202        -455.222
   9562439.946 9   7447066.41346  22673181.844    22673183.6884   22673191.6094
     -2620.473       -2041.927
  -1920969.227 9  -1469947.78546  23646542.895    23646544.0314   23646552.9794
      -817.272        -636.835
 -14851222.112 9 -11560699.77348  20518338.223    20518339.8554   20518346.5614
      2050.296        1597.633
 97  4 14 16 39 29.9960000  0  9 31  7 26 27 15 19 18 10  2         -0.003050148
   1623300.139 9   1272491.68747  22236621.924    22236623.6454   22236629.8294
     -1832.885       -1428.222
 -14597070.842 9 -11010666.20947  22099421.655    22099423.3574   22099431.9914
      4477.853        3489.236
  -6796066.205 9  -5264702.86346  23664635.822    23664637.7594   23664644.7974
      4106.617        3199.961
 -13762682.634 9 -10706964.25148  19351183.416    19351185.3374   19351191.4134
      1821.808        1419.591
  -2559619.814 8  -1982030.35945  23943107.316    23943109.1744   23943118.6514
      3396.461        2646.593
  -1451885.360 9  -1127164.85248  20497205.146    20497207.4254   20497214.2784
      -593.651        -462.585
   9641098.216 9   7508358.47646  22688150.111    22688151.8914   22688159.9004
     -2622.938       -2043.848
  -1896344.783 9  -1450759.98146  23651228.546    23651229.9304   23651238.9494
      -823.894        -641.995
 -14912629.648 9 -11608549.80248  20506652.775    20506654.3924   20506661.1024
      2043.941        1592.681
 97  4 14 16 39 59.9960000  0  9 31  7 26 27 15 19 18 10  2         -0.003071056
   1678496.800 9   1315502.04247  22247125.334    22247127.2474   22247133.5034
     -1845.568       -1438.105
 -14731284.300 9 -11115248.09147  22073881.440    22073883.3634   22073891.9664
      4471.098        3483.972
  -6919118.668 9  -5360587.89946  23641219.471    23641221.6464   23641228.7254
      4098.349        3193.519
 -13817145.255 9 -10749402.66648  19340819.663    19340821.4464   19340827.5404
      1810.498        1410.778
  -2661395.214 8  -2061335.84045  23923740.315    23923741.9984   23923751.3504
      3390.025        2641.578
  -1433884.433 9  -1113138.19148  20500630.590    20500632.9144   20500639.8074
      -604.906        -471.355
   9719876.452 9   7569744.01246  22703141.269    22703142.9494   22703151.1124
     -2627.558       -2047.448
  -1871484.087 9  -1431388.05446  23655959.707    23655960.8584   23655969.7214
      -832.150        -648.428
 -14973805.171 9 -11656219.04148  20495011.402    20495013.0664   20495019.8274
      2035.810        1586.345
 97  4 14 16 40 29.9960000  0  9 31  7 26 27 15 19 18 10  2         -0.003091919
   1734114.678 9   1358840.61647  22257709.158    22257710.9784   22257717.2954
     -1861.342       -1450.396
 -14865257.485 9 -11219642.74147  22048387.289    22048389.0864   22048397.6154
      4461.354        3476.380
  -7041885.768 9  -5456250.57346  23617857.535    23617859.9294   23617866.9744
      4087.194        3184.826
 -13871238.727 9 -10791553.43048  19330525.961    19330527.8004   19330533.9324
      1796.664        1399.998
  -2762935.859 8  -2140458.36245  23904417.618    23904419.3834   23904428.7414
      3380.342        2634.033
  -1415503.081 9  -1098815.09248  20504128.541    20504130.8314   20504137.7294
      -619.237        -482.522
   9798832.124 9   7631267.82046  22718166.026    22718167.7374   22718175.9924
     -2634.970       -2053.223
  -1846327.772 9  -1411785.77646  23660746.728    23660747.9574   23660756.8174
      -843.847        -657.543
 -15034694.836 9 -11703665.52648  20483424.494    20483426.1374   20483432.9124
      2024.474        1577.512
 97  4 14 16 40 59.9960000  0  9 31  7 26 27 15 19 18 10  2         -0.003112775
   1790102.779 9   1402467.70447  22268363.461    22268365.2284   22268371.4084
     -1872.632       -1459.194
 -14999023.580 9 -11323876.02247  22022932.425    22022934.2254   22022942.7384
      4455.155        3471.549
  -7164416.702 9  -5551729.22346  23594540.419    23594543.0654   23594549.9924
      4080.282        3179.441
 -13925002.306 9 -10833447.13348  19320295.211    19320296.9424   19320303.0814
      1786.182        1391.830
  -2864284.868 8  -2219431.56145  23885131.660    23885133.1484   23885142.8044
      3374.821        2629.731
  -1396798.281 9  -1084239.95748  20507688.054    20507690.2954   20507697.1774
      -628.832        -489.999
   9877910.559 9   7692887.28046  22733214.077    22733215.9844   22733224.2044
     -2638.047       -2055.621
  -1820925.671 9  -1391992.02546  23665580.733    23665581.8784   23665590.8724
      -850.841        -662.993
 -15095334.866 9 -11750917.49548  20471885.006    20471886.7244   20471893.4774
      2016.924        1571.629
 97  4 14 16 41 29.9960000  0  9 31  7 26 27 15 19 18 10  2         -0.003133610
   1846496.593 9   1446410.88847  22279094.801    22279096.6264   22279102.9314
     -1886.611       -1470.086
 -15132550.364 9 -11427922.83747  21997523.035    21997524.9024   21997533.4234
      4447.073        3465.252
  -7286682.628 9  -5647001.37746  23571274.084    23571276.7164   23571283.6304
      4071.241        3172.396
 -13978389.909 9 -10875047.87148  19310135.956    19310137.6144   19310143.7854
      1773.426        1381.890
  -2965413.885 8  -2298233.34846  23865887.221    23865888.8054   23865898.4204
      3367.486        2624.015
  -1377764.491 9  -1069408.46648  20511310.082    20511312.3734   20511319.2374
      -639.599        -498.389
   9957120.232 9   7754609.01646  22748287.263    22748289.1714   22748297.3854
     -2642.109       -2058.786
  -1795266.046 9  -1371997.57746  23670463.532    23670464.8274   23670473.7664
      -859.347        -669.621
 -15155697.276 9 -11797953.13648  20460398.450    20460400.1244   20460406.8864
      2007.892        1564.591
 97  4 14 16 41 59.9960000  0  9 31  7 26 27 15 19 18 10  2         -0.003154408
   1903321.215 9   1490689.78147  22289908.186    22289909.9904   22289916.4224
     -1899.950       -1480.481
 -15265814.189 9 -11531764.74247  21972163.789    21972165.6384   21972174.1234
      4438.854        3458.847
  -7408659.069 9  -5742047.94046  23548062.656    23548065.4014   23548072.3564
      4062.051        3165.235
 -14031376.890 9 -10916336.44248  19300052.836    19300054.5264   19300060.7044
      1760.730        1371.997
  -3066305.137 8  -2376849.83746  23846688.236    23846689.8264   23846699.5064
      3360.238        2618.367
  -1358392.104 9  -1054313.13448  20514996.404    20514998.8644   20515005.7244
      -650.316        -506.740
  10036478.138 9   7816446.24346  22763388.585    22763390.5134   22763398.7134
     -2646.888       -2062.510
  -1769327.198 9  -1351785.54946  23675399.837    23675400.9274   23675409.7814
      -868.351        -676.637
 -15215777.810 9 -11844769.13548  20448965.536    20448967.1964   20448973.8984
      1999.151        1557.780
 97  4 14 16 42 29.9960000  0  9 31  7 26 27 15 19 18 10  2         -0.003175168
   1960555.201 9   1535287.65447  22300799.574    22300801.3214   22300807.8064
     -1914.974       -1492.188
 -15398816.965 9 -11635403.23747  21946854.033    21946856.0564   21946864.4884
      4428.848        3451.050
  -7530336.522 9  -5836861.53446  23524908.431    23524911.0154   23524917.9614
      4050.629        3156.334
 -14083970.910 9 -10957318.80248  19290044.448    19290046.2434   19290052.4174
      1746.104        1360.601
  -3166962.365 8  -2455283.97746  23827533.641    23827535.3434   23827545.1234
      3351.144        2611.281
  -1338682.149 9  -1038954.76148  20518747.235    20518749.5974   20518756.4734
      -662.850        -516.506
  10115991.939 9   7878404.95246  22778519.594    22778521.4704   22778529.7184
     -2653.067       -2067.325
  -1743101.313 9  -1331349.85146  23680390.472    23680391.4524   23680400.4624
      -879.054        -684.977
 -15275586.716 9 -11891373.47048  20437584.276    20437585.9424   20437592.6814
      1988.972        1549.848
 97  4 14 16 42 59.9960000  0  9 31  7 26 27 15 19 18 10  2         -0.003195906
   2018187.540 9   1580195.93847  22311766.709    22311768.4214   22311774.9524
     -1926.169       -1500.911
 -15531572.824 9 -11738849.32647  21921591.469    21921593.4324   21921601.8444
      4422.681        3446.245
  -7651731.128 9  -5931454.73546  23501807.896    23501810.4614   23501817.3824
      4043.453        3150.743
 -14136165.628 9 -10997990.02148  19280112.035    19280113.9564   19280120.1264
      1734.713        1351.724
  -3267396.564 8  -2533544.33346  23808421.599    23808423.4614   23808433.1584
      3345.533        2606.909
  -1318653.188 9  -1023347.81248  20522558.598    20522561.0194   20522567.9144
      -671.452        -523.209
  10195635.507 9   7940464.78246  22793675.386    22793677.2054   22793685.5224
     -2655.474       -2069.200
  -1716619.539 9  -1310714.76146  23685429.659    23685430.7834   23685439.8214
      -885.499        -689.999
 -15335147.755 9 -11937784.66649  20426250.292    20426251.9094   20426258.6214
      1982.852        1545.079
 97  4 14 16 43 29.9960000  0  9 31  7 26 27 15 19 18 10  2         -0.003216652
   2076163.646 9   1625372.08447  22322799.108    22322800.9504   22322807.5024
     -1938.825       -1510.773
 -15664142.400 9 -11842150.26147  21896364.113    21896366.2404   21896374.5864
      4415.203        3440.418
  -7772902.977 9  -6025874.34346  23478749.940    23478752.1444   23478759.0414
      4034.652        3143.885
 -14188023.413 9 -11038398.69348  19270243.953    19270245.7794   19270251.9124
      1722.551        1342.248
  -3367658.022 8  -2611670.08546  23789342.473    23789344.3604   23789353.8784
      3338.445        2601.386
  -1298352.839 9  -1007529.39748  20526421.784    20526424.0734   20526431.0084
      -682.071        -531.484
  10275354.455 9   8002583.34746  22808845.380    22808847.2884   22808855.6394
     -2659.256       -2072.148
  -1689928.913 9  -1289916.92946  23690508.962    23690509.9844   23690519.0394
      -893.997        -696.621
 -15394521.355 9 -11984049.80749  20414951.869    20414953.5234   20414960.2394
      1975.330        1539.218
 97  4 14 16 43 59.9960000  0  9 31  7 26 27 15 19 18 10  2         -0.003237413
   2134460.780 9   1670798.37647  22333892.982    22333894.5664   22333901.2134
     -1948.049       -1517.960
 -15796536.352 9 -11945314.34147  21871170.414    21871172.5344   21871180.8744
      4410.640        3436.862
  -7893865.712 9  -6120131.02946  23455731.362    23455733.6484   23455740.4774
      4028.945        3139.438
 -14239563.443 9 -11078559.76748  19260436.321    19260438.0854   19260444.1864
      1712.957        1334.772
  -3467748.539 8  -2689662.65446  23770295.908    23770297.7284   23770307.2764
      3333.667        2597.662
  -1277778.445 9   -991497.44148  20530337.028    20530339.3004   20530346.2254
      -689.838        -537.536
  10355150.034 9   8064761.61646  22824030.096    22824031.9004   22824040.3134
     -2660.772       -2073.329
  -1663031.553 9  -1268958.02346  23695627.174    23695628.4464   23695637.5224
      -899.661        -701.034
 -15453709.193 9 -12030170.20049  20403688.818    20403690.4234   20403697.2374
      1969.972        1535.043
 97  4 14 16 44 29.9960000  0  9 31  7 26 27 15 19 18 10  2         -0.003258186
   2193087.388 9   1716481.40847  22345049.065    22345050.8014   22345057.4904
     -1960.122       -1527.368
 -15928744.567 9 -12048333.69647  21846012.011    21846014.1694   21846022.4314
      4403.599        3431.376
  -8014601.516 9  -6214210.87846  23432756.051    23432758.4494   23432765.2024
      4020.331        3132.725
 -14290760.520 9 -11118453.60648  19250693.948    19250695.6634   19250701.7214
      1700.438        1325.017
  -3567644.523 8  -2767503.59746  23751286.341    23751288.0854   23751297.6254
      3326.242        2591.877
  -1256926.411 9   -975249.14348  20534305.136    20534307.3694   20534314.2654
      -699.955        -545.419
  10435028.988 9   8127004.85446  22839230.648    22839232.4804   22839240.8594
     -2664.238       -2076.030
  -1635917.942 9  -1247830.59646  23700786.572    23700787.9384   23700797.0204
      -907.586        -707.210
 -15512685.794 9 -12076125.99348  20392465.896    20392467.5294   20392474.3564
      1962.034        1528.858
 97  4 14 16 44 59.9960000  0  9 31  7 26 27 15 19 18 10  2         -0.003278972
   2252039.076 9   1762417.73747  22356267.417    22356268.9674   22356275.7424
     -1970.481       -1535.440
 -16060777.337 9 -12151216.33447  21820886.972    21820889.1084   21820897.3834
      4397.949        3426.973
  -8135103.253 9  -6308108.34246  23409825.045    23409827.7344   23409834.3974
      4012.399        3126.545
 -14341613.993 9 -11158079.69748  19241016.919    19241018.6094   19241024.6554
      1689.445        1316.451
  -3667343.827 8  -2845191.30746  23732313.961    23732315.9674   23732325.4724
      3319.840        2586.888
  -1235798.860 9   -958786.15448  20538325.697    20538327.8774   20538334.7884
      -709.077        -552.528
  10514989.515 9   8189311.66046  22854446.824    22854448.4954   22854456.8754
     -2667.153       -2078.301
  -1608592.903 9  -1226538.44546  23705986.621    23705987.7944   23705997.0114
      -914.752        -712.794
 -15571447.803 9 -12121914.57148  20381283.860    20381285.4764   20381292.2344
      1954.894        1523.294
 97  4 14 16 45 29.9960000  0  9 31  7 26 27 15 19 18 10  2         -0.003299770
   2311294.834 9   1808591.00247  22367543.375    22367544.9934   22367551.7814
     -1979.826       -1542.722
 -16192638.202 9 -12253965.00847  21795794.707    21795796.7834   21795805.1244
      4392.825        3422.981
  -8255357.089 9  -6401812.63646  23386941.485    23386944.1724   23386950.7424
      4004.609        3120.475
 -14392145.136 9 -11197454.62548  19231401.220    19231402.9044   19231408.9044
      1679.397        1308.621
  -3766849.221 9  -2922727.90346  23713378.621    23713380.7264   23713390.1344
      3314.077        2582.398
  -1214400.265 9   -942111.96048  20542397.771    20542399.9484   20542406.8614
      -717.249        -558.895
  10595035.730 9   8251685.22946  22869678.975    22869680.8054   22869689.3054
     -2669.191       -2079.889
  -1581055.673 9  -1205080.92746  23711226.850    23711228.0694   23711237.3914
      -920.785        -717.495
 -15629994.897 9 -12167535.68248  20370142.780    20370144.3324   20370151.0414
      1948.413        1518.244
 97  4 14 16 45 59.9960000  0  9 31  7 26 27 15 19 18 10  2         -0.003320595
   2370819.709 9   1854973.99847  22378870.900    22378872.2734   22378878.9604
     -1989.229       -1550.049
 -16324347.469 9 -12356595.57947  21770731.231    21770733.3144   21770741.6514
      4387.077        3418.502
  -8375381.641 9  -6495338.25846  23364101.832    23364104.2834   23364110.8594
      3996.250        3113.961
 -14442380.485 9 -11236599.06148  19221841.714    19221843.4824   19221849.4624
      1668.938        1300.471
  -3866188.922 8  -3000135.38546  23694474.834    23694476.9824   23694486.2834
      3307.819        2577.521
  -1192768.593 9   -925256.15048  20546514.186    20546516.3624   20546523.2694
      -725.484        -565.312
  10675141.109 9   8314104.89246  22884922.529    22884924.4384   22884932.9434
     -2671.646       -2081.802
  -1553351.073 8  -1183492.98646  23716499.113    23716500.0284   23716509.4524
      -926.753        -722.145
 -15688356.868 9 -12213012.53748  20359036.735    20359038.3994   20359045.1474
      1941.692        1513.007
 97  4 14 16 46 29.9960000  0  9 31  7 26 27 15 19 18 10  2         -0.003341394
   2430695.288 9   1901630.24147  22390264.802    22390266.2294   22390272.9144
     -2001.595       -1559.684
 -16455824.509 9 -12459045.18247  21745711.971    21745714.0424   21745722.3884
      4378.987        3412.198
  -8495084.603 9  -6588613.27746  23341323.300    23341325.5084   23341332.3664
      3985.090        3105.265
 -14492249.048 9 -11275457.69448  19212352.104    19212353.8474   19212359.8104
      1656.607        1290.862
  -3965283.945 8  -3077352.17246  23675617.585    23675619.6614   23675629.0634
      3299.435        2570.988
  -1170825.178 9   -908157.42348  20550689.842    20550692.0604   20550698.9494
      -736.524        -573.915
  10755380.511 9   8376628.99146  22900191.817    22900193.6244   22900202.0594
     -2676.630       -2085.686
  -1525414.301 9  -1161724.13746  23721815.138    23721816.3134   23721825.5134
      -934.676        -728.319
 -15746461.790 9 -12258289.09348  20347979.786    20347981.4344   20347988.2124
      1932.932        1506.181
 97  4 14 16 46 59.9960000  0  9 31  7 26 27 15 19 18 10  2         -0.003362180
   2490902.788 9   1948545.14047  22401722.095    22401723.4074   22401730.0394
     -2013.502       -1568.963
 -16587094.948 9 -12561333.78847  21720731.968    21720734.0704   21720742.3974
      4371.018        3405.988
  -8614497.364 9  -6681662.18046  23318599.659    23318601.9744   23318609.0484
      3974.765        3097.219
 -14541790.318 9 -11314061.29548  19202924.873    19202926.4704   19202932.4104
      1644.891        1281.733
  -4064163.909 8  -3154401.38846  23656801.240    23656803.3754   23656812.7224
      3291.350        2564.688
  -1148586.908 9   -890828.94448  20554921.661    20554923.8814   20554930.7814
      -747.243        -582.267
  10835722.068 9   8439232.70446  22915480.324    22915482.2544   22915490.6724
     -2680.609       -2088.786
  -1497282.396 9  -1139803.23546  23727168.570    23727169.7134   23727178.6594
      -942.089        -734.095
 -15804338.617 9 -12303387.91948  20336966.210    20336967.8434   20336974.6254
      1924.281        1499.440
 97  4 14 16 47 29.9960000  0  9 31  7 26 27 15 19 18 10  2         -0.003382943
   2551471.124 9   1995741.21847  22413247.868    22413249.2324   22413255.8004
     -2025.421       -1578.250
 -16718125.330 9 -12663435.34647  21695797.692    21695799.7344   21695808.0724
      4363.295        3399.970
  -8733615.842 9  -6774481.77546  23295931.950    23295934.5074   23295941.5194
      3965.461        3089.970
 -14590977.677 9 -11352389.11248  19193564.828    19193566.4024   19193572.3834
      1633.019        1272.482
  -4162802.363 9  -3231262.39946  23638031.124    23638032.9974   23638042.4764
      3283.397        2558.491
  -1126032.798 9   -873254.34848  20559213.493    20559215.7894   20559222.7064
      -757.557        -590.304
  10916171.218 9   8501920.24546  22930789.408    22930791.3024   22930799.7534
     -2683.679       -2091.178
  -1468933.380 9  -1117713.15746  23732563.413    23732564.4054   23732573.3764
      -948.993        -739.475
 -15861960.034 9 -12348287.71248  20326001.264    20326002.8484   20326009.5894
      1915.969        1492.963
 97  4 14 16 47 59.9960000  0  9 31  7 26 27 15 19 18 10  2         -0.003403638
   2612393.141 9   2043212.89447  22424841.170    22424842.3724   22424848.8344
     -2036.371       -1586.783
 -16848928.471 9 -12765359.82147  21670906.566    21670908.6844   21670916.9764
      4356.774        3394.889
  -8852452.687 9  -6867081.91146  23273318.369    23273320.7054   23273327.4564
      3956.843        3083.254
 -14639806.953 9 -11390437.90948  19184272.780    19184274.4534   19184280.5004
      1621.985        1263.884
  -4261199.743 8  -3307935.58446  23619306.662    23619308.5304   23619317.9404
      3276.126        2552.825
  -1103155.248 9   -855427.73148  20563566.970    20563569.2774   20563576.1854
      -767.857        -598.330
  10996711.670 9   8564678.92746  22946115.972    22946117.7144   22946126.2364
     -2685.760       -2092.800
  -1440368.893 9  -1095455.20346  23737999.078    23738000.1244   23738009.2154
      -955.413        -744.478
 -15919326.143 9 -12392988.57348  20315084.779    20315086.3854   20315093.1834
      1908.234        1486.936
 97  4 14 16 48 29.9960000  0  9 31  7 26 27 15 19 18 10  2         -0.003424364
   2673673.760 9   2090963.99547  22436502.182    22436503.7214   22436510.0074
     -2050.189       -1597.550
 -16979502.780 9 -12867105.99047  21646059.218    21646061.2234   21646069.4934
      4347.083        3387.337
  -8971002.530 9  -6959458.42146  23250759.028    23250761.4814   23250768.0474
      3945.423        3074.356
 -14688266.891 9 -11428198.90848  19175051.173    19175052.8104   19175058.8924
      1607.478        1252.580
  -4359343.326 8  -3384411.02146  23600630.696    23600632.4324   23600641.8784
      3265.603        2544.626
  -1079931.902 9   -837331.65748  20567986.153    20567988.5334   20567995.4694
      -781.537        -608.990
  11077335.476 9   8627502.56446  22961458.273    22961460.0484   22961468.5594
     -2690.280       -2096.322
  -1411577.805 9  -1073020.65646  23743477.936    23743478.9174   23743488.0614
      -965.102        -752.028
 -15976427.807 9 -12437483.36548  20304218.648    20304220.2854   20304227.0844
      1897.441        1478.525
 97  4 14 16 48 59.9960000  0  9 31  7 26 27 15 19 18 10  2         -0.003445055
   2735346.075 9   2139020.30547  22448238.094    22448239.5664   22448245.9814
     -2062.684       -1607.286
 -17109791.631 9 -12968629.73747  21621266.009    21621268.0784   21621276.3084
      4337.497        3379.868
  -9089223.062 9  -7051578.30746  23228262.567    23228264.7494   23228271.3364
      3934.484        3065.832
 -14736299.120 9 -11465626.63648  19165911.009    19165912.6034   19165918.6874
      1593.226        1241.475
  -4457180.740 8  -3460647.87246  23582012.601    23582014.4624   23582023.8374
      3255.382        2536.661
  -1056304.413 9   -818920.67348  20572482.415    20572484.7324   20572491.6764
      -795.004        -619.484
  11158082.486 9   8690422.20046  22976824.120    22976825.6384   22976834.3384
     -2694.424       -2099.551
  -1382500.929 9  -1050363.39846  23749010.961    23749012.0744   23749021.3354
      -974.740        -759.538
 -16033209.166 9 -12481728.57949  20293413.515    20293415.1484   20293421.9864
      1886.664        1470.128
 97  4 14 16 49 29.9960000  0  9 31  7 26 27 15 19 18 10  2         -0.003465751
   2797331.135 9   2187320.32247  22460032.936    22460034.9434   22460041.4014
     -2068.819       -1612.067
 -17239850.299 9 -13069974.11547  21596516.481    21596518.6794   21596526.9094
      4333.844        3377.021
  -9207168.632 9  -7143483.94146  23205818.076    23205820.3794   23205826.9864
      3929.349        3061.830
 -14783955.960 9 -11502761.84848  19156842.153    19156843.8094   19156849.9234
      1584.798        1234.908
  -4554766.254 8  -3536688.46146  23563442.831    23563444.3494   23563453.7824
      3251.149        2533.363
  -1032328.887 9   -800238.48948  20577044.808    20577047.1514   20577054.0464
      -802.522        -625.342
  11238904.697 9   8753400.41846  22992204.167    22992205.7404   22992214.3124
     -2692.830       -2098.309
  -1353193.277 9  -1027526.33146  23754588.187    23754589.2734   23754598.3664
      -978.157        -762.200
 -16089730.265 9 -12525770.98849  20282657.895    20282659.5414   20282666.4394
      1882.290        1466.719
 97  4 14 16 49 59.9960000  0  9 31  7 26 27 15 19 18 10  2         -0.003486506
   2859527.308 9   2235784.83447  22471868.467    22471870.4984   22471877.0004
     -2078.958       -1619.967
 -17369765.111 9 -13171206.38947  21571794.485    21571796.7104   21571804.9044
      4325.840        3370.784
  -9324923.599 9  -7235241.05246  23183409.984    23183412.3314   23183419.0244
      3919.838        3054.419
 -14831340.343 9 -11539684.74848  19147825.168    19147826.8714   19147833.0164
      1572.872        1225.615
  -4652193.489 8  -3612605.70446  23544902.981    23544904.5364   23544914.0184
      3242.883        2526.922
  -1008096.812 9   -781356.38948  20581655.954    20581658.3684   20581665.2374
      -813.834        -634.156
  11319702.029 9   8816359.26646  23007579.718    23007581.1134   23007589.6134
     -2694.894       -2099.917
  -1323754.174 9  -1004586.84046  23760190.696    23760191.4454   23760200.5544
      -985.381        -767.829
 -16146094.826 9 -12569691.41449  20271932.056    20271933.7534   20271940.6374
      1874.373        1460.550
 97  4 14 16 50 29.9960000  0  9 31  7 26 27 15 19 18 10  2         -0.003507251
   2922035.749 9   2284492.65147  22483763.479    22483765.4184   22483772.0174
     -2085.722       -1625.238
 -17499424.758 9 -13272239.85147  21547120.952    21547123.2624   21547131.4494
      4320.689        3366.771
  -9442384.688 9  -7326769.16646  23161057.766    23161060.1824   23161066.9834
      3913.398        3049.401
 -14878354.981 9 -11576319.54848  19138878.592    19138880.2914   19138886.4514
      1563.988        1218.692
  -4749367.079 8  -3688325.32346  23526411.402    23526412.8764   23526422.4344
      3237.923        2523.057
   -983537.110 9   -762219.00548  20586329.546    20586331.9604   20586338.7914
      -820.738        -639.536
  11400572.354 9   8879375.00146  23022969.074    23022970.3414   23022978.7914
     -2693.936       -2099.171
  -1294099.048 9   -981479.03246  23765833.636    23765834.6144   23765843.8344
      -989.037        -770.678
 -16202222.430 9 -12613427.20848  20261251.354    20261253.0534   20261259.8694
      1870.119        1457.236
 97  4 14 16 50 59.9960000  0  9 31  7 26 27 15 19 18 10  2         -0.003528087
   2984685.899 9   2333310.90447  22495685.609    22495687.3614   22495694.0374
     -2091.858       -1630.019
 -17628991.666 9 -13373201.04247  21522465.253    21522467.4914   21522475.6824
      4316.266        3363.324
  -9559706.730 9  -7418188.94446  23138732.056    23138734.5114   23138741.3754
      3907.316        3044.662
 -14925166.321 9 -11612795.92348  19129970.676    19129972.4284   19129978.5704
      1555.924        1212.408
  -4846453.946 8  -3763977.36146  23507936.185    23507937.7514   23507947.3224
      3233.751        2519.806
   -958843.611 9   -742977.35348  20591028.737    20591031.0414   20591037.8084
      -826.055        -643.679
  11481357.438 9   8942324.31246  23038342.029    23038343.3394   23038351.8364
     -2692.552       -2098.092
  -1264400.900 9   -958337.68946  23771485.059    23771485.9744   23771495.0884
      -991.516        -772.610
 -16258286.144 9 -12657113.20648  20250582.710    20250584.4544   20250591.2754
      1866.846        1454.685
 97  4 14 16 51 29.9960000  0  9 31  7 26 27 15 19 18 10  2         -0.003548930
   3047614.738 9   2382346.31247  22507660.905    22507662.3784   22507669.1664
     -2103.316       -1638.947
 -17758333.735 9 -13473987.03547  21497852.616    21497854.5114   21497862.6994
      4306.582        3355.778
  -9676759.556 9  -7509398.92846  23116457.527    23116460.0574   23116466.9384
      3896.295        3036.074
 -14971640.638 9 -11649009.68648  19121126.968    19121128.6744   19121134.7834
      1542.550        1201.987
  -4943325.843 8  -3839461.86546  23489501.991    23489503.6094   23489513.1654
      3224.457        2512.564
   -933911.877 9   -723550.06948  20595773.082    20595775.4494   20595782.1904
      -835.892        -651.344
  11562183.826 9   9005305.80046  23053722.776    23053724.1924   23053732.7994
     -2695.672       -2100.524
  -1234547.871 9   -935075.60846  23777165.956    23777166.9904   23777175.7264
      -998.509        -778.059
 -16314175.331 9 -12700663.21548  20239947.357    20239949.1074   20239955.9114
      1859.211        1448.736
 97  4 14 16 51 59.9960000  0  9 31  7 26 27 15 19 18 10  2         -0.003569752
   3110862.268 9   2431630.04847  22519696.438    22519697.9294   22519704.8154
     -2112.238       -1645.900
 -17887408.497 9 -13574564.74247  21473290.638    21473292.3934   21473300.5484
      4299.404        3350.185
  -9793497.906 9  -7600363.86746  23094243.005    23094245.5214   23094252.4094
      3887.195        3028.983
 -15017737.110 9 -11684929.02348  19112355.125    19112356.8114   19112362.9214
      1531.390        1193.291
  -5039943.611 8  -3914748.35746  23471116.159    23471117.8414   23471127.2534
      3217.623        2507.239
   -908714.873 9   -703916.08348  20600567.818    20600570.2994   20600577.0384
      -842.858        -656.772
  11643078.455 9   9068340.45846  23069116.318    23069118.0204   23069126.6444
     -2696.486       -2101.158
  -1204513.941 9   -911672.62146  23782881.462    23782882.3974   23782891.1964
     -1002.602        -781.248
 -16369859.888 9 -12744053.77148  20229351.015    20229352.7214   20229359.4674
      1854.000        1444.675
 97  4 14 16 52 29.9960000  0  9 31  7 26 27 15 19 18 10  2         -0.003590586
   3174379.817 9   2481124.21446  22531783.556    22531785.0064   22531791.7244
     -2122.620       -1653.990
 -18016256.817 9 -13674965.99847  21448771.542    21448773.3554   21448781.5074
      4290.140        3342.966
  -9909947.226 9  -7691103.59646  23072083.540    23072085.9524   23072092.8604
      3875.850        3020.143
 -15063481.408 9 -11720573.94148  19103650.315    19103651.9314   19103658.0584
      1517.985        1182.845
  -5136341.581 8  -3989863.57145  23452772.022    23452773.8434   23452783.0894
      3208.507        2500.135
   -883302.850 9   -684114.54748  20605403.769    20605406.0744   20605412.8374
      -851.861        -663.788
  11724009.608 9   9131403.59046  23084517.151    23084518.8834   23084527.4584
     -2699.251       -2103.312
  -1174358.800 9   -888175.17746  23788619.509    23788620.7904   23788629.7344
     -1008.287        -785.678
 -16425371.354 9 -12787309.45448  20218787.519    20218789.2354   20218795.9934
      1846.378        1438.736
 97  4 14 16 52 59.9960000  0  9 31  7 26 27 15 19 18 10  2         -0.003611414
   3238187.702 9   2530844.57146  22543925.797    22543927.3414   22543934.1974
     -2133.150       -1662.195
 -18144850.277 9 -13775168.66047  21424300.952    21424302.7984   21424310.9374
      4280.946        3335.802
 -10026086.773 9  -7781601.93046  23049982.780    23049985.3764   23049992.2934
      3865.131        3011.790
 -15108847.267 9 -11755923.96648  19095017.411    19095019.1194   19095025.2224
      1504.651        1172.455
  -5232485.090 8  -4064780.51046  23434476.576    23434478.3134   23434487.6984
      3199.268        2492.936
   -857623.390 9   -664104.61348  20610290.334    20610292.7104   20610299.5294
      -861.990        -671.681
  11805000.489 9   9194513.26046  23099929.345    23099930.9804   23099939.7414
     -2701.818       -2105.313
  -1144055.459 9   -864562.28846  23794386.065    23794387.2834   23794396.4914
     -1013.680        -789.880
 -16480676.786 9 -12830404.58648  20208263.219    20208264.9484   20208271.7234
      1838.920        1432.925
 97  4 14 16 53 29.9960000  0  9 31  7 26 27 15 19 18 10  2         -0.003632218
   3302315.544 9   2580814.28147  22556129.045    22556130.5304   22556137.3484
     -2143.447       -1670.218
 -18273151.994 9 -13875143.99847  21399885.945    21399887.7384   21399895.8704
      4271.357        3328.330
 -10141890.119 9  -7871838.28346  23027946.224    23027948.7544   23027955.6744
      3853.882        3003.025
 -15153800.986 9 -11790952.85148  19086463.142    19086464.7284   19086470.8254
      1491.104        1161.899
  -5328333.663 8  -4139467.63546  23416237.230    23416238.8704   23416248.1304
      3189.332        2485.194
   -831608.564 9   -643833.36148  20615240.761    20615243.1554   20615250.0454
      -873.624        -680.746
  11886079.670 9   9257691.72046  23115358.195    23115359.8844   23115368.7254
     -2704.647       -2107.517
  -1113572.413 9   -840809.33846  23800186.855    23800188.0944   23800197.3274
     -1019.828        -794.671
 -16535745.990 9 -12873315.64948  20197783.846    20197785.6204   20197792.3634
      1831.083        1426.818
 97  4 14 16 53 59.9960000  0  9 31  7 26 27 15 19 18 10  2         -0.003653001
   3366752.319 9   2631024.76946  22568390.908    22568392.5434   22568398.9694
     -2153.047       -1677.699
 -18401176.398 9 -13974903.25047  21375523.748    21375525.4594   21375533.6024
      4262.978        3321.801
 -10257358.887 9  -7961813.94746  23005973.373    23005975.7634   23005982.5664
      3843.376        2994.838
 -15198361.442 9 -11825675.29348  19077983.409    19077985.1514   19077991.2864
      1478.947        1152.426
  -5423890.812 9  -4213927.68046  23398053.317    23398055.0114   23398064.1364
      3180.422        2478.251
   -805251.106 9   -623295.12448  20620256.578    20620258.8354   20620265.7714
      -884.231        -689.011
  11967233.891 9   9320928.66346  23130801.332    23130803.2114   23130811.9894
     -2706.269       -2108.781
  -1082915.805 9   -816921.08446  23806020.675    23806021.8834   23806030.9924
     -1024.657        -798.434
 -16590581.568 9 -12916044.66848  20187348.997    20187350.7344   20187357.4704
      1823.932        1421.246
 97  4 14 16 54 29.9960000  0  9 31  7 26 27 15 19 18 10  2         -0.003673793
   3431452.118 9   2681440.12646  22580702.722    22580704.5724   22580711.2154
     -2162.384       -1684.975
 -18528977.971 9 -14074488.85647  21351203.906    21351205.5974   21351213.7714
      4255.124        3315.681
 -10372546.030 9  -8051570.15846  22984054.015    22984056.3734   22984063.0664
      3833.840        2987.408
 -15242589.268 9 -11860138.54048  19069567.177    19069568.8754   19069575.0514
      1467.575        1143.565
  -5519203.711 8  -4288197.38946  23379915.829    23379917.5504   23379926.6934
      3171.830        2471.556
   -778594.491 9   -602523.77848  20625329.159    20625331.4604   20625338.4614
      -894.968        -697.378
  12048410.063 9   9384182.71546  23146248.685    23146250.6684   23146259.2664
     -2707.298       -2109.583
  -1052139.331 9   -792939.52446  23811877.308    23811878.5204   23811887.8154
     -1029.277        -802.034
 -16645231.113 9 -12958628.72348  20176949.599    20176951.2624   20176958.0224
      1817.561        1416.281
 97  4 14 16 54 59.9960000  0  9 31  7 26 27 15 19 18 10  2         -0.003694574
   3496460.209 9   2732095.72347  22593073.312    22593075.1844   22593081.9104
     -2170.937       -1691.639
 -18656528.069 9 -14173878.52947  21326931.693    21326933.5774   21326941.7554
      4248.538        3310.549
 -10487432.242 9  -8141091.87346  22962191.955    22962194.2774   22962200.8774
      3825.542        2980.942
 -15286455.438 9 -11894319.97848  19061219.845    19061221.4744   19061227.6384
      1457.182        1135.466
  -5614240.107 9  -4362251.67846  23361830.912    23361832.6784   23361841.7254
      3164.322        2465.705
   -751587.267 9   -581479.23248  20630468.527    20630470.8054   20630477.8524
      -904.833        -705.065
  12129635.988 9   9447475.53546  23161705.724    23161707.4654   23161716.1564
     -2707.173       -2109.485
  -1021198.291 9   -768829.70646  23817765.079    23817766.3374   23817775.8004
     -1032.954        -804.899
 -16699673.530 9 -13001051.38248  20166589.535    20166591.1874   20166598.0034
      1812.144        1412.060
 97  4 14 16 55 29.9960000  0  9 31  7 26 27 15 19 18 10  2         -0.003715333
   3561785.004 9   2782998.18446  22605503.997    22605506.1014   22605512.3624
     -2183.879       -1701.724
 -18783807.823 9 -14273057.53647  21302711.070    21302713.0164   21302721.1504
      4237.025        3301.578
 -10601992.300 9  -8230359.44846  22940391.677    22940394.2254   22940400.7954
      3812.044        2970.424
 -15329944.786 9 -11928207.78648  19052944.036    19052945.7914   19052951.9134
      1442.196        1123.789
  -5708983.185 8  -4436077.39546  23343801.911    23343803.7154   23343812.4874
      3152.089        2456.173
   -724238.720 9   -560168.71848  20635672.775    20635675.1064   20635682.1544
      -918.106        -715.407
  12210923.183 9   9510816.10246  23177174.228    23177175.9544   23177184.8004
     -2711.602       -2112.937
   -990076.225 9   -744578.81446  23823687.584    23823688.8264   23823698.1654
     -1041.508        -811.565
 -16753875.252 9 -13043286.48648  20156275.254    20156276.9054   20156283.7864
      1801.426        1403.708
 97  4 14 16 55 59.9960000  0  9 31  7 26 27 15 19 18 10  2         -0.003736054
   3627454.006 9   2834168.76946  22618000.351    22618002.4434   22618008.8334
     -2195.424       -1710.720
 -18910794.941 9 -14372008.51247  21278546.220    21278548.1084   21278556.2594
      4227.178        3293.905
 -10716201.721 9  -8319353.78246  22918658.554    22918660.8684   22918667.5654
      3800.408        2961.357
 -15373030.575 9 -11961781.13348  19044745.072    19044746.8944   19044753.0064
      1428.534        1113.143
  -5803409.912 8  -4509656.60246  23325832.990    23325834.8834   23325843.7094
      3141.408        2447.850
   -696552.640 9   -538595.18648  20640941.222    20640943.6074   20640950.6714
      -929.259        -724.098
  12292287.115 9   9574216.45846  23192657.233    23192659.0724   23192667.9604
     -2714.244       -2114.995
   -958760.858 9   -720177.29646  23829646.544    23829648.0424   23829657.3284
     -1047.812        -816.477
 -16807799.519 9 -13085305.39348  20146013.824    20146015.4704   20146022.3254
      1791.947        1396.322
 97  4 14 16 56 29.9960000  0  9 31  7 26 27 15 19 18 10  2         -0.003756755
   3693436.354 9   2885583.51646  22630556.484    22630558.4314   22630565.1844
     -2204.496       -1717.789
 -19037500.453 9 -14470740.05647  21254434.800    21254436.8594   21254445.0304
      4218.782        3287.363
 -10830083.781 9  -8408093.04346  22896987.714    22896989.9144   22896996.5694
      3790.751        2953.832
 -15415719.515 9 -11995045.24648  19036621.699    19036623.5004   19036629.5694
      1416.307        1103.616
  -5897532.617 8  -4582998.91446  23307922.089    23307923.8714   23307932.7304
      3132.403        2440.834
   -668539.742 9   -516767.00348  20646271.837    20646274.3084   20646281.3844
      -939.230        -731.868
  12373715.727 9   9637667.21446  23208152.871    23208154.5624   23208163.4804
     -2715.405       -2115.900
   -927268.181 9   -695637.62146  23835639.128    23835640.8014   23835650.0664
     -1052.685        -820.274
 -16861458.862 9 -13127117.86448  20135802.818    20135804.4514   20135811.2824
      1784.365        1390.414
 97  4 14 16 56 59.9960000  0  9 31  7 26 27 15 19 18 10  2         -0.003777442
   3759718.876 9   2937232.31646  22643169.785    22643171.7494   22643178.1144
     -2215.130       -1726.075
 -19163921.162 9 -14569249.67047  21230377.686    21230379.8064   21230387.9934
      4208.256        3279.160
 -10943642.624 9  -8496580.43646  22875377.982    22875380.3584   22875387.0184
      3778.894        2944.593
 -15458005.855 9 -12027995.63948  19028574.939    19028576.7104   19028582.7454
      1401.861        1092.359
  -5991350.550 9  -4656103.73746  23290069.215    23290070.9244   23290079.7034
      3121.192        2432.098
   -640203.667 9   -494686.97748  20651664.192    20651666.5184   20651673.6304
      -950.630        -740.751
  12455210.088 9   9701169.20846  23223660.657    23223662.5054   23223671.5104
     -2718.371       -2118.211
   -895599.969 9   -670961.17146  23841665.471    23841667.0984   23841676.4474
     -1059.303        -825.431
 -16914851.214 9 -13168722.28648  20125642.508    20125644.2014   20125651.0674
      1774.161        1382.463
 97  4 14 16 57 29.9960000  0  9 31  7 26 27 15 19 18 10  2         -0.003798114
   3826292.266 9   2989107.63046  22655838.455    22655840.3214   22655846.6874
     -2224.286       -1733.210
 -19290048.354 9 -14667530.57247  21206376.513    21206378.5914   21206386.8104
      4199.168        3272.079
 -11056866.955 9  -8584807.17746  22853831.652    22853834.4284   22853841.0844
      3768.215        2936.271
 -15499880.096 9 -12060624.92048  19020606.472    19020608.3024   19020614.3384
      1388.576        1082.007
  -6084853.815 9  -4728963.38746  23272275.876    23272277.7234   23272286.4824
      3111.203        2424.314
   -611552.238 9   -472361.23648  20657116.480    20657118.7344   20657125.8424
      -960.887        -748.743
  12536765.846 9   9764719.05046  23239180.358    23239182.1234   23239191.0604
     -2719.800       -2119.325
   -863765.285 9   -646155.01746  23847723.662    23847725.2434   23847734.6474
     -1064.136        -829.197
 -16967967.310 9 -13210111.44948  20115534.916    20115536.5444   20115543.4624
      1765.948        1376.063
 97  4 14 16 57 59.9960000  0  9 31  7 26 27 15 19 18 10  2         -0.003818779
   3893149.924 9   3041204.42446  22668561.114    22668562.9204   22668569.5924
     -2231.754       -1739.029
 -19415900.621 9 -14765597.25247  21182427.569    21182429.7254   21182437.9124
      4191.851        3266.377
 -11169761.730 9  -8672777.12046  22832348.091    22832351.1834   22832357.8744
      3759.084        2929.156
 -15541350.429 9 -12092939.47148  19012714.992    19012716.7374   19012722.8194
      1377.168        1073.118
  -6178053.297 9  -4801586.29946  23254540.636    23254542.3834   23254551.1534
      3102.984        2417.910
   -582571.745 9   -449779.07648  20662631.379    20662633.5384   20662640.6394
      -970.144        -755.956
  12618364.269 9   9828302.11546  23254708.018    23254709.8814   23254718.8324
     -2719.187       -2118.847
   -831781.867 9   -621232.94146  23853810.117    23853811.5184   23853820.9194
     -1067.297        -831.660
 -17020839.961 9 -13251310.92248  20105473.558    20105475.1934   20105482.1354
      1759.883        1371.337
 97  4 14 16 58 29.9960000  0  9 31  7 26 27 15 19 18 10  2         -0.003839432
   3960275.263 9   3093509.92546  22681334.536    22681336.4124   22681342.7634
     -2243.581       -1748.245
 -19541472.097 9 -14863445.12348  21158532.049    21158534.2464   21158542.4174
      4179.561        3256.801
 -11282318.182 9  -8760483.43346  22810929.609    22810932.4194   22810939.0974
      3744.612        2917.879
 -15582426.261 9 -12124946.61048  19004898.410    19004900.2484   19004906.3554
      1361.182        1060.661
  -6270951.253 9  -4873974.26446  23236862.864    23236864.5324   23236873.1794
      3090.099        2407.869
   -553265.595 9   -426943.15548  20668208.153    20668210.3274   20668217.4584
      -983.487        -766.354
  12700001.805 9   9891915.68446  23270243.198    23270245.0574   23270253.9954
     -2723.229       -2121.997
   -799639.934 9   -596187.34846  23859926.397    23859927.7414   23859937.3094
     -1075.487        -838.042
 -17073480.351 9 -13292329.39948  20095456.405    20095458.0234   20095464.9954
      1749.349        1363.129
 97  4 14 16 58 59.9960000  0  9 31  7 26 27 15 19 18 10  2         -0.003860060
   4027697.596 9   3146046.66346  22694164.595    22694166.4464   22694173.3314
     -2253.403       -1755.898
 -19666742.256 9 -14961058.20248  21134693.928    21134696.1044   21134704.2914
      4169.601        3249.040
 -11394500.984 9  -8847898.58546  22789581.999    22789584.6994   22789591.4804
      3731.988        2908.043
 -15623084.734 9 -12156628.54748  18997161.261    18997163.2134   18997169.3014
      1347.126        1049.708
  -6363526.722 9  -4946110.92646  23219245.993    23219247.8614   23219256.5744
      3079.295        2399.451
   -523638.666 9   -403857.28448  20673845.813    20673848.1864   20673855.3304
      -993.916        -774.480
  12781685.766 8   9955565.43146  23285787.250    23285789.1114   23285798.0724
     -2724.460       -2122.956
   -767317.390 9   -571001.03546  23866077.509    23866078.6664   23866088.1914
     -1081.602        -842.807
 -17125865.205 9 -13333148.76148  20085487.776    20085489.4634   20085496.4054
      1740.841        1356.499
 97  4 14 16 59 29.9960000  0  9 31  7 26 27 15 19 18 10  2         -0.003880658
   4095421.112 9   3198818.21246  22707051.802    22707053.8844   22707060.7554
     -2264.221       -1764.328
 -19791704.858 9 -15058431.62348  21110914.432    21110916.5154   21110924.7084
      4158.586        3240.457
 -11506293.302 9  -8935009.46146  22768308.683    22768311.2314   22768318.1824
      3718.192        2897.292
 -15663313.075 9 -12187975.30948  18989506.117    18989508.0444   18989514.1144
      1332.098        1037.998
  -6455767.871 9  -5017987.09946  23201693.075    23201694.9104   23201703.5464
      3067.442        2390.215
   -493685.537 9   -380517.22448  20679545.737    20679548.1264   20679555.2924
     -1005.567        -783.559
  12863408.884 9  10019245.65946  23301338.703    23301340.4844   23301349.5294
     -2726.544       -2124.580
   -734800.386 9   -545663.15946  23872265.251    23872266.4924   23872275.9004
     -1088.975        -848.552
 -17177995.911 9 -13373770.08948  20075567.685    20075569.3524   20075576.2204
      1731.889        1349.524
 97  4 14 16 59 59.9960000  0  9 31  7 26 27 15 19 18 10  2         -0.003901231
   4163426.887 9   3251809.79946  22719992.972    22719995.0944   22720001.3824
     -2271.379       -1769.906
 -19916367.134 9 -15155571.03048  21087192.066    21087194.0724   21087202.2324
      4150.361        3234.048
 -11617707.871 9  -9021825.99246  22747107.233    22747109.7334   22747116.6794
      3707.690        2889.109
 -15703128.796 9 -12219000.55648  18981929.428    18981931.3734   18981937.4334
      1320.386        1028.872
  -6547687.992 9  -5089613.09446  23184201.457    23184203.0144   23184211.7134
      3058.622        2383.342
   -463434.141 9   -356944.76248  20685302.389    20685304.7724   20685311.9514
     -1012.957        -789.317
  12945163.740 9  10082950.64646  23316896.182    23316898.0064   23316907.0344
     -2725.755       -2123.965
   -702085.314 8   -520170.99246  23878490.611    23878491.9784   23878501.5424
     -1093.726        -852.254
 -17229890.579 9 -13414207.49248  20065692.445    20065694.1294   20065701.0324
      1725.993        1344.930
 97  4 14 17  0 29.9960000  0  9 31  7 26 27 15 19 18 10  2         -0.003921771
   4231728.740 9   3305031.90846  22732990.277    22732992.6544   22732999.2544
     -2279.530       -1776.257
 -20040699.115 9 -15252453.06148  21063532.403    21063534.4734   21063542.6314
      4141.174        3226.889
 -11728729.635 9  -9108336.44046  22725980.681    22725982.9744   22725989.8524
      3696.545        2880.425
 -15742498.384 9 -12249678.16748  18974437.718    18974439.6364   18974445.6334
      1306.879        1018.347
  -6639255.004 9  -5160963.95846  23166776.795    23166778.5054   23166786.9814
      3048.475        2375.435
   -432877.155 9   -333134.16448  20691117.279    20691119.6014   20691126.8534
     -1021.647        -796.089
  13026985.458 9  10146707.71946  23332466.494    23332468.1814   23332477.2054
     -2726.364       -2124.439
   -669154.338 9   -494510.58846  23884757.136    23884758.6494   23884768.3344
     -1098.799        -856.207
 -17281525.312 9 -13454442.35248  20055866.664    20055868.3954   20055875.2784
      1719.075        1339.539
 97  4 14 17  0 59.9960000  0  9 31  7 26 27 15 19 18 10  2         -0.003942304
   4300295.701 9   3358460.71146  22746038.592    22746040.3914   22746046.9224
     -2290.366       -1784.701
 -20164735.640 9 -15349104.86248  21039929.125    21039931.0874   21039939.2634
      4128.984        3217.390
 -11839402.547 9  -9194575.06146  22704920.347    22704922.5364   22704929.4814
      3682.854        2869.756
 -15781436.502 9 -12280019.56848  18967027.937    18967029.9694   18967035.9094
      1290.264        1005.401
  -6730491.476 9  -5232057.24546  23149415.058    23149416.7614   23149425.2974
      3035.160        2365.060
   -402023.099 9   -309092.08148  20696988.559    20696990.9944   20696998.2594
     -1034.223        -805.888
  13108848.614 8  10210497.10046  23348044.860    23348046.3944   23348055.2674
     -2730.033       -2127.298
   -636056.152 9   -468719.85446  23891055.706    23891057.1894   23891066.7314
     -1106.507        -862.213
 -17332933.313 9 -13494500.52948  20046084.032    20046085.7834   20046092.6314
      1709.504        1332.081
 97  4 14 17  1 29.9960000  0  9 31  7 26 27 15 19 18 10  2         -0.003962856
   4369078.592 9   3412057.77446  22759127.445    22759129.3534   22759135.5784
     -2297.732       -1790.441
 -20288502.475 9 -15445546.51648  21016376.911    21016379.0234   21016387.1784
      4119.651        3210.118
 -11949768.419 9  -9280574.42947  22683918.307    22683920.6034   22683927.5944
      3672.395        2861.606
 -15819985.224 9 -12310057.54248  18959692.287    18959694.3854   18959700.2804
      1277.076         995.124
  -6821436.175 9  -5302923.19746  23132108.810    23132110.5094   23132118.9224
      3025.330        2357.400
   -370891.912 9   -284834.05548  20702912.773    20702915.1044   20702922.3824
     -1043.548        -813.154
  13190718.651 9  10274291.82546  23363624.386    23363625.9154   23363634.7844
     -2730.587       -2127.730
   -602838.657 8   -442836.19446  23897376.840    23897378.2784   23897387.9044
     -1110.451        -865.286
 -17384165.259 9 -13534421.52348  20036334.932    20036336.6434   20036343.4794
      1703.349        1327.285
 97  4 14 17  1 59.9960000  0  9 31  7 26 27 15 19 18 10  2         -0.003983402
   4438115.485 9   3465852.64746  22772265.035    22772266.5994   22772273.4124
     -2307.120       -1797.756
 -20411958.098 9 -15541745.66848  20992884.158    20992886.1944   20992894.3654
      4108.480        3201.413
 -12059793.965 9  -9366308.60947  22662981.334    22662983.4704   22662990.5094
      3660.118        2852.040
 -15858104.433 9 -12339760.83248  18952438.565    18952440.5754   18952446.4054
      1261.935         983.326
  -6912051.542 8  -5373532.49346  23114865.149    23114866.7974   23114875.4044
      3013.379        2348.088
   -339451.299 9   -260334.92148  20708895.884    20708898.1114   20708905.3934
     -1054.954        -822.042
  13272637.123 9  10338124.31346  23379212.929    23379214.6484   23379223.5364
     -2732.950       -2129.571
   -569481.335 9   -416843.52546  23903724.696    23903726.0954   23903735.6264
     -1115.569        -869.274
 -17435178.782 9 -13574172.31448  20026627.306    20026629.0884   20026635.8884
      1695.284        1321.001
 97  4 14 17  2 29.9960000  0  9 31  7 26 27 15 19 18 10  2         -0.004003934
   4507427.226 9   3519861.89146  22785454.776    22785456.3654   22785462.7144
     -2314.766       -1803.714
 -20535103.266 9 -15637702.89948  20969450.335    20969452.4264   20969460.5954
      4099.889        3194.719
 -12169463.144 9  -9451765.09847  22642111.979    22642114.1724   22642121.1764
      3649.941        2844.110
 -15895789.722 9 -12369126.00948  18945267.497    18945269.3514   18945275.1284
      1249.394         973.554
  -7002326.848 8  -5443876.83946  23097686.381    23097687.9904   23097696.5984
      3003.854        2340.665
   -307672.179 9   -235572.01648  20714943.323    20714945.5184   20714952.8124
     -1064.714        -829.647
  13354602.422 9  10401993.26246  23394810.389    23394812.2854   23394821.0814
     -2732.540       -2129.252
   -536003.895 9   -390757.28046  23910095.698    23910096.7214   23910106.3334
     -1117.454        -870.743
 -17485967.313 9 -13613747.78948  20016962.714    20016964.4074   20016971.1924
      1689.383        1316.402
 97  4 14 17  2 59.9950000  0  9 31  7 26 27 15 19 18 10  2         -0.004024433
   4577028.694 9   3574096.74646  22798700.058    22798701.1874   22798707.5834
     -2325.554       -1812.120
 -20657911.110 9 -15733397.28948  20946080.852    20946082.8534   20946090.9924
      4087.599        3185.142
 -12278748.568 9  -9536922.55647  22621315.544    22621317.8544   22621324.9054
      3635.955        2833.212
 -15933040.934 9 -12398152.94648  18938178.816    18938180.7134   18938186.4534
      1234.227         961.735
  -7092244.314 9  -5513942.33046  23080575.532    23080577.1134   23080585.7074
      2990.865        2330.544
   -275538.742 9   -210533.02148  20721058.270    20721060.3984   20721067.6224
     -1077.439        -839.563
  13436612.255 9  10465896.92246  23410416.580    23410418.2974   23410427.2034
     -2734.884       -2131.078
   -502399.784 9   -364572.36146  23916490.271    23916491.4894   23916501.1094
     -1122.916        -874.999
 -17536505.587 9 -13653128.25948  20007345.697    20007347.3364   20007354.1324
      1679.995        1309.087
 97  4 14 17  3 29.9950000  0  9 31  7 26 27 15 19 18 10  2         -0.004044902
   4646926.103 9   3628562.22046  22812000.684    22812002.1294   22812008.5784
     -2334.098       -1818.778
 -20780392.552 9 -15828837.33948  20922773.451    20922775.4174   20922783.4964
      4078.065        3177.713
 -12387655.364 9  -9621784.99047  22600591.082    22600593.6134   22600600.6094
      3624.660        2824.410
 -15969875.781 9 -12426855.44148  18931169.455    18931171.2734   18931177.0224
      1221.560         951.865
  -7181813.029 9  -5583736.08046  23063531.198    23063532.8324   23063541.2834
      2980.364        2322.361
   -243069.617 9   -185232.44848  20727236.904    20727239.1124   20727246.3134
     -1087.035        -847.040
  13518653.296 8  10529824.89946  23426028.413    23426030.2524   23426039.2084
     -2734.562       -2130.828
   -468676.330 9   -338294.42846  23922907.450    23922908.8304   23922918.6634
     -1125.114        -876.712
 -17586800.675 9 -13692319.23048  19997774.861    19997776.5324   19997783.3204
      1673.093        1303.709
 97  4 14 17  3 59.9950000  0  9 31  7 26 27 15 19 18 10  2         -0.004065344
   4717104.424 9   3683246.63246  22825354.949    22825356.5814   22825362.8774
     -2343.457       -1826.070
 -20902565.635 9 -15924037.10248  20899524.628    20899526.6194   20899534.7494
      4067.714        3169.647
 -12496197.578 9  -9706363.33347  22579936.165    22579938.6394   22579945.5914
      3612.416        2814.870
 -16006313.782 9 -12455248.70648  18924235.474    18924237.3504   18924243.0944
      1208.676         941.825
  -7271036.815 9  -5653261.03846  23046552.520    23046553.9664   23046562.4794
      2968.760        2313.319
   -210279.480 9   -159681.73648  20733476.611    20733478.8994   20733486.1024
     -1098.095        -855.658
  13600713.562 8  10593767.86146  23441644.255    23441645.8744   23441654.8874
     -2735.138       -2131.276
   -434867.882 9   -311950.26846  23929341.026    23929342.2634   23929352.1594
     -1127.883        -878.870
 -17636864.089 9 -13731329.68248  19988248.137    19988249.8184   19988256.5804
      1665.501        1297.793
 97  4 14 17  4 29.9950000  0  9 31  7 26 27 15 19 18 10  2         -0.004085750
   4787558.497 9   3738145.82346  22838762.092    22838763.5444   22838770.2534
     -2353.187       -1833.652
 -21024417.837 9 -16018986.83248  20876336.797    20876338.9014   20876347.0954
      4055.742        3160.318
 -12604367.818 9  -9790651.82047  22559351.948    22559354.5364   22559361.4284
      3599.112        2804.503
 -16042362.085 9 -12483338.31248  18917375.711    18917377.5664   18917383.3184
      1194.490         930.771
  -7359902.577 9  -5722507.02446  23029641.680    23029643.3984   23029651.8674
      2955.644        2303.099
   -177149.256 9   -133866.02248  20739781.115    20739783.3934   20739790.6184
     -1110.375        -865.227
  13682803.584 9  10657734.00546  23457265.364    23457267.0234   23457276.1854
     -2737.373       -2133.018
   -400968.270 9   -285535.07746  23935792.141    23935793.2274   23935803.2804
     -1132.096        -882.153
 -17686686.016 9 -13770151.96448  19978767.363    19978769.0374   19978775.7944
      1656.159        1290.514
 97  4 14 17  4 59.9950000  0  9 31  7 26 27 15 19 18 10  2         -0.004106136
   4858252.533 9   3793232.13546  22852215.065    22852216.2254   22852222.7264
     -2358.828       -1838.048
 -21145946.898 9 -16113684.76048  20853210.643    20853212.6844   20853220.8494
      4047.314        3153.751
 -12712183.458 9  -9874664.00347  22538835.591    22538837.9554   22538844.8114
      3589.520        2797.029
 -16078016.512 9 -12511121.00248  18910590.946    18910592.7894   18910598.5264
      1183.435         922.157
  -7448413.351 8  -5791476.42246  23012798.745    23012800.3354   23012808.5014
      2946.078        2295.645
   -143696.119 9   -107798.68848  20746146.972    20746149.3404   20746156.6244
     -1118.803        -871.795
  13764917.207 8  10721718.54546  23472891.015    23472892.9214   23472902.0024
     -2735.816       -2131.805
   -366973.098 8   -259045.37946  23942261.487    23942262.3714   23942272.4294
     -1133.293        -883.085
 -17736271.406 9 -13808789.92948  19969331.595    19969333.2714   19969340.0124
      1650.698        1286.258
 97  4 14 17  5 29.9950000  0  9 31  7 26 27 15 19 18 10  2         -0.004126508
   4929175.530 9   3848496.74846  22865710.966    22865712.4494   22865719.0484
     -2368.787       -1845.808
 -21267161.011 9 -16208137.27248  20830144.255    20830146.3724   20830154.5744
      4034.197        3143.530
 -12819638.309 9  -9958395.04347  22518387.750    22518389.9934   22518396.9294
      3574.664        2785.452
 -16113267.571 9 -12538589.37548  18903882.981    18903884.7434   18903890.4974
      1167.256         909.550
  -7536573.126 9  -5860172.29146  22996022.139    22996024.0524   22996032.2514
      2931.795        2284.515
   -109925.573 9    -81484.01848  20752573.271    20752575.6954   20752582.9884
     -1131.881        -881.985
  13847054.590 8  10785721.60046  23488521.409    23488523.2724   23488532.2924
     -2739.337       -2134.548
   -332873.724 8   -232474.52145  23948750.432    23948751.2904   23948761.2164
     -1139.441        -887.876
 -17785634.185 9 -13847254.42649  19959938.238    19959939.8814   19959946.6134
      1640.778        1278.528
 97  4 14 17  5 59.9950000  0  9 31  7 26 27 15 19 18 10  2         -0.004146852
   5000329.729 9   3903941.50447  22879251.053    22879252.5244   22879259.3894
     -2375.432       -1850.986
 -21388041.286 9 -16302329.65748  20807141.513    20807143.5974   20807151.8054
      4023.924        3135.525
 -12926699.800 9 -10041819.56847  22498014.663    22498016.9334   22498023.8804
      3562.143        2775.696
 -16148096.882 9 -12565729.11548  18897255.242    18897256.9534   18897262.7184
      1154.069         899.274
  -7624364.043 9  -5928580.76446  22979316.021    22979317.8954   22979325.9614
      2920.382        2275.622
    -75824.227 9    -54911.57848  20759062.795    20759065.0544   20759072.3114
     -1142.020        -889.886
  13929227.764 9  10849752.54546  23504158.597    23504160.4144   23504169.4464
     -2739.120       -2134.379
   -298642.097 8   -205800.57445  23955264.491    23955265.3934   23955275.2304
     -1143.373        -890.940
 -17834761.067 9 -13885535.11248  19950589.706    19950591.3494   19950598.1154
      1633.771        1273.068
 97  4 14 17  6 29.9950000  0  9 31  7 26 27 15 19 18 10  2         -0.004167154
   5071736.507 9   3959583.17546  22892839.319    22892840.7904   22892847.3784
     -2383.333       -1857.143
 -21508557.410 9 -16396238.28548  20784208.047    20784210.1334   20784218.3364
      4012.280        3126.452
 -13033324.757 9 -10124903.93647  22477724.425    22477726.8844   22477733.7684
      3548.013        2764.685
 -16182463.683 9 -12592508.45848  18890715.449    18890717.1684   18890722.9654
      1138.872         887.433
  -7711754.982 9  -5996677.56946  22962686.172    22962687.9094   22962696.1514
      2907.534        2265.611
    -41372.605 9    -28066.20848  20765618.767    20765621.0144   20765628.2674
     -1152.940        -898.395
  14011442.269 8  10913815.69045  23519803.474    23519805.4034   23519814.4944
     -2739.893       -2134.982
   -264228.330 9   -178984.71546  23961813.015    23961814.3014   23961823.9204
     -1148.951        -895.286
 -17883620.214 9 -13923607.16948  19941292.119    19941293.7424   19941300.5424
      1625.407        1266.551
 97  4 14 17  6 59.9950000  0  9 31  7 26 27 15 19 18 10  2         -0.004187437
   5143370.430 8   4015401.75446  22906471.153    22906472.3404   22906479.1894
     -2392.411       -1864.216
 -21628749.906 9 -16489894.73748  20761336.163    20761338.2524   20761346.4504
      4000.635        3117.378
 -13139534.568 9 -10207664.81347  22457513.492    22457515.8154   22457522.6454
      3532.759        2752.799
 -16216395.595 9 -12618948.92848  18884258.418    18884260.1534   18884265.9254
      1123.470         875.431
  -7798785.156 9  -6064493.25246  22946124.803    22946126.5414   22946134.7234
      2894.496        2255.451
     -6615.597 9      -982.86448  20772232.749    20772235.0954   20772242.3404
     -1164.219        -907.184
  14093648.897 8  10977872.69245  23535446.793    23535448.8204   23535457.9604
     -2740.441       -2135.409
   -229670.180 9   -152056.40746  23968389.448    23968390.5114   23968400.4934
     -1154.720        -899.782
 -17932251.716 9 -13961501.84248  19932037.819    19932039.4434   19932046.1914
      1616.656        1259.732
 97  4 14 17  7 29.9950000  0  9 31  7 26 27 15 19 18 10  2         -0.004207693
   5215268.255 9   4071426.06146  22920152.810    22920154.1604   22920160.7344
     -2402.128       -1871.788
 -21748606.582 9 -16583289.51148  20738528.158    20738530.2764   20738538.4464
      3988.482        3107.908
 -13245301.803 9 -10290080.82647  22437386.721    22437389.0244   22437395.8114
      3517.288        2740.744
 -16249890.593 9 -12645048.93848  18877884.470    18877886.2864   18877892.0674
      1108.135         863.482
  -7885439.445 8  -6132016.05946  22929635.265    22929636.8614   22929645.1394
      2881.122        2245.030
     28464.527 9     26352.25748  20778908.404    20778910.7094   20778917.9044
     -1175.745        -916.165
  14175852.109 8  11041927.05145  23551089.728    23551091.5174   23551100.7044
     -2740.998       -2135.843
   -194958.693 8   -125008.57346  23974995.205    23974996.0384   23975006.1164
     -1160.470        -904.262
 -17980634.758 9 -13999202.91348  19922830.753    19922832.4564   19922839.1394
      1607.519        1252.612
 97  4 14 17  7 59.9950000  0  9 31  7 26 27 15 19 18 10  2         -0.004227882
   5287459.524 9   4127678.91446  22933890.427    22933891.5924   22933898.3734
     -2410.714       -1878.478
 -21868100.242 9 -16676401.41848  20715789.412    20715791.3694   20715799.4964
      3977.778        3099.567
 -13350617.253 9 -10372144.78947  22417345.807    22417348.0964   22417354.9524
      3503.927        2730.333
 -16282925.894 9 -12670790.74648  18871598.160    18871599.9094   18871605.6754
      1094.138         852.575
  -7971689.688 9  -6199224.01946  22913221.926    22913223.7564   22913232.1784
      2868.895        2235.503
     63895.802 9     53961.00148  20785650.725    20785653.1144   20785660.3054
     -1186.360        -924.436
  14258063.764 8  11105987.99045  23566734.056    23566735.7644   23566745.1264
     -2739.952       -2135.028
   -160077.602 8    -97828.55645  23981632.862    23981633.7544   23981643.6764
     -1164.849        -907.675
 -18028738.049 9 -14036685.99148  19913677.052    19913678.6984   19913685.3704
      1599.298        1246.206
 97  4 14 17  8 29.9950000  0  9 31  7 26 27 15 19 18 10  2         -0.004248035
   5359931.380 9   4184150.51646  22947681.716    22947682.4644   22947689.1244
     -2419.628       -1885.424
 -21987244.896 9 -16769241.37248  20693116.886    20693118.8834   20693126.9714
      3966.337        3090.652
 -13455515.060 9 -10453883.30747  22397384.253    22397386.6304   22397393.5104
      3490.570        2719.925
 -16315510.749 9 -12696181.55448  18865397.346    18865399.2174   18865405.0164
      1079.276         840.994
  -8057549.002 9  -6266127.39746  22896884.009    22896885.3664   22896893.2374
      2856.226        2225.631
     99668.818 9     81836.04548  20792458.103    20792460.5104   20792467.7634
     -1197.340        -932.992
  14340288.052 8  11170058.75845  23582380.790    23582382.7104   23582391.9734
     -2740.670       -2135.587
   -125058.654 9    -70541.16746  23988296.802    23988297.6164   23988307.6844
     -1168.635        -910.625
 -18076564.527 9 -14073953.37748  19904575.937    19904577.6024   19904584.3464
      1590.313        1239.205
 97  4 14 17  8 59.9950000  0  9 31  7 26 27 15 19 18 10  2         -0.004268168
   5432672.462 9   4240831.82246  22961523.952    22961524.8164   22961531.5454
     -2428.074       -1892.006
 -22106042.736 9 -16861811.08448  20670510.359    20670512.3294   20670520.4624
      3954.889        3081.732
 -13560016.833 9 -10535313.24347  22377498.147    22377500.5244   22377507.4324
      3477.840        2710.005
 -16347646.420 9 -12721222.35248  18859282.224    18859284.0224   18859289.8314
      1064.477         829.463
  -8143024.045 9  -6332731.29746  22880618.421    22880619.8924   22880628.3424
      2843.564        2215.764
    135776.961 9    109972.21448  20799329.295    20799331.6784   20799338.9644
     -1208.266        -941.506
  14422534.801 8  11234147.04045  23598032.054    23598033.8644   23598043.1874
     -2740.972       -2135.822
    -89921.798 9    -43161.86546  23994983.131    23994984.0634   23994993.9624
     -1172.295        -913.477
 -18124117.530 9 -14111007.67048  19895526.902    19895528.5524   19895535.3484
      1581.522        1232.355
 97  4 14 17  9 29.9950000  0  9 31  7 26 27 15 19 18 10  2         -0.004288286
   5505663.545 9   4297707.97146  22975413.448    22975414.4704   22975421.2954
     -2438.285       -1899.962
 -22224472.247 9 -16954093.78548  20647973.970    20647975.8834   20647984.0164
      3939.965        3070.102
 -13664132.626 9 -10616442.42347  22357685.524    22357687.9564   22357694.7244
      3462.752        2698.248
 -16379313.706 9 -12745898.16648  18853256.266    18853257.9504   18853263.7904
      1046.101         815.144
  -8228104.194 9  -6399027.51046  22864428.258    22864429.5584   22864438.0384
      2827.965        2203.609
    172223.552 9    138372.11648  20806264.800    20806267.2674   20806274.5784
     -1221.874        -952.110
  14504811.944 8  11298258.99745  23613688.635    23613690.8974   23613700.2794
     -2744.621       -2138.666
    -54660.897 9    -15685.90646  24001693.188    24001694.0764   24001704.0094
     -1178.727        -918.489
 -18171407.622 9 -14147857.08848  19886527.784    19886529.5164   19886536.3464
      1570.731        1223.946
 97  4 14 17  9 59.9950000  0  8 31  7 26 27 15 19 18  2            -0.004308370
   5578926.776 9   4354796.28646  22989355.037    22989355.8434   22989362.4274
     -2448.340       -1907.797
 -22342479.902 9 -17046047.76748  20625517.778    20625519.7614   20625527.8554
      3924.775        3058.266
 -13767819.109 9 -10697237.06847  22337954.583    22337957.1054   22337963.7364
      3447.224        2686.149
 -16410450.611 9 -12770160.69248  18847331.022    18847332.7824   18847338.6784
      1027.426         800.592
  -8312738.022 9  -6464975.92846  22848322.554    22848324.2004   22848332.6064
      2811.856        2191.057
    209050.951 9    167068.74748  20813273.052    20813275.3554   20813282.6314
     -1235.658        -962.850
  14587176.991 8  11362439.44345  23629362.394    23629364.4794   23629373.9094
     -2748.815       -2141.934
 -18218399.243 9 -14184473.93648  19877585.584    19877587.2734   19877594.0954
      1559.647        1215.309
 97  4 14 17 10 29.9950000  0  8 31  7 26 27 15 19 18  2            -0.004328409
   5652454.923 8   4412090.78746  23003346.841    23003347.8004   23003355.0244
     -2454.895       -1912.905
 -22460058.265 9 -17137667.23448  20603143.400    20603145.2614   20603153.3104
      3912.518        3048.715
 -13871059.581 9 -10777684.16747  22318308.587    22318311.0394   22318317.7494
      3434.224        2676.019
 -16441062.041 9 -12794013.75748  18841505.773    18841507.6174   18841513.5544
      1012.129         788.672
  -8396920.194 8  -6530572.40546  22832303.455    22832304.9424   22832313.7374
      2798.900        2180.961
    246258.231 9    196061.39648  20820353.452    20820355.7424   20820362.9504
     -1246.019        -970.924
  14669634.881 8  11426692.24545  23645053.719    23645055.7084   23645065.1014
     -2749.353       -2142.353
 -18265098.845 9 -14220863.23448  19868698.891    19868700.6194   19868707.4264
      1552.536        1209.768
 97  4 14 17 10 59.9950000  0  8 31  7 26 27 15 19 18  2            -0.004348429
   5726183.969 9   4469542.11746  23017376.952    23017378.0914   23017384.8174
     -2460.966       -1917.636
 -22577255.870 9 -17228990.01348  20580841.370    20580843.2554   20580851.2924
      3900.146        3039.075
 -13973893.450 9 -10857814.44047  22298740.029    22298742.4074   22298749.2144
      3420.865        2665.609
 -16471209.193 9 -12817505.05048  18835769.033    18835770.8414   18835776.7974
       997.220         777.055
  -8480701.914 9  -6595856.83446  22816359.870    22816361.7484   22816370.2994
      2785.902        2170.833
    283787.330 9    225304.80547  20827495.052    20827497.3664   20827504.5784
     -1256.326        -978.955
  14752101.36318  11490951.45355  23660746.465    23660748.6155   23660758.5845
     -2748.849       -2141.960
 -18311585.728 9 -14257086.78148  19859852.756    19859854.4744   19859861.2644
      1546.161        1204.801
 97  4 14 17 11 29.9950000  0  8 31  7 26 27 15 19 18  2            -0.004368435
   5800092.185 9   4527132.85546  23031441.089    23031442.4204   23031449.2124
     -2467.254       -1922.536
 -22694096.437 9 -17320034.57148  20558607.344    20558609.2674   20558617.2164
      3888.578        3030.061
 -14076336.886 9 -10937640.47947  22279245.704    22279248.0704   22279254.9694
      3407.815        2655.440
 -16500925.328 9 -12840660.47448  18830114.184    18830116.0584   18830122.0504
       983.244         766.164
  -8564102.776 9  -6660844.49346  22800489.266    22800491.1014   22800499.6244
      2773.316        2161.025
    321613.606 9    254779.78548  20834693.056    20834695.5054   20834702.7324
     -1266.186        -986.638
  14834542.164 8  11555190.99045  23676434.699    23676436.5004   23676446.3674
     -2747.883       -2141.207
 -18357894.267 9 -14293171.34848  19851040.597    19851042.3064   19851049.0674
      1540.123        1200.096
 97  4 14 17 11 59.9950000  0  8 31  7 26 27 15 19 18  2            -0.004388417
   5874205.373 9   4584883.34446  23045544.255    23045545.5564   23045552.5714
     -2473.728       -1927.580
 -22810598.233 9 -17410815.15948  20536437.699    20536439.6654   20536447.6144
      3878.152        3021.937
 -14178382.335 9 -11017156.40847  22259827.098    22259829.4794   22259836.3374
      3395.220        2645.626
 -16530238.750 9 -12863502.10548  18824536.153    18824537.9014   18824543.9094
       970.998         756.622
  -8647123.480 9  -6725535.91346  22784690.934    22784692.7904   22784701.5384
      2761.405        2151.744
    359737.139 9    284486.38148  20841947.768    20841950.1894   20841957.4614
     -1275.331        -993.764
  14916939.650 8  11619396.72545  23692114.295    23692116.3774   23692126.2964
     -2745.313       -2139.205
 -18404019.459 9 -14329113.05348  19842263.280    19842264.9944   19842271.7194
      1534.917        1196.039
 97  4 14 17 12 29.9950000  0  8 31  7 26 27 15 19 18  2            -0.004408359
   5948540.597 8   4642806.91245  23059689.947    23059691.2414   23059697.9464
     -2481.815       -1933.882
 -22926753.625 9 -17501325.81848  20514334.044    20514336.0354   20514343.9414
      3865.777        3012.294
 -14280014.795 9 -11096350.52647  22240486.925    22240489.4634   22240496.2744
      3380.630        2634.257
 -16559151.751 9 -12886031.71548  18819034.196    18819035.9444   18819041.9764
       956.632         745.428
  -8729752.456 9  -6789922.10546  22768967.303    22768969.0034   22768977.4934
      2747.446        2140.867
    398165.913 9    314430.83648  20849260.589    20849262.9854   20849270.2754
     -1286.252       -1002.274
  14999293.119 8  11683568.14645  23707786.202    23707788.0664   23707797.6554
     -2744.686       -2138.716
 -18449958.091 9 -14364909.38448  19833521.509    19833523.1934   19833529.8394
      1528.035        1190.677
 97  4 14 17 12 59.9950000  0  8 31  7 26 27 15 19 18  2            -0.004428282
   6023075.651 9   4700886.13146  23073873.192    23073874.7514   23073881.6544
     -2489.277       -1939.696
 -23042587.476 9 -17591585.92948  20492291.577    20492293.5844   20492301.4614
      3854.534        3003.533
 -14381261.727 9 -11175244.23147  22221220.398    22221222.8484   22221229.6834
      3367.088        2623.705
 -16587677.632 9 -12908259.67448  18813605.890    18813607.6224   18813613.7114
       942.958         734.772
  -8812010.567 9  -6854019.27946  22753314.224    22753315.8734   22753324.3594
      2734.340        2130.655
    436868.595 9    344588.72748  20856625.654    20856627.9124   20856635.1674
     -1296.075       -1009.929
  15081578.830 8  11747686.77545  23723444.656    23723446.5204   23723456.2554
     -2743.223       -2137.576
 -18495741.685 9 -14400584.90648  19824809.146    19824810.8724   19824817.5104
      1522.056        1186.018
 97  4 14 17 13 29.9950000  0  8 31  7 26 27 15 19 18  2            -0.004448195
   6097809.364 9   4759120.10145  23088094.358    23088095.7554   23088102.9564
     -2495.725       -1944.721
 -23158121.911 9 -17681612.73148  20470306.074    20470308.1024   20470315.9154
      3844.796        2995.945
 -14482122.386 9 -11253836.95147  22202027.379    22202029.7304   22202036.6734
      3354.070        2613.561
 -16615822.971 9 -12930191.10348  18808249.986    18808251.7104   18808257.8384
       930.542         725.098
  -8893902.755 9  -6917831.34446  22737730.651    22737732.3214   22737740.8714
      2722.300        2121.273
    475840.030 9    374956.02147  20864041.680    20864043.9944   20864051.2614
     -1304.834       -1016.754
  15163796.292 8  11811752.22445  23739090.375    23739091.9084   23739101.8434
     -2740.624       -2135.551
 -18541364.091 9 -14436134.82948  19816127.569    19816129.2234   19816135.8764
      1516.595        1181.762
 97  4 14 17 13 59.9950000  0  8 31  7 26 27 15 19 18  2            -0.004468080
   6172751.554 8   4817516.56545  23102355.917    23102356.8534   23102364.2954
     -2501.821       -1949.471
 -23273328.597 9 -17771384.14448  20448382.873    20448384.9714   20448392.7554
      3834.000        2987.532
 -14582556.056 9 -11332096.95047  22182915.235    22182917.8704   22182924.8194
      3339.966        2602.571
 -16643560.193 9 -12951804.52548  18802971.573    18802973.4964   18802979.6284
       916.726         714.332
  -8975401.648 9  -6981336.93446  22722222.139    22722223.7164   22722232.0174
      2709.396        2111.218
    515099.958 9    405548.12147  20871512.629    20871514.9204   20871522.2084
     -1314.125       -1023.994
  15245961.668 8  11875777.08145  23754726.033    23754727.5994   23754737.5724
     -2738.821       -2134.146
 -18586794.223 9 -14471534.93548  19807482.548    19807484.1684   19807490.8504
      1510.375        1176.916
 97  4 14 17 14 29.9950000  0  8 31  7 26 27 15 19 18  2            -0.004487954
   6247871.823 8   4876051.95945  23116650.724    23116651.8124   23116658.3874
     -2506.052       -1952.768
 -23388195.821 9 -17860891.04748  20426524.454    20426526.4704   20426534.2124
      3824.039        2979.771
 -14682554.450 9 -11410017.77947  22163886.403    22163888.8334   22163895.7104
      3326.982        2592.454
 -16670849.489 9 -12973068.91948  18797778.522    18797780.4874   18797786.6214
       902.767         703.455
  -9056495.765 9  -7044527.12346  22706790.418    22706792.0154   22706800.3564
      2697.183        2101.701
    554651.250 9    436367.24747  20879039.020    20879041.3184   20879048.6114
     -1322.463       -1030.491
  15328095.969 8  11939777.72145  23770355.437    23770357.3234   23770367.4354
     -2736.373       -2132.239
 -18632007.177 9 -14506765.81148  19798878.800    19798880.4114   19798887.1364
      1504.125        1172.045
 97  4 14 17 14 59.9950000  0  8 31  7 26 27 15 19 18  2            -0.004507841
   6323142.894 9   4934704.57746  23130974.638    23130975.5004   23130982.7534
     -2512.789       -1958.017
 -23502737.017 9 -17950143.89148  20404728.032    20404730.0154   20404737.7744
      3811.310        2969.852
 -14782136.061 9 -11487613.83147  22144936.687    22144939.1244   22144945.8754
      3311.093        2580.072
 -16697686.833 9 -12993981.13348  18792671.595    18792673.4884   18792679.5914
       885.736         690.184
  -9137201.624 9  -7107414.76346  22691432.739    22691434.1874   22691442.3964
      2682.411        2090.190
    594483.463 9    467405.28247  20886618.820    20886621.1744   20886628.4814
     -1333.916       -1039.415
  15410179.874 8  12003739.08945  23785975.957    23785977.3864   23785987.4664
     -2736.492       -2132.331
 -18677000.412 9 -14541825.47648  19790316.856    19790318.4394   19790325.1554
      1494.558        1164.591
 97  4 14 17 15 29.9950000  0  8 31  7 26 27 15 19 18  2            -0.004527746
   6398550.946 8   4993464.14645  23145324.595    23145324.9764   23145331.8044
     -2513.826       -1958.825
 -23616945.632 9 -18039137.58448  20382994.928    20382996.7874   20383004.6024
      3802.991        2963.370
 -14881305.011 9 -11564888.32647  22126065.225    22126067.8414   22126074.5224
      3301.006        2572.212
 -16724069.970 9 -13014539.42548  18787651.125    18787652.9534   18787659.0264
       873.857         680.928
  -9217521.316 9  -7170001.49146  22676148.250    22676149.8514   22676158.0724
      2672.853        2082.743
    634610.064 9    498672.69947  20894254.809    20894257.0504   20894264.3804
     -1340.436       -1044.495
  15492199.852 8  12067650.62345  23801583.850    23801585.3834   23801595.4464
     -2730.809       -2127.903
 -18721754.615 9 -14576698.88248  19781800.411    19781802.0104   19781808.7284
      1489.808        1160.889
 97  4 14 17 15 59.9950000  0  8 31  7 26 27 15 19 18  2            -0.004547723
   6474089.711 9   5052325.47946  23159699.099    23159699.8394   23159706.7404
     -2519.302       -1963.092
 -23730803.718 9 -18127858.13948  20361328.502    20361330.3284   20361338.1154
      3790.578        2953.697
 -14980089.974 9 -11641863.62047  22107267.115    22107269.7344   22107276.3274
      3287.557        2561.733
 -16749995.275 9 -13034740.96648  18782717.845    18782719.5574   18782725.6304
       857.426         668.124
  -9297457.216 9  -7232289.15246  22660936.918    22660938.4764   22660946.7344
      2659.055        2071.991
    675026.890 9    530166.27347  20901945.878    20901948.1624   20901955.5044
     -1351.196       -1052.880
  15574154.489 8  12131511.28345  23817179.384    23817180.8874   23817191.0514
     -2730.167       -2127.403
 -18766275.999 9 -14611390.86848  19773328.254    19773329.8964   19773336.6274
      1481.197        1154.179
 97  4 14 17 16 29.9950000  0  8 31  7 26 27 15 19 18  2            -0.004567666
   6549781.061 9   5111305.82746  23174102.718    23174103.4834   23174110.0284
     -2526.994       -1969.086
 -23844311.845 9 -18216306.00148  20339728.460    20339730.4084   20339738.1804
      3776.553        2942.769
 -15078497.836 9 -11718545.05847  22088540.663    22088543.3504   22088550.0154
      3272.946        2550.348
 -16775455.162 9 -13054579.83948  18777873.046    18777874.7414   18777880.8054
       840.148         654.661
  -9376998.967 9  -7294269.70446  22645800.749    22645802.0954   22645810.3724
      2643.721        2060.042
    715753.078 9    561900.90147  20909695.823    20909698.1524   20909705.4984
     -1363.770       -1062.678
  15656076.781 8  12195346.70645  23832768.720    23832770.3344   23832780.5424
     -2731.202       -2128.209
 -18810564.607 9 -14645901.46748  19764900.370    19764902.0354   19764908.8324
      1471.708        1146.785
 97  4 14 17 16 59.9950000  0  8 31  7 26 27 15 19 18  2            -0.004587596
   6625678.229 9   5170446.32246  23188545.246    23188546.1914   23188553.2984
     -2535.181       -1975.466
 -23957428.134 9 -18304448.53048  20318202.930    20318205.0114   20318212.8004
      3762.399        2931.739
 -15176496.083 9 -11794907.32247  22069892.253    22069894.8914   22069901.5564
      3258.036        2538.729
 -16800445.321 9 -13074052.70048  18773117.446    18773119.2844   18773125.3484
       823.745         641.879
  -9456113.918 9  -7355917.68046  22630745.515    22630746.9714   22630755.2184
      2628.247        2047.985
    756821.355 9    593902.08547  20917511.005    20917513.2574   20917520.6084
     -1376.190       -1072.356
  15737991.399 8  12259176.13645  23848357.183    23848358.3384   23848368.4784
     -2732.103       -2128.911
 -18854623.302 9 -14680232.91848  19756516.230    19756517.9004   19756524.7674
      1463.324        1140.252
 97  4 14 17 17 29.9950000  0  8 31  7 26 27 15 19 18  2            -0.004607508
   6701779.433 9   5229746.11546  23203027.073    23203027.9434   23203034.2374
     -2539.223       -1978.615
 -24070163.228 9 -18392294.02748  20296750.066    20296752.1704   20296759.9604
      3752.485        2924.014
 -15274089.998 9 -11870954.51547  22051320.892    22051323.3914   22051329.9244
      3247.310        2530.371
 -16824995.694 9 -13093182.86948  18768445.593    18768447.5034   18768453.5944
       812.241         632.915
  -9534804.999 9  -7417235.33446  22615770.881    22615772.4314   22615780.9524
      2616.938        2039.172
    798211.689 9    626154.23947  20925387.418    20925389.6444   20925397.0014
     -1383.714       -1078.219
  15819893.662 8  12322995.94845  23863942.399    23863944.0184   23863953.9074
     -2728.970       -2126.470
 -18898478.951 9 -14714406.15048  19748170.791    19748172.4004   19748179.2994
      1459.634        1137.377
 97  4 14 17 17 59.9950000  0  8 31  7 26 27 15 19 18  2            -0.004627392
   6778083.737 8   5289203.86546  23217547.016    23217548.0944   23217555.0914
     -2547.611       -1985.151
 -24182531.122 9 -18479853.39248  20275367.133    20275369.2024   20275377.0224
      3738.862        2913.399
 -15371262.957 9 -11946673.69847  22032829.510    22032831.9614   22032838.4104
      3230.895        2517.581
 -16849123.782 9 -13111983.98948  18763854.229    18763856.1184   18763862.2284
       796.431         620.596
  -9613070.084 9  -7478221.09346  22600877.615    22600879.0624   22600887.3794
      2600.853        2026.639
    839902.285 9    658640.34847  20933320.900    20933323.1754   20933330.4994
     -1395.494       -1087.398
  15901792.839 8  12386813.35945  23879527.025    23879529.1034   23879538.9254
     -2730.648       -2127.778
 -18942147.387 9 -14748433.50248  19739860.930    19739862.5944   19739869.4154
      1451.731        1131.219
 97  4 14 17 18 29.9950000  0  8 31  7 26 27 15 19 18  2            -0.004647231
   6854583.429 8   5348814.05746  23232104.201    23232105.5574   23232112.4544
     -2553.175       -1989.487
 -24294527.708 9 -18567123.43148  20254054.899    20254056.9044   20254064.7104
      3726.687        2903.912
 -15467984.378 9 -12022041.03247  22014424.141    22014426.4514   22014432.9664
      3216.488        2506.354
 -16872829.756 9 -13130456.19048  18759343.289    18759345.0664   18759351.1574
       783.125         610.227
  -9690901.295 9  -7538868.74246  22586066.686    22586068.2534   22586076.8604
      2587.126        2015.942
    881896.475 9    691363.02747  20941312.031    20941314.4754   20941321.8344
     -1404.755       -1094.614
  15983672.787 8  12450615.76045  23895108.889    23895110.1454   23895120.4474
     -2728.597       -2126.179
 -18985627.242 9 -14782313.90748  19731586.972    19731588.6374   19731595.4624
      1446.175        1126.890
 97  4 14 17 18 59.9950000  0  8 31  7 26 27 15 19 18  2            -0.004667035
   6931262.749 9   5408564.11546  23246695.405    23246697.2404   23246704.0354
     -2557.746       -1993.049
 -24406146.356 9 -18654098.97048  20232814.535    20232816.5704   20232824.3554
      3715.572        2895.251
 -15564257.624 9 -12097059.13847  21996103.836    21996106.2334   21996112.8544
      3202.717        2495.624
 -16896115.992 9 -13148601.32148  18754912.041    18754913.8394   18754919.9084
       770.140         600.109
  -9768307.333 9  -7599185.09246  22571336.894    22571338.3654   22571346.8614
      2574.167        2005.844
    924180.353 9    724311.43847  20949358.531    20949360.8384   20949368.2484
     -1413.269       -1101.249
  16065490.034 8  12514369.31145  23910678.279    23910679.5454   23910689.9574
     -2725.079       -2123.438
 -19028916.222 9 -14816045.57848  19723349.393    19723350.9954   19723357.8854
      1440.486        1122.457
 97  4 14 17 19 29.9950000  0  8 31  7 26 27 15 19 18  2            -0.004686801
   7008117.627 9   5468451.06746  23261320.519    23261322.2304   23261328.9064
     -2564.210       -1998.086
 -24517383.056 9 -18740776.89048  20211646.905    20211648.9184   20211656.6974
      3701.799        2884.519
 -15660072.888 9 -12171720.37747  21977870.744    21977873.2444   21977879.8744
      3186.677        2483.125
 -16918962.843 9 -13166404.07148  18750564.404    18750566.2154   18750572.2834
       754.614         588.011
  -9845278.024 9  -7659162.21046  22556689.603    22556691.3004   22556699.7624
      2558.871        1993.925
    966768.451 9    757496.91047  20957462.727    20957465.1474   20957472.5264
     -1424.328       -1109.866
  16147243.532 8  12578073.18745  23926234.991    23926236.9234   23926247.1114
     -2723.420       -2122.145
 -19071975.196 9 -14849598.02348  19715155.483    19715157.1404   19715164.0154
      1431.800        1115.688
 97  4 14 17 19 59.9950000  0  7 31  7 26 27 15 19  2               -0.004706517
   7085171.626 9   5528493.07346  23275983.796    23275985.2724   23275992.1274
     -2571.452       -2003.729
 -24628200.591 9 -18827128.18048  20190559.024    20190561.0274   20190568.8384
      3687.308        2873.227
 -15755399.904 9 -12246001.16247  21959730.468    21959733.1274   21959739.6464
      3170.069        2470.184
 -16941326.744 9 -13183830.49648  18746308.646    18746310.4884   18746316.5794
       737.510         574.683
  -9921781.958 9  -7718775.61146  22542131.296    22542132.9244   22542141.5774
      2542.757        1981.369
   1009709.202 9    790957.17647  20965634.094    20965636.5544   20965643.9174
     -1436.974       -1119.720
 -19114765.567 9 -14882941.16148  19707012.851    19707014.4264   19707021.2384
      1422.332        1108.311
 97  4 14 17 20 29.9950000  0  7 31  7 26 27 15 19  2               -0.004726219
   7162395.085 9   5588667.22646  23290679.294    23290680.4004   23290687.0934
     -2575.810       -2007.125
 -24738619.104 9 -18913168.55248  20169547.017    20169549.0774   20169556.9054
      3675.114        2863.725
 -15850288.753 9 -12319940.52247  21941673.663    21941676.3634   21941682.7824
      3157.025        2460.019
 -16963209.758 9 -13200882.21348  18742144.437    18742146.3124   18742152.4014
       722.500         562.987
  -9997845.612 9  -7778045.93046  22527656.626    22527658.4914   22527667.1214
      2529.266        1970.857
   1052986.747 9    824679.87547  20973869.697    20973872.0374   20973879.4554
     -1446.930       -1127.478
 -19157312.416 9 -14916094.55048  19698916.457    19698918.0134   19698924.7884
      1415.390        1102.901
 97  4 14 17 20 59.9950000  0  7 31  7 26 27 15 19  2               -0.004745919
   7239785.590 9   5648971.44246  23305405.978    23305407.2424   23305414.2874
     -2582.666       -2012.467
 -24848649.052 9 -18998906.13748  20148608.975    20148611.0504   20148618.8714
      3660.977        2852.709
 -15944747.180 9 -12393544.48047  21923698.990    21923701.5314   21923707.8894
      3141.035        2447.560
 -16984605.617 9 -13217554.31648  18738072.957    18738074.8214   18738080.9174
       704.772         549.173
 -10073467.466 9  -7836971.98646  22513266.510    22513268.0454   22513276.6784
      2512.922        1958.121
   1096593.529 9    858659.12947  20982167.830    20982170.1794   20982177.6464
     -1459.319       -1137.132
 -19199616.902 9 -14949059.07948  19690866.067    19690867.6804   19690874.5014
      1405.780        1095.413
 97  4 14 17 21 29.9950000  0  7 31  7 26 27 15 19  2               -0.004765623
   7317316.869 9   5709385.47946  23320159.687    23320161.0934   23320167.8174
     -2588.100       -2016.701
 -24958307.325 9 -19084354.11348  20127741.667    20127743.7244   20127751.5414
      3647.759        2842.410
 -16038780.492 9 -12466817.18847  21905805.034    21905807.5744   21905813.9674
      3125.926        2435.786
 -17005530.487 9 -13233859.42248  18734091.071    18734092.9404   18734099.0704
       688.379         536.399
 -10148655.103 9  -7895559.70246  22498958.884    22498960.3384   22498968.9194
      2497.627        1946.203
   1140510.456 9    892880.05147  20990525.017    20990527.3354   20990534.8704
     -1470.257       -1145.655
 -19241701.358 9 -14981852.16348  19682857.620    19682859.2354   19682866.0954
      1398.041        1089.383
 97  4 14 17 21 59.9950000  0  7 31  7 26 27 15 19  2               -0.004785306
   7395023.707 9   5769936.15646  23334946.776    23334948.1914   23334955.2734
     -2591.160       -2019.086
 -25067561.909 9 -19169487.51948  20106951.165    20106953.2444   20106961.0414
      3637.057        2834.070
 -16132340.391 9 -12539720.98947  21888001.322    21888003.6884   21888010.1324
      3112.687        2425.470
 -17025942.985 9 -13249765.27648  18730206.724    18730208.5654   18730214.7074
       673.725         524.981
 -10223366.806 9  -7953776.56646  22484741.667    22484743.1364   22484751.7114
      2484.378        1935.879
   1184761.167 9    927361.06847  20998945.536    20998947.9744   20998955.5354
     -1478.277       -1151.904
 -19283540.225 9 -15014453.87648  19674895.936    19674897.5744   19674904.4524
      1392.579        1085.126
 97  4 14 17 22 29.9950000  0  7 31  7 26 27 15 19  2               -0.004804995
   7472857.635 9   5830586.01246  23349758.066    23349759.5644   23349766.2514
     -2597.805       -2024.264
 -25176448.427 9 -19254334.12448  20086230.864    20086232.8264   20086240.6114
      3622.029        2822.360
 -16225458.409 9 -12612280.47547  21870281.548    21870283.9244   21870290.3734
      3095.015        2411.700
 -17045887.157 9 -13265306.20148  18726411.420    18726413.3234   18726419.4914
       655.936         511.119
 -10297642.261 9  -8011653.47946  22470607.358    22470608.8514   22470617.5414
      2467.237        1922.522
   1229275.191 9    962047.27547  21007416.346    21007418.7284   21007426.3054
     -1489.386       -1160.561
 -19325179.477 9 -15046900.04748  19666972.217    19666973.8774   19666980.7834
      1383.419        1077.989
 97  4 14 17 22 59.9950000  0  7 31  7 26 27 15 19  2               -0.004824636
   7550876.990 9   5891380.28746  23364604.667    23364606.1804   23364613.1464
     -2601.244       -2026.943
 -25284902.578 9 -19338843.81548  20065592.666    20065594.6644   20065602.4554
      3610.389        2813.290
 -16318055.646 9 -12684434.15347  21852660.773    21852663.1814   21852669.6304
      3080.443        2400.345
 -17065325.545 9 -13280453.01148  18722712.498    18722714.3244   18722720.5164
       642.137         500.366
 -10371420.010 9  -8069142.56946  22456567.805    22456569.3464   22456578.0934
      2453.445        1911.775
   1274100.199 9    996975.79747  21015946.378    21015948.6714   21015956.2434
     -1496.904       -1166.419
 -19366566.775 9 -15079149.88948  19659096.509    19659098.1464   19659105.0614
      1377.942        1073.721
 97  4 14 17 23 29.9950000  0  7 31  7 26 27 15 19  2               -0.004844244
   7629053.461 8   5952296.97546  23379480.876    23379482.6554   23379489.6494
     -2609.178       -2033.126
 -25392952.824 9 -19423038.77748  20045031.407    20045033.3764   20045041.1544
      3594.344        2800.787
 -16410168.886 9 -12756210.70147  21835132.077    21835134.5914   21835140.9984
      3061.813        2385.828
 -17084301.641 9 -13295239.58448  18719101.501    18719103.3314   18719109.5124
       624.196         486.386
 -10444736.343 9  -8126272.10046  22442616.180    22442617.7464   22442626.3914
      2435.579        1897.854
   1319203.511 9   1032121.18647  21024529.173    21024531.5894   21024539.2164
     -1508.641       -1175.564
 -19407745.453 9 -15111237.17048  19651260.482    19651262.1144   19651269.0124
      1368.566        1066.415
 97  4 14 17 23 59.9950000  0  7 31  7 26 27 15 19  2               -0.004863813
   7707416.720 9   6013359.22646  23394392.903    23394394.7664   23394401.8244
     -2617.228       -2039.398
 -25500573.233 9 -19506898.80348  20024551.829    20024553.8614   20024561.6094
      3578.074        2788.110
 -16501782.196 9 -12827597.67947  21817698.676    21817701.1884   21817707.6114
      3043.675        2371.695
 -17102787.696 9 -13309644.31848  18715583.847    18715585.5744   18715591.7594
       606.038         472.237
 -10517569.228 9  -8183024.94946  22428756.569    22428758.0694   22428766.6524
      2417.789        1883.991
   1364606.570 9   1067500.13347  21033169.146    21033171.5364   21033179.1914
     -1520.415       -1184.739
 -19448689.679 9 -15143141.76148  19643469.080    19643470.6714   19643477.5704
      1359.051        1059.001
 97  4 14 17 24 29.9950000  0  7 31  7 26 27 15 19  2               -0.004883331
   7785988.484 8   6074583.98645  23409344.775    23409346.4424   23409353.4494
     -2622.929       -2043.841
 -25607734.468 9 -19590401.02748  20004159.637    20004161.7384   20004169.4934
      3564.139        2777.251
 -16592890.481 9 -12898591.14947  21800361.260    21800363.9164   21800370.3604
      3028.260        2359.683
 -17120767.646 9 -13323654.68248  18712162.344    18712164.1004   18712170.2934
       590.588         460.198
 -10589899.520 9  -8239386.15246  22414992.795    22414994.1694   22415002.6374
      2402.203        1871.846
   1410336.776 9   1103134.02147  21041871.419    21041873.7644   21041881.3954
     -1530.403       -1192.522
 -19489391.301 9 -15174857.31148  19635723.715    19635725.4204   19635732.3724
      1352.305        1053.744
 97  4 14 17 24 59.9950000  0  7 31  7 26 27 15 19  2               -0.004902815
   7864755.505 8   6135960.91846  23424333.104    23424335.2764   23424342.2324
     -2627.893       -2047.709
 -25714465.082 9 -19673567.71248  19983849.537    19983851.5374   19983859.2844
      3551.556        2767.446
 -16683522.975 9 -12969213.86547  21783114.581    21783117.1214   21783123.6124
      3014.284        2348.793
 -17138258.276 9 -13337283.76248  18708833.983    18708835.7754   18708841.9314
       575.787         448.665
 -10661741.866 9  -8295367.14546  22401321.474    22401322.9454   22401331.4444
      2387.541        1860.422
   1456396.938 9   1139024.99147  21050636.377    21050638.7994   21050646.3644
     -1539.950       -1199.961
 -19529865.144 9 -15206395.37548  19628021.930    19628023.5214   19628030.4884
      1346.189        1048.978
 97  4 14 17 25 29.9950000  0  7 31  7 26 27 15 19  2               -0.004922289
   7943682.673 8   6197462.51746  23439352.412    23439354.6354   23439361.8174
     -2633.213       -2051.854
 -25820802.725 9 -19756428.18348  19963614.146    19963616.1374   19963623.8494
      3538.178        2757.022
 -16773714.160 9 -13039492.70547  21765951.775    21765954.3044   21765960.8554
      2999.030        2336.906
 -17155287.636 9 -13350553.40948  18705593.383    18705595.2084   18705601.3794
       560.030         436.387
 -10733122.689 9  -8350988.49246  22387737.658    22387739.4104   22387747.9964
      2371.704        1848.081
   1502764.623 9   1175155.59947  21059459.777    21059462.3014   21059469.8614
     -1550.560       -1208.229
 -19570128.518 9 -15237769.43948  19620360.000    19620361.6644   19620368.6014
      1338.570        1043.042
 97  4 14 17 25 59.9950000  0  7 31  7 26 27 15 19  2               -0.004941731
   8022791.564 8   6259105.82846  23454406.990    23454408.5954   23454415.7044
     -2640.280       -2057.361
 -25926708.543 9 -19838952.16048  19943460.910    19943462.9424   19943470.6204
      3522.584        2744.871
 -16863422.065 9 -13109394.95447  21748880.868    21748883.4884   21748890.0814
      2981.847        2323.517
 -17171816.310 9 -13363432.90948  18702448.060    18702449.9024   18702456.1194
       542.468         422.702
 -10804001.234 9  -8406218.45046  22374249.418    22374251.4934   22374260.3004
      2353.957        1834.252
   1549470.578 9   1211549.79547  21068347.886    21068350.1774   21068357.7174
     -1562.614       -1217.621
 -19610138.819 9 -15268946.29548  19612746.321    19612747.9934   19612754.8514
      1329.373        1035.875
 97  4 14 17 26 29.9950000  0  7 31  7 26 27 15 19  2               -0.004961134
   8102062.801 8   6320875.61645  23469491.863    23469493.4834   23469500.5054
     -2644.375       -2060.552
 -26032190.708 9 -19921146.02548  19923388.302    19923390.3464   19923398.0134
      3509.678        2734.814
 -16952648.508 9 -13178922.04447  21731901.918    21731904.2774   21731910.9194
      2966.737        2311.743
 -17187868.176 9 -13375940.87948  18699393.464    18699395.3624   18699401.5924
       527.809         411.280
 -10874388.423 8  -8461065.55546  22360855.669    22360857.3094   22360866.0784
      2338.689        1822.355
   1596498.657 9   1248194.99247  21077297.060    21077299.3834   21077306.9424
     -1572.320       -1225.184
 -19649922.345 9 -15299946.44248  19605175.852    19605177.4654   19605184.2684
      1322.861        1030.801
 97  4 14 17 26 59.9950000  0  7 31  7 26 27 15 19  2               -0.004980501
   8181483.370 8   6382761.74945  23484604.887    23484606.6934   23484613.7334
     -2649.297       -2064.387
 -26137252.628 9 -20003012.42248  19903395.682    19903397.7314   19903405.3544
      3495.376        2723.670
 -17041386.808 9 -13248068.75747  21715015.526    21715017.9494   21715024.6194
      2950.154        2298.821
 -17203452.213 9 -13388084.30048  18696428.013    18696429.8124   18696436.0564
       512.187         399.107
 -10944289.846 9  -8515534.11446  22347553.058    22347555.2844   22347564.2334
      2322.350        1809.623
   1643841.782 9   1285085.68447  21086306.198    21086308.5324   21086316.0884
     -1582.875       -1233.409
 -19689478.935 9 -15330769.75948  19597648.596    19597650.1034   19597656.8754
      1315.301        1024.910
 97  4 14 17 27 29.9950000  0  7 31  7 26 27 15 19  2               -0.004999837
   8261007.179 8   6444728.33346  23499737.644    23499739.6204   23499746.6844
     -2652.203       -2066.652
 -26241921.335 9 -20084572.42248  19883477.905    19883479.9474   19883487.5444
      3482.424        2713.577
 -17129665.843 9 -13316857.60047  21698216.199    21698219.0104   21698225.6524
      2935.126        2287.111
 -17218608.714 9 -13399894.58048  18693543.849    18693545.6824   18693551.9134
       498.053         388.093
 -11013744.277 9  -8569654.39246  22334336.935    22334338.5744   22334347.4494
      2307.930        1798.387
   1691457.856 9   1322189.05047  21095367.345    21095369.6324   21095377.1814
     -1591.473       -1240.109
 -19728854.995 9 -15361452.40548  19590155.460    19590157.0654   19590163.8564
      1309.854        1020.665
 97  4 14 17 27 59.9940000  0  7 31  7 26 27 15 19  2               -0.005019128
   8340678.120 8   6506809.56546  23514898.495    23514900.4284   23514907.5714
     -2657.771       -2070.990
 -26346124.387 9 -20165769.57348  19863648.773    19863650.7264   19863658.3294
      3466.423        2701.109
 -17217425.727 9 -13385241.91247  21681516.066    21681518.8434   21681525.4554
      2917.439        2273.329
 -17233266.095 9 -13411315.93648  18690754.578    18690756.4744   18690762.7204
       480.919         374.742
 -11082696.110 9  -8623383.01646  22321215.684    22321217.4214   22321226.3144
      2290.730        1784.984
   1739396.761 9   1359543.99447  21104489.846    21104492.0994   21104499.6914
     -1602.874       -1248.993
 -19768008.766 9 -15391961.83948  19582704.739    19582706.3644   19582713.1324
      1302.018        1014.559
 97  4 14 17 28 29.9940000  0  7 31  7 26 27 15 19  2               -0.005038404
   8420446.791 8   6568966.94145  23530077.924    23530079.7864   23530087.0734
     -2660.497       -2073.115
 -26449926.659 9 -20246654.43148  19843895.757    19843897.8214   19843905.4044
      3453.574        2691.097
 -17304729.423 9 -13453270.76347  21664902.779    21664905.4204   21664912.0734
      2902.747        2261.881
 -17247474.157 9 -13422387.17248  18688050.863    18688052.7804   18688059.0314
       466.057         363.161
 -11151198.807 9  -8676761.65946  22308180.279    22308181.7004   22308190.8304
      2276.026        1773.527
   1787625.862 9   1397125.04947  21113667.683    21113669.8274   21113677.4154
     -1612.423       -1256.434
 -19806981.576 9 -15422330.26548  19575288.546    19575290.1344   19575296.8854
      1295.956        1009.836
 97  4 14 17 28 59.9940000  0  6  7 26 27 15 19  2                  -0.005057656
 -26553292.418 9 -20327199.14548  19824225.917    19824227.9954   19824235.5614
      3437.322        2678.433
 -17391548.845 9 -13520922.25047  21648381.674    21648384.2294   21648390.9074
      2885.014        2248.063
 -17261188.221 9 -13433073.47048  18685441.107    18685443.1054   18685449.3314
       448.036         349.119
 -11219211.124 9  -8729758.18946  22295237.213    22295239.1474   22295248.5044
      2257.938        1759.432
   1836182.056 9   1434960.97947  21122907.595    21122909.7694   21122917.4574
     -1624.812       -1266.087
 -19845719.468 9 -15452515.63548  19567916.971    19567918.5514   19567925.3574
      1286.515        1002.479
 97  4 14 17 29 29.9940000  0  6  7 26 27 15 19  2                  -0.005076893
 -26656229.159 9 -20407409.56548  19804637.760    19804639.7864   19804647.3674
      3425.362        2669.113
 -17477896.635 9 -13588206.23547  21631950.248    21631952.8454   21631959.4854
      2871.640        2237.642
 -17274413.271 9 -13443378.72448  18682924.553    18682926.4834   18682932.6994
       433.841         338.058
 -11286730.978 9  -8782371.00146  22282388.748    22282390.4714   22282399.8784
      2243.591        1748.253
   1885046.218 9   1473036.89447  21132206.104    21132208.4064   21132216.0754
     -1632.490       -1272.070
 -19884231.981 9 -15482525.39248  19560588.149    19560589.8124   19560596.6374
      1281.231         998.362
 97  4 14 17 29 59.9940000  0  6  7 26 27 15 19  2                  -0.005096129
 -26758751.345 9 -20487296.95048  19785128.393    19785130.4124   19785137.9824
      3411.390        2658.226
 -17563791.796 9 -13655137.52347  21615604.687    21615607.5534   21615614.1684
      2856.553        2225.885
 -17287167.133 9 -13453316.81348  18680497.649    18680499.4894   18680505.6914
       418.416         326.038
 -11353767.769 9  -8834607.37646  22269631.982    22269633.6524   22269643.0464
      2227.273        1735.537
   1934190.539 9   1511331.10647  21141558.054    21141560.2894   21141568.0154
     -1642.036       -1279.509
 -19922535.063 9 -15512371.94748  19553299.339    19553300.9844   19553307.7634
      1274.057         992.772
 97  4 14 17 30 29.9940000  0  6  7 26 27 15 19  2                  -0.005115374
 -26860891.808 9 -20566886.88948  19765691.790    19765693.7284   19765701.3004
      3397.605        2647.484
 -17649268.312 9 -13721742.59147  21599339.333    21599341.8754   21599348.4694
      2841.445        2214.113
 -17299499.265 9 -13462926.27748  18678150.928    18678152.7574   18678158.9474
       403.261         314.229
 -11420346.803 9  -8886487.09146  22256962.981    22256964.1674   22256973.2554
      2210.966        1722.831
   1983589.083 9   1549823.42347  21150958.233    21150960.5994   21150968.3024
     -1651.395       -1286.801
 -19960659.525 9 -15542079.31648  19546044.631    19546046.1824   19546052.9334
      1267.388         987.575
 97  4 14 17 30 59.9940000  0  6  7 26 27 15 19  2                  -0.005134607
 -26962625.767 9 -20646160.08348  19746332.527    19746334.3984   19746341.9664
      3385.126        2637.761
 -17734284.167 9 -13787988.71447  21583161.632    21583163.8484   21583170.4664
      2826.849        2202.739
 -17311380.666 9 -13472184.52948  18675890.073    18675891.8374   18675898.0244
       389.258         303.318
 -11486440.694 9  -8937988.77046  22244385.119    22244386.8494   22244395.9874
      2195.812        1711.022
   2033254.594 9   1588523.74647  21160409.345    21160411.6614   21160419.3064
     -1659.121       -1292.822
 -19998603.634 9 -15571646.16248  19538824.031    19538825.6514   19538832.4234
      1262.692         983.916
 97  4 14 17 31 29.9940000  0  6  7 26 27 15 19  2                  -0.005153824
 -27063957.975 9 -20725120.21548  19727049.470    19727051.4744   19727059.0804
      3371.299        2626.986
 -17818826.808 9 -13853866.09847  21567073.636    21567075.8994   21567082.4944
      2810.158        2189.734
 -17322805.432 9 -13481086.95648  18673716.050    18673717.7674   18673724.0044
       373.180         290.790
 -11552047.697 9  -8989111.02746  22231900.303    22231902.0234   22231911.2704
      2179.059        1697.968
   2083190.437 9   1627434.74347  21169911.893    21169914.1984   21169921.7904
     -1669.011       -1300.528
 -20036372.551 9 -15601076.48848  19531636.830    19531638.4714   19531645.2544
      1256.076         978.761
 97  4 14 17 31 59.9940000  0  6  7 26 27 15 19  2                  -0.005173010
 -27164879.695 9 -20803760.49048  19707844.669    19707846.6704   19707854.3014
      3358.431        2616.959
 -17902862.693 9 -13919348.59947  21551081.976    21551084.3944   21551090.9784
      2793.902        2177.066
 -17333747.820 9 -13489613.50848  18671633.587    18671635.5174   18671641.8044
       357.844         278.839
 -11617158.726 9  -9039846.82646  22219509.979    22219511.8024   22219520.9454
      2163.269        1685.664
   2133428.069 9   1666580.88747  21179471.844    21179474.1554   21179481.7254
     -1678.608       -1308.006
 -20073941.505 9 -15630350.99948  19524487.738    19524489.3044   19524496.0894
      1250.064         974.076
 97  4 14 17 32 29.9940000  0  6  7 26 27 15 19  2                  -0.005192164
 -27265391.762 9 -20882081.55548  19688717.753    19688719.8144   19688727.4294
      3344.238        2605.900
 -17986376.137 9 -13984424.01547  21535189.716    21535192.3114   21535198.9064
      2775.589        2162.797
 -17344190.257 9 -13497750.48648  18669646.623    18669648.4204   18669654.7094
       340.093         265.007
 -11681767.915 9  -9090191.61246  22207215.641    22207217.1094   22207226.1644
      2145.857        1672.096
   2183985.317 9   1705976.07547  21189092.712    21189094.9444   21189102.5624
     -1689.790       -1316.719
 -20111296.012 9 -15659458.40948  19517379.412    19517380.9904   19517387.7524
      1242.159         967.916
 97  4 14 17 32 59.9940000  0  6  7 26 27 15 19  2                  -0.005211291
 -27365485.457 9 -20960076.61648  19669670.513    19669672.5744   19669680.1314
      3329.929        2594.750
 -18069351.937 9 -14049080.48147  21519400.195    21519402.5584   21519409.1404
      2757.706        2148.862
 -17354112.179 9 -13505481.86148  18667758.673    18667760.3764   18667766.6704
       322.792         251.526
 -11745866.004 9  -9140138.11546  22195017.891    22195019.5734   22195028.6664
      2128.667        1658.702
   2234852.271 9   1745612.59647  21198772.354    21198774.6794   21198782.3414
     -1699.913       -1324.608
 -20148421.992 9 -15688387.74848  19510314.594    19510316.1554   19510322.9144
      1234.195         961.710
 97  4 14 17 33 29.9940000  0  6  7 26 27 15 19  2                  -0.005230397
 -27465149.494 9 -21037736.87748  19650705.152    19650707.1234   19650714.7034
      3314.814        2582.972
 -18151805.883 9 -14113330.30047  21503709.695    21503712.0994   21503718.6964
      2739.959        2135.033
 -17363527.471 9 -13512818.46748  18665966.887    18665968.6764   18665974.9924
       305.645         238.165
 -11809457.549 9  -9189689.91246  22182916.929    22182918.5314   22182927.4414
      2111.295        1645.165
   2286015.390 9   1785479.88047  21208508.487    21208510.7944   21208518.4904
     -1710.282       -1332.687
 -20185310.005 9 -15717131.65248  19503295.051    19503296.6154   19503303.3984
      1225.793         955.163
 97  4 14 17 33 59.9940000  0  6  7 26 27 15 19  2                  -0.005249509
 -27564399.667 9 -21115074.64848  19631818.536    19631820.4284   19631828.0284
      3302.273        2573.200
 -18233791.883 9 -14177215.48947  21488107.988    21488110.6444   21488117.2574
      2726.260        2124.358
 -17372484.584 9 -13519798.04948  18664262.377    18664264.2294   18664270.5204
       292.086         227.599
 -11872576.329 9  -9238873.33346  22170905.962    22170907.4394   22170916.3284
      2097.000        1634.026
   2337423.968 9   1825538.45047  21218291.385    21218293.5734   21218301.2564
     -1716.602       -1337.612
 -20222011.310 9 -15745730.07348  19496311.128    19496312.6344   19496319.3614
      1221.466         951.792
 97  4 14 17 34 29.9940000  0  6  7 26 27 15 19  2                  -0.005268619
 -27663209.954 9 -21192069.64848  19613015.439    19613017.3904   19613025.0034
      3285.884        2560.429
 -18315314.008 9 -14240739.22447  21472594.859    21472597.5164   21472604.0544
      2709.277        2111.125
 -17380983.903 9 -13526420.91148  18662645.016    18662646.8704   18662653.1674
       275.320         214.535
 -11935202.599 9  -9287672.97646  22158988.498    22158990.0594   22158998.7284
      2078.893        1619.917
   2389078.251 9   1865788.46647  21228120.870    21228123.1134   21228130.8114
     -1726.174       -1345.071
 -20258526.515 9 -15774183.47948  19489362.485    19489364.0394   19489370.6974
      1213.742         945.773
 97  4 14 17 34 59.9940000  0  6  7 26 27 15 19  2                  -0.005287727
 -27761576.354 9 -21268718.76648  19594296.844    19594298.8754   19594306.4714
      3270.514        2548.452
 -18396375.190 9 -14303903.77847  21457169.561    21457172.1334   21457178.6464
      2693.429        2098.776
 -17389033.262 9 -13532693.15248  18661113.343    18661115.1374   18661121.4324
       259.938         202.549
 -11997336.050 9  -9336088.62946  22147165.192    22147166.5654   22147174.8754
      2061.972        1606.731
   2440964.016 9   1906218.86647  21237994.632    21237996.7344   21238004.3744
     -1734.554       -1351.601
 -20294860.740 9 -15802495.86148  19482448.355    19482449.8324   19482456.4464
      1207.254         940.717
 97  4 14 17 35 29.9940000  0  6  7 26 27 15 19  2                  -0.005306828
 -27859496.880 9 -21345020.44948  19575663.171    19575665.1694   19575672.7424
      3257.246        2538.114
 -18476978.628 9 -14366711.64547  21441831.757    21441833.8544   21441840.4344
      2679.618        2088.014
 -17396634.364 9 -13538616.10448  18659666.960    18659668.6864   18659675.0154
       246.334         191.948
 -12058979.859 9  -9384122.73646  22135434.766    22135436.2664   22135444.2944
      2047.182        1595.207
   2493101.695 9   1946845.55647  21247915.908    21247918.2444   21247925.9534
     -1741.740       -1357.200
 -20331026.346 9 -15830676.85248  19475566.234    19475567.7284   19475574.3334
      1203.478         937.775
 97  4 14 17 35 59.9940000  0  6  7 26 27 15 19  2                  -0.005325899
 -27956949.234 9 -21420957.32148  19557118.504    19557120.5984   19557128.1674
      3240.927        2525.398
 -18557080.296 9 -14429128.52347  21426588.858    21426590.9874   21426597.7264
      2661.378        2073.801
 -17403743.003 9 -13544155.32348  18658314.265    18658315.9314   18658322.2754
       228.614         178.141
 -12120100.712 9  -9431749.36146  22123803.765    22123805.4084   22123813.3264
      2028.661        1580.775
   2545533.927 9   1987701.77247  21257893.430    21257895.7954   21257903.5644
     -1752.869       -1365.872
 -20366998.957 9 -15858707.45548  19468720.851    19468722.3724   19468729.0044
      1195.546         931.594
 97  4 14 17 36 29.9940000  0  6  7 26 27 15 19  2                  -0.005344960
 -28053989.065 9 -21496572.75148  19538652.470    19538654.5274   19538662.1194
      3226.439        2514.108
 -18636692.762 9 -14491164.20347  21411438.907    21411441.2294   21411448.0914
      2644.067        2060.312
 -17410385.278 9 -13549331.14548  18657050.271    18657051.9384   18657058.2974
       212.069         165.249
 -12180731.189 9  -9478993.86446  22112266.300    22112267.9754   22112275.5154
      2011.339        1567.277
   2598244.044 9   2028774.51447  21267923.801    21267926.2454   21267934.0654
     -1762.916       -1373.701
 -20402784.269 9 -15886592.11748  19461911.024    19461912.6604   19461919.2874
      1188.122         925.809
 97  4 14 17 36 59.9940000  0  6  7 26 27 15 19  2                  -0.005364009
 -28150613.223 9 -21571864.27748  19520265.516    19520267.5294   19520275.1404
      3215.202        2505.352
 -18715799.959 9 -14552806.17947  21396385.402    21396387.6054   21396394.5134
      2630.148        2049.466
 -17416544.984 9 -13554130.93548  18655878.001    18655879.8154   18655886.1684
       198.749         154.869
 -12240862.309 9  -9525849.27446  22100824.127    22100825.6044   22100832.8094
      1997.494        1556.489
   2651233.609 9   2070065.00047  21278007.447    21278009.9214   21278017.7224
     -1769.660       -1378.956
 -20438366.907 9 -15914318.85148  19455139.893    19455141.4924   19455148.1214
      1184.400         922.909
 97  4 14 17 37 29.9940000  0  6  7 26 27 15 19  2                  -0.005383050
 -28246821.171 9 -21646831.48348  19501957.676    19501959.7154   19501967.3274
      3200.787        2494.120
 -18794415.297 9 -14614064.87447  21381424.963    21381427.5624   21381434.4734
      2612.991        2036.097
 -17422223.626 9 -13558555.87048  18654797.448    18654799.2314   18654805.5744
       182.057         141.863
 -12300493.486 9  -9572315.12046  22089476.900    22089478.3584   22089485.2374
      1980.055        1542.900
   2704511.797 9   2111580.41047  21288146.080    21288148.4984   21288156.3364
     -1779.889       -1386.926
 -20473761.731 9 -15941899.22848  19448404.472    19448406.0664   19448412.6924
      1177.269         917.352
 97  4 14 17 37 59.9940000  0  6  7 26 27 15 19  2                  -0.005402102
 -28342645.181 9 -21721499.52148  19483722.959    19483725.0194   19483732.6364
      3188.050        2484.195
 -18872562.869 9 -14674959.08047  21366553.625    21366556.5154   21366563.4014
      2597.502        2024.028
 -17427455.668 9 -13562632.80648  18653801.865    18653803.6564   18653809.9714
       167.440         130.473
 -12359646.088 9  -9618408.05946  22078220.764    22078222.0484   22078228.6424
      1964.051        1530.429
   2758039.195 9   2153289.99547  21298332.214    21298334.4834   21298342.3224
     -1787.985       -1393.235
 -20508975.733 9 -15969338.71448  19441703.447    19441705.0714   19441711.6544
      1171.141         912.577
 97  4 14 17 38 29.9940000  0  6  7 26 27 15 19  2                  -0.005421144
 -28438046.030 9 -21795837.81648  19465568.817    19465570.8324   19465578.4744
      3173.743        2473.046
 -18950221.762 9 -14735472.49847  21351776.008    21351778.5014   21351785.3694
      2581.633        2011.662
 -17432217.943 9 -13566343.68248  18652895.618    18652897.4654   18652903.7784
       151.871         118.341
 -12418283.084 9  -9664099.23146  22067062.394    22067063.8044   22067070.2074
      1946.981        1517.128
   2811841.792 9   2195214.02347  21308570.405    21308572.8204   21308580.6554
     -1796.743       -1400.059
 -20543989.837 9 -15996622.42348  19435040.515    19435042.1004   19435048.7324
      1165.142         907.903
 97  4 14 17 38 59.9940000  0  6  7 26 27 15 19  2                  -0.005440180
 -28533014.841 9 -21869839.46748  19447496.912    19447498.8844   19447506.4604
      3157.942        2460.734
 -19027407.312 9 -14795617.07447  21337088.462    21337090.5884   21337097.4674
      2564.688        1998.458
 -17436516.316 9 -13569693.08148  18652077.731    18652079.5494   18652085.8464
       135.193         105.345
 -12476407.284 9  -9709390.81546  22056001.193    22056003.0434   22056009.4344
      1928.494        1502.723
   2865905.337 9   2237341.38647  21318858.429    21318860.8414   21318868.7314
     -1807.149       -1408.168
 -20578834.192 9 -16023773.86448  19428409.908    19428411.4624   19428418.1164
      1158.301         902.572
 97  4 14 17 39 29.9940000  0  6  7 26 27 15 19  2                  -0.005459203
 -28627546.864 9 -21943500.75548  19429507.994    19429510.0164   19429517.5664
      3144.287        2450.094
 -19104114.997 9 -14855389.30147  21322491.555    21322493.5974   21322500.4734
      2549.245        1986.425
 -17440350.765 9 -13572680.97748  18651348.072    18651349.9164   18651356.1824
       120.666          94.025
 -12534013.937 9  -9754279.09846  22045038.662    22045040.6944   22045047.1604
      1912.090        1489.940
   2920247.774 9   2279686.07347  21329199.604    21329201.9114   21329209.7834
     -1815.320       -1414.535
 -20613498.968 9 -16050785.37648  19421813.436    19421814.9924   19421821.6374
      1152.819         898.301
 97  4 14 17 39 59.9940000  0  6  7 26 27 15 19  2                  -0.005478219
 -28721646.672 9 -22016825.25648  19411601.433    19411603.4104   19411610.9524
      3129.590        2438.642
 -19180340.598 9 -14914785.87647  21307986.162    21307988.3454   21307995.1684
      2532.976        1973.748
 -17443736.804 9 -13575319.46348  18650703.816    18650705.5994   18650711.8764
       105.408          82.136
 -12591114.292 9  -9798772.88646  22034172.609    22034174.6644   22034181.4074
      1894.999        1476.623
   2974842.413 9   2322227.26947  21339588.460    21339590.9374   21339598.9014
     -1823.902       -1421.222
 -20647980.890 9 -16077654.39948  19415251.753    19415253.3284   19415259.9494
      1146.761         893.580
 97  4 14 17 40 29.9940000  0  6  7 26 27 15 19  2                  -0.005497239
 -28815329.439 9 -22089824.78648  19393774.145    19393776.1494   19393783.6894
      3115.106        2427.355
 -19256098.446 9 -14973817.96547  21293569.672    21293572.1674   21293578.9484
      2516.688        1961.056
 -17446673.953 9 -13577608.17048  18650145.018    18650146.7224   18650152.9994
        89.553          69.782
 -12647720.628 9  -9842881.71446  22023400.549    22023402.6654   22023409.6944
      1877.848        1463.258
   3029678.167 9   2364956.36347  21350023.567    21350025.9374   21350033.9314
     -1832.630       -1428.023
 -20682310.402 9 -16104404.66248  19408719.119    19408720.6554   19408727.2844
      1140.682         888.843
 97  4 14 17 40 59.9940000  0  6  7 26 27 15 19  2                  -0.005516267
 -28908593.194 9 -22162497.81948  19376026.628    19376028.6504   19376036.1384
      3101.889        2417.056
 -19331374.974 9 -15032474.99847  21279244.693    21279247.5354   21279254.3794
      2501.097        1948.907
 -17449150.110 9 -13579537.66448  18649673.852    18649675.5334   18649681.8004
        74.906          58.368
 -12703824.857 9  -9886599.28046  22012724.015    22012726.1194   22012733.3414
      1861.832        1450.778
   3084760.749 9   2407877.78047  21360505.520    21360507.7784   21360515.8774
     -1840.158       -1433.889
 -20716455.229 9 -16131011.02048  19402221.558    19402223.0814   19402229.7864
      1135.099         884.493
 97  4 14 17 41 29.9940000  0  6  7 26 27 15 19  2                  -0.005535279
 -29001408.959 9 -22234821.76948  19358364.377    19358366.3794   19358373.8074
      3086.725        2405.240
 -19406124.997 9 -15090721.77947  21265020.554    21265023.0394   21265029.8844
      2483.262        1935.009
 -17451131.475 9 -13581081.60748  18649296.841    18649298.5234   18649304.7484
        58.168          45.326
 -12759398.490 9  -9929903.40946  22002148.322    22002150.6244   22002158.1194
      1843.988        1436.874
   3140111.812 9   2451008.40547  21371038.651    21371040.7344   21371048.9264
     -1848.928       -1440.723
 -20750384.407 9 -16157449.34348  19395765.029    19395766.5494   19395773.2994
      1128.065         879.012
 97  4 14 17 41 59.9940000  0  6  7 26 27 15 19  2                  -0.005554283
 -29093783.856 9 -22306802.18148  19340786.016    19340787.9814   19340795.3964
      3070.885        2392.897
 -19480357.787 9 -15148565.50347  21250894.479    21250896.9934   21250903.8264
      2464.668        1920.521
 -17452621.920 9 -13582243.00848  18649013.204    18649014.9054   18649021.1284
        40.227          31.346
 -12814447.854 9  -9972799.01246  21991673.045    21991674.9754   21991682.7194
      1825.024        1422.097
   3195714.891 9   2494335.40547  21381619.491    21381621.6824   21381629.9044
     -1858.998       -1448.570
 -20784129.221 9 -16183743.99748  19389343.587    19389345.1114   19389351.8614
      1120.716         873.285
 97  4 14 17 42 29.9940000  0  6  7 26 27 15 19  2                  -0.005573285
 -29185745.621 9 -22378460.67648  19323286.216    19323288.1924   19323295.6194
      3057.392        2382.383
 -19554088.362 9 -15206017.90547  21236863.939    21236866.5384   21236873.3514
      2448.389        1907.836
 -17453628.192 9 -13583027.13948  18648821.807    18648823.4084   18648829.6364
        24.647          19.205
 -12868983.205 9 -10015294.07346  21981295.416    21981297.1864   21981305.1744
      1808.338        1409.095
   3251568.572 9   2537857.66947  21392248.162    21392250.3024   21392258.5244
     -1866.824       -1454.668
 -20817711.329 9 -16209911.87348  19382953.105    19382954.6454   19382961.3864
      1115.580         869.283
 97  4 14 17 42 59.9940000  0  6  7 26 27 15 19  2                  -0.005592276
 -29277271.097 9 -22449779.20748  19305869.471    19305871.4984   19305878.8824
      3042.778        2370.996
 -19627307.073 9 -15263071.44447  21222931.042    21222933.5224   21222940.2964
      2431.401        1894.598
 -17454152.885 9 -13583436.01148  18648721.942    18648723.5794   18648729.8314
         8.913           6.945
 -12922998.944 9 -10057384.25646  21971016.630    21971018.3164   21971026.4724
      1791.236        1395.768
   3307674.820 9   2581576.73747  21402924.800    21402927.0584   21402935.2544
     -1875.096       -1461.114
 -20851121.852 9 -16235946.04348  19376595.287    19376596.8124   19376603.6154
      1110.478         865.308
 97  4 14 17 43 29.9940000  0  6  7 26 27 15 19  2                  -0.005611246
 -29368352.433 9 -22520751.65148  19288537.262    19288539.2724   19288546.6694
      3028.615        2359.960
 -19700018.372 9 -15319729.60447  21209094.630    21209097.0694   21209103.7844
      2415.335        1882.079
 -17454204.229 9 -13583476.03948  18648712.137    18648713.8054   18648720.1244
        -6.217          -4.844
 -12976496.944 9 -10099070.99946  21960836.485    21960837.9444   21960846.2504
      1774.477        1382.709
   3364041.038 9   2625498.39147  21413650.981    21413653.2654   21413661.4474
     -1883.389       -1467.576
 -20884382.105 9 -16261863.12348  19370266.038    19370267.5804   19370274.4204
      1106.043         861.852
 97  4 14 17 43 59.9940000  0  6  7 26 27 15 19  2                  -0.005630199
 -29458993.455 9 -22591380.99448  19271288.870    19271290.8674   19271298.2644
      3014.947        2349.309
 -19772228.628 9 -15375997.34447  21195353.439    21195355.9774   21195362.6004
      2399.516        1869.753
 -17453785.429 9 -13583149.72948  18648791.780    18648793.5314   18648799.8664
       -20.894         -16.281
 -13029471.274 9 -10140349.68546  21950755.682    21950757.2224   21950765.6924
      1757.908        1369.798
   3420672.646 9   2669626.82947  21424427.702    21424429.9964   21424438.1384
     -1891.284       -1473.728
 -20917478.488 9 -16287652.51348  19363968.034    19363969.5594   19363976.3864
      1100.995         857.918
 97  4 14 17 44 29.9940000  0  6  7 26 27 15 19  2                  -0.005649135
 -29549176.821 9 -22661653.72248  19254127.635    19254129.5334   19254136.8824
      2998.055        2336.147
 -19843928.708 9 -15431867.54147  21181709.379    21181711.9514   21181718.5434
      2381.413        1855.646
 -17452893.186 9 -13582454.49848  18648961.607    18648963.3594   18648969.7004
       -37.654         -29.341
 -13081910.323 9 -10181211.28046  21940776.823    21940778.4024   21940786.9064
      1738.894        1354.982
   3477573.380 9   2713964.98147  21435255.638    21435257.9104   21435265.9654
     -1901.047       -1481.335
 -20950381.198 9 -16313290.98248  19357706.926    19357708.3854   19357715.2354
      1093.309         851.929
 97  4 14 17 44 59.9940000  0  6  7 26 27 15 19  2                  -0.005668075
 -29638911.345 9 -22731576.70548  19237051.650    19237053.6274   19237060.9084
      2982.900        2324.338
 -19915143.365 9 -15487359.48347  21168157.504    21168160.2614   21168166.8964
      2364.649        1842.584
 -17451559.826 9 -13581415.53948  18649215.321    18649217.1154   18649223.4814
       -52.735         -41.092
 -13133839.112 9 -10221675.27046  21930895.142    21930896.6694   21930905.3084
      1721.517        1341.442
   3534700.476 9   2758479.50447  21446126.563    21446128.8904   21446137.0294
     -1908.847       -1487.413
 -20983108.780 9 -16338792.99348  19351479.049    19351480.5584   19351487.4204
      1087.170         847.145
 97  4 14 17 45 29.9940000  0  6  7 26 27 15 19  2                  -0.005686995
 -29728180.106 9 -22801136.75648  19220064.310    19220066.3364   19220073.5784
      2967.149        2312.064
 -19985828.987 9 -15542439.18447  21154706.477    21154709.2954   21154715.9604
      2346.551        1828.481
 -17449754.405 9 -13580008.74748  18649558.943    18649560.7044   18649567.0694
       -68.903         -53.691
 -13185220.239 9 -10261712.50746  21921117.796    21921119.3014   21921127.9854
      1702.734        1326.806
   3592075.422 9   2803187.17447  21457044.926    21457047.1064   21457055.1444
     -1917.224       -1493.941
 -21015629.393 9 -16364133.72748  19345290.553    19345292.0694   19345298.9744
      1079.734         841.351
 97  4 14 17 45 59.9940000  0  6  7 26 27 15 19  2                  -0.005705903
 -29816984.266 9 -22870334.78248  19203165.373    19203167.4364   19203174.6454
      2952.946        2300.997
 -20055978.966 9 -15597101.51447  21141357.404    21141360.2034   21141366.8894
      2330.104        1815.665
 -17447475.652 9 -13578233.12448  18649992.514    18649994.3634   18650000.7114
       -83.124         -64.772
 -13236049.803 9 -10301319.94746  21911445.070    21911446.8074   21911455.4824
      1685.741        1313.564
   3649682.984 9   2848076.08947  21468007.365    21468009.5114   21468017.5704
     -1923.632       -1498.934
 -21047934.025 9 -16389306.16848  19339143.149    19339144.7104   19339151.6094
      1074.010         836.891
 97  4 14 17 46 29.9940000  0  6  7 26 27 15 19  2                  -0.005724809
 -29905356.218 9 -22939196.02248  19186348.835    19186350.7634   19186357.9684
      2938.642        2289.851
 -20125630.015 9 -15651375.06147  21128103.349    21128106.0184   21128112.6664
      2313.402        1802.651
 -17444771.317 9 -13576125.87248  18650507.118    18650508.9884   18650515.3244
       -97.186         -75.729
 -13286368.611 9 -10340529.40646  21901869.939    21901871.5754   21901880.1484
      1668.888        1300.432
   3707495.556 9   2893124.76747  21479008.977    21479011.0314   21479019.0094
     -1930.453       -1504.249
 -21080077.183 9 -16414352.78448  19333026.481    19333028.0744   19333034.9534
      1069.034         833.014
 97  4 14 17 46 59.9940000  0  6  7 26 27 15 19  2                  -0.005743688
 -29993267.692 9 -23007698.44848  19169619.734    19169621.7144   19169628.8694
      2922.874        2277.564
 -20194740.137 9 -15705227.11347  21114951.916    21114954.7714   21114961.3994
      2294.849        1788.194
 -17441600.941 9 -13573655.47448  18651110.371    18651112.2804   18651118.6314
      -113.376         -88.345
 -13336142.826 9 -10379314.48746  21892398.265    21892399.9134   21892408.4344
      1650.106        1285.797
   3765554.095 9   2938365.10547  21490057.133    21490059.2774   21490067.2074
     -1939.423       -1511.239
 -21112038.835 9 -16439257.96548  19326944.425    19326946.0124   19326952.8164
      1062.706         828.083
 97  4 14 17 47 29.9940000  0  6  7 26 27 15 19  2                  -0.005762535
 -30080719.343 9 -23075842.56548  19152978.126    19152980.2174   19152987.3324
      2908.009        2265.981
 -20263320.512 9 -15758666.36848  21101901.537    21101904.3334   21101910.9184
      2278.148        1775.180
 -17437964.203 9 -13570821.67048  18651802.494    18651804.3344   18651810.6714
      -128.364        -100.024
 -13385370.595 9 -10417673.78146  21883030.596    21883032.2694   21883040.6774
      1632.571        1272.133
   3823870.844 9   2983806.63747  21501154.514    21501156.6364   21501164.5974
     -1947.592       -1517.604
 -21143832.535 9 -16464032.26548  19320894.362    19320895.9044   19320902.6854
      1057.726         824.202
 97  4 14 17 47 59.9940000  0  6  7 26 27 15 19  2                  -0.005781356
 -30167703.246 9 -23143622.20648  19136425.671    19136427.7454   19136434.8544
      2891.079        2252.789
 -20331386.052 9 -15811704.45548  21088949.157    21088951.9134   21088958.4824
      2259.648        1760.765
 -17433852.520 9 -13567617.78448  18652585.054    18652586.7954   18652593.1264
      -145.775        -113.591
 -13434054.185 9 -10455609.02946  21873766.685    21873768.1424   21873776.4504
      1613.023        1256.901
   3882461.328 9   3029461.47347  21512303.732    21512306.0414   21512314.0444
     -1958.334       -1525.975
 -21175459.124 9 -16488676.36148  19314876.065    19314877.5564   19314884.3434
      1050.764         818.777
 97  4 14 17 48 29.9940000  0  6  7 26 27 15 19  2                  -0.005800153
 -30254217.965 9 -23211036.25548  19119962.554    19119964.5644   19119971.6884
      2877.027        2241.839
 -20398929.527 9 -15864335.74148  21076096.122    21076098.7974   21076105.4084
      2243.774        1748.395
 -17429243.628 9 -13564026.46948  18653462.125    18653463.8354   18653470.1804
      -161.149        -125.571
 -13482183.500 9 -10493112.37146  21864608.057    21864609.4744   21864617.6194
      1596.011        1243.645
   3941333.666 9   3075335.93047  21523507.018    21523509.1564   21523517.1734
     -1965.828       -1531.814
 -21206911.252 9 -16513184.51848  19308890.815    19308892.3684   19308899.1874
      1046.443         815.410
 97  4 14 17 48 59.9940000  0  6  7 26 27 15 19  2                  -0.005818952
 -30340271.084 9 -23278090.61148  19103587.196    19103589.2014   19103596.3214
      2859.694        2228.333
 -20465968.354 9 -15916573.79048  21063339.049    21063341.7024   21063348.4064
      2225.178        1733.905
 -17424127.747 9 -13560040.09448  18654435.647    18654437.3554   18654443.7044
      -180.057        -140.304
 -13529764.336 9 -10530188.33746  21855553.543    21855555.1394   21855563.2054
      1575.842        1227.929
   4000462.297 9   3121410.10947  21534758.822    21534761.0654   21534769.0734
     -1976.227       -1539.917
 -21238192.365 9 -16537559.40948  19302938.250    19302939.7674   19302946.5574
      1038.712         809.386
 97  4 14 17 49 29.9940000  0  6  7 26 27 15 19  2                  -0.005837756
 -30425862.782 9 -23344785.42048  19087299.668    19087301.6294   19087308.6954
      2845.385        2217.183
 -20532497.567 9 -15968414.74248  21050678.986    21050681.6264   21050688.3434
      2208.814        1721.154
 -17418495.302 9 -13555651.20048  18655507.363    18655509.1594   18655515.5234
      -196.532        -153.142
 -13576795.564 9 -10566836.02247  21846603.946    21846605.4784   21846613.4594
      1558.440        1214.369
   4059847.274 9   3167684.04147  21546059.462    21546061.7664   21546069.8134
     -1983.908       -1545.902
 -21269289.962 9 -16561791.30548  19297020.528    19297022.1154   19297028.8684
      1033.211         805.099
 97  4 14 17 49 59.9940000  0  6  7 26 27 15 19  2                  -0.005856571
 -30511017.218 9 -23411139.50648  19071095.342    19071097.2424   19071104.3254
      2830.805        2205.822
 -20598511.299 9 -16019854.02048  21038116.897    21038119.6414   21038126.3264
      2191.420        1707.600
 -17412354.418 9 -13550866.12048  18656675.878    18656677.7584   18656684.1094
      -213.422        -166.303
 -13623287.997 9 -10603063.86046  21837756.683    21837758.3064   21837766.0324
      1540.287        1200.224
   4119474.665 9   3214146.85547  21557406.159    21557408.5214   21557416.5944
     -1991.873       -1552.109
 -21300205.025 9 -16585880.96648  19291137.661    19291139.2034   19291145.9384
      1026.954         800.224
 97  4 14 17 50 29.9940000  0  6  7 26 27 15 19  2                  -0.005875377
 -30595705.989 9 -23477130.73848  19054979.500    19054981.4784   19054988.6224
      2814.360        2193.008
 -20663979.051 9 -16070867.86248  21025658.864    21025661.5414   21025668.2314
      2172.529        1692.880
 -17405686.484 9 -13545670.35548  18657944.738    18657946.6464   18657953.0014
      -231.490        -180.382
 -13669208.698 9 -10638846.21146  21829018.068    21829019.8994   21829027.5074
      1520.530        1184.829
   4179364.666 9   3260814.31246  21568802.891    21568805.2534   21568813.3744
     -2001.489       -1559.602
 -21330905.091 9 -16609803.09748  19285295.611    19285297.1574   19285303.9044
      1019.216         794.194
 97  4 14 17 50 59.9940000  0  6  7 26 27 15 19  2                  -0.005894171
 -30679934.674 9 -23542763.46348  19038951.279    19038953.2714   19038960.4504
      2799.777        2181.644
 -20728914.987 9 -16121467.29547  21013302.131    21013304.6174   21013311.2934
      2155.285        1679.443
 -17398528.049 9 -13540092.38348  18659306.925    18659308.8594   18659315.2424
      -246.680        -192.218
 -13714579.170 9 -10674199.78346  21820384.637    21820386.2414   21820393.6314
      1502.952        1171.131
   4239505.935 9   3307677.56447  21580247.568    21580249.8014   21580257.9394
     -2009.016       -1565.467
 -21361412.922 9 -16633575.43648  19279490.028    19279491.7194   19279498.4504
      1013.447         789.699
 97  4 14 17 51 29.9940000  0  6  7 26 27 15 19  2                  -0.005912934
 -30763689.896 9 -23608027.24948  19023013.209    19023015.1674   19023022.3744
      2785.436        2170.470
 -20793286.764 9 -16171627.12347  21001052.716    21001055.0654   21001061.7574
      2137.844        1665.852
 -17390879.854 9 -13534132.77948  18660762.376    18660764.2754   18660770.6814
      -261.535        -203.794
 -13759375.877 9 -10709106.26446  21811860.103    21811861.7544   21811868.9844
      1485.045        1157.178
   4299911.262 9   3354746.54747  21591742.321    21591744.5824   21591752.7814
     -2016.404       -1571.224
 -21391706.122 9 -16657180.52448  19273725.566    19273727.1134   19273733.8214
      1007.740         785.252
